<?xml version="1.0" encoding="UTF-8"?>
<gpx version="1.1" creator="2bulu-scraper" xmlns="http://www.topografix.com/GPX/1/1">
  <metadata><name>峨眉山</name><desc>source: 2bulu.com trackId=83630271; exported 2026-09-01T16:19:38.385Z</desc>
    <bounds minlat="29.5227767" minlon="103.3268084" maxlat="29.5741859" maxlon="103.4526104"/>
    <link href="https://www.2bulu.com/track/t-nA5Nr6LiHeXp%252FR2KBg5Tzw%253D%253D.htm"><text>2bulu 源页面</text></link>
  </metadata>
  <wpt lat="29.5705006" lon="103.4526104"><ele>447</ele><name>起点天下名山牌坊
        </name></wpt>
  <wpt lat="29.569587" lon="103.449423"><ele>456</ele><name>登山杖早餐甜皮鸭
        </name></wpt>
  <wpt lat="29.5684438" lon="103.4438214"><ele>471</ele><name>秀甲天下
        </name></wpt>
  <wpt lat="29.5692684" lon="103.4428099"><ele>475</ele><name>震旦第一山往右→
        </name></wpt>
  <wpt lat="29.5696246" lon="103.4428423"><ele>484</ele><name>已封走伏虎路
        </name></wpt>
  <wpt lat="29.5692556" lon="103.4408833"><ele>490</ele><name>来凤亭
        </name></wpt>
  <wpt lat="29.5706844" lon="103.4414468"><ele>493</ele><name>报国寺
        </name></wpt>
  <wpt lat="29.5656987" lon="103.4342731"><ele>538</ele><name>峨眉山起点
        </name></wpt>
  <wpt lat="29.5649151" lon="103.426709"><ele>607</ele><name>右转
        </name></wpt>
  <wpt lat="29.5651816" lon="103.4258153"><ele>649</ele><name>雷音寺
        </name></wpt>
  <wpt lat="29.5653518" lon="103.4212126"><ele>784</ele><name>第一个红牛墙
        </name></wpt>
  <wpt lat="29.5666637" lon="103.4199176"><ele>795</ele><name>纯阳殿方向
        </name></wpt>
  <wpt lat="29.5666582" lon="103.4079469"><ele>769</ele><name>圣水阁
        </name></wpt>
  <wpt lat="29.5720139" lon="103.401264"><ele>726</ele><name>龙生岗检票口
        </name></wpt>
  <wpt lat="29.5736725" lon="103.3934268"><ele>676</ele><name>广福寺
        </name></wpt>
  <wpt lat="29.574158" lon="103.3922001"><ele>646</ele><name>清音阁
        </name></wpt>
  <wpt lat="29.5734354" lon="103.3918383"><ele>661</ele><name>康熙游山摩岩石刻
        </name></wpt>
  <wpt lat="29.5632532" lon="103.3891053"><ele>719</ele><name>猴哥
        </name></wpt>
  <wpt lat="29.5569081" lon="103.3860757"><ele>785</ele><name>万渡桥
        </name></wpt>
  <wpt lat="29.5550056" lon="103.3839301"><ele>955</ele><name>洪椿坪进度38.4％
        </name></wpt>
  <wpt lat="29.5496131" lon="103.3686832"><ele>1256</ele><name>九十九道拐进度47%
        </name></wpt>
  <wpt lat="29.5494063" lon="103.3663378"><ele>1452</ele><name>茶棚子48.9%
        </name></wpt>
  <wpt lat="29.5496686" lon="103.3569439"><ele>1703</ele><name>仙峰寺
        </name></wpt>
  <wpt lat="29.5500743" lon="103.3569228"><ele>1701</ele><name>免费提供开水姜茶（很暖心）
        </name></wpt>
  <wpt lat="29.5522927" lon="103.352243"><ele>1586</ele><name>仙峰寺西进度59.8%
        </name></wpt>
  <wpt lat="29.5576459" lon="103.3513949"><ele>1539</ele><name>观音桥进度65.6%
        </name></wpt>
  <wpt lat="29.5607751" lon="103.3516089"><ele>1653</ele><name>遇仙寺
        </name></wpt>
  <wpt lat="29.5614701" lon="103.345333"><ele>1775</ele><name>钻天坡进度72.3%
        </name></wpt>
  <wpt lat="29.558911" lon="103.3442851"><ele>2014</ele><name>洗象池进度74.7%
        </name></wpt>
  <wpt lat="29.558911" lon="103.3442851"><ele>2014</ele><name>洗象池
        </name></wpt>
  <wpt lat="29.5423086" lon="103.3320172"><ele>2402</ele><name>雷洞坪灵觉寺
        </name></wpt>
  <wpt lat="29.5350032" lon="103.3327687"><ele>2488</ele><name>接引寺（起大雾啦）
        </name></wpt>
  <wpt lat="29.532243" lon="103.3301798"><ele>2654</ele><name>梳妆台
        </name></wpt>
  <wpt lat="29.5297531" lon="103.3277385"><ele>2825</ele><name>太子坪进度94.5%（如果体力耗尽可在太子坪寺庙借宿一晚80元听一位多次登顶的阿姨说的，我要直奔金顶嘿嘿）
        </name></wpt>
  <wpt lat="29.5273287" lon="103.3324865"><ele>2912</ele><name>天门石到了，进度97%，冲鸭快乐
        </name></wpt>
  <wpt lat="29.5227767" lon="103.3348111"><ele>3007</ele><name>到达金顶
        </name></wpt>
  <trk><name>峨眉山</name>
      <trkseg>
        <trkpt lat="29.5705006" lon="103.4526104"><ele>447.42</ele><time>2026-05-03T14:58:20.000Z</time></trkpt>
        <trkpt lat="29.5704824" lon="103.4524816"><ele>447.42</ele><time>2026-05-03T15:01:02.000Z</time></trkpt>
        <trkpt lat="29.5704567" lon="103.4523662"><ele>447.8</ele><time>2026-05-03T15:01:10.000Z</time></trkpt>
        <trkpt lat="29.5704264" lon="103.4522539"><ele>448.29</ele><time>2026-05-03T15:01:18.000Z</time></trkpt>
        <trkpt lat="29.5704025" lon="103.4521344"><ele>448.74</ele><time>2026-05-03T15:01:26.000Z</time></trkpt>
        <trkpt lat="29.5703744" lon="103.4520159"><ele>449.05</ele><time>2026-05-03T15:01:34.000Z</time></trkpt>
        <trkpt lat="29.5703324" lon="103.451902"><ele>449.42</ele><time>2026-05-03T15:01:42.000Z</time></trkpt>
        <trkpt lat="29.5702905" lon="103.4517951"><ele>449.44</ele><time>2026-05-03T15:01:50.000Z</time></trkpt>
        <trkpt lat="29.5702573" lon="103.4516925"><ele>449.43</ele><time>2026-05-03T15:01:58.000Z</time></trkpt>
        <trkpt lat="29.5702205" lon="103.4515789"><ele>449.55</ele><time>2026-05-03T15:02:08.000Z</time></trkpt>
        <trkpt lat="29.5701532" lon="103.4514988"><ele>449.76</ele><time>2026-05-03T15:02:20.000Z</time></trkpt>
        <trkpt lat="29.570063" lon="103.4515015"><ele>450.08</ele><time>2026-05-03T15:02:28.000Z</time></trkpt>
        <trkpt lat="29.5700026" lon="103.4514409"><ele>450.51</ele><time>2026-05-03T15:02:40.000Z</time></trkpt>
        <trkpt lat="29.5699754" lon="103.4513462"><ele>451.35</ele><time>2026-05-03T15:02:48.000Z</time></trkpt>
        <trkpt lat="29.5700042" lon="103.4512375"><ele>451.72</ele><time>2026-05-03T15:02:56.000Z</time></trkpt>
        <trkpt lat="29.5700542" lon="103.4511223"><ele>451.49</ele><time>2026-05-03T15:03:04.000Z</time></trkpt>
        <trkpt lat="29.5700764" lon="103.4510038"><ele>451.24</ele><time>2026-05-03T15:03:12.000Z</time></trkpt>
        <trkpt lat="29.5700488" lon="103.4508918"><ele>451.3</ele><time>2026-05-03T15:03:20.000Z</time></trkpt>
        <trkpt lat="29.5700053" lon="103.450778"><ele>451.53</ele><time>2026-05-03T15:03:28.000Z</time></trkpt>
        <trkpt lat="29.5699546" lon="103.4506667"><ele>451.83</ele><time>2026-05-03T15:03:36.000Z</time></trkpt>
        <trkpt lat="29.5699105" lon="103.4505549"><ele>452.31</ele><time>2026-05-03T15:03:44.000Z</time></trkpt>
        <trkpt lat="29.5698654" lon="103.4504524"><ele>452.78</ele><time>2026-05-03T15:03:52.000Z</time></trkpt>
        <trkpt lat="29.5698343" lon="103.4503435"><ele>453.6</ele><time>2026-05-03T15:04:02.000Z</time></trkpt>
        <trkpt lat="29.5697953" lon="103.450301"><ele>454.24</ele><time>2026-05-03T15:04:08.000Z</time></trkpt>
        <trkpt lat="29.5698789" lon="103.4502236"><ele>454.56</ele><time>2026-05-03T15:05:43.000Z</time></trkpt>
        <trkpt lat="29.5699145" lon="103.450115"><ele>452.98</ele><time>2026-05-03T15:05:51.000Z</time></trkpt>
        <trkpt lat="29.5699347" lon="103.4500116"><ele>455</ele><time>2026-05-03T15:05:59.000Z</time></trkpt>
        <trkpt lat="29.5698194" lon="103.450035"><ele>458.96</ele><time>2026-05-03T15:06:27.000Z</time></trkpt>
        <trkpt lat="29.5698024" lon="103.4501346"><ele>458</ele><time>2026-05-03T15:06:35.000Z</time></trkpt>
        <trkpt lat="29.5697794" lon="103.4502306"><ele>456.87</ele><time>2026-05-03T15:06:43.000Z</time></trkpt>
        <trkpt lat="29.5697884" lon="103.4501756"><ele>456.77</ele><time>2026-05-03T15:07:37.000Z</time></trkpt>
        <trkpt lat="29.5697806" lon="103.4500574"><ele>456.78</ele><time>2026-05-03T15:07:47.000Z</time></trkpt>
        <trkpt lat="29.5697534" lon="103.4499335"><ele>457.83</ele><time>2026-05-03T15:07:55.000Z</time></trkpt>
        <trkpt lat="29.569711" lon="103.4498093"><ele>458.14</ele><time>2026-05-03T15:08:03.000Z</time></trkpt>
        <trkpt lat="29.5696811" lon="103.4496836"><ele>457.64</ele><time>2026-05-03T15:08:11.000Z</time></trkpt>
        <trkpt lat="29.5696492" lon="103.4495675"><ele>458.74</ele><time>2026-05-03T15:08:19.000Z</time></trkpt>
        <trkpt lat="29.5696096" lon="103.449456"><ele>458.66</ele><time>2026-05-03T15:08:29.000Z</time></trkpt>
        <trkpt lat="29.569587" lon="103.449423"><ele>458.41</ele><time>2026-05-03T15:08:33.000Z</time></trkpt>
        <trkpt lat="29.5695611" lon="103.4493463"><ele>457.49</ele><time>2026-05-03T15:08:49.000Z</time></trkpt>
        <trkpt lat="29.5695524" lon="103.4492479"><ele>457.12</ele><time>2026-05-03T15:08:59.000Z</time></trkpt>
        <trkpt lat="29.569533" lon="103.449144"><ele>456.91</ele><time>2026-05-03T15:09:07.000Z</time></trkpt>
        <trkpt lat="29.5695085" lon="103.4490806"><ele>456.97</ele><time>2026-05-03T15:09:15.000Z</time></trkpt>
        <trkpt lat="29.5695205" lon="103.4489731"><ele>456.38</ele><time>2026-05-03T15:10:55.000Z</time></trkpt>
        <trkpt lat="29.569482" lon="103.4488569"><ele>459.16</ele><time>2026-05-03T15:11:05.000Z</time></trkpt>
        <trkpt lat="29.5695102" lon="103.4487726"><ele>459.03</ele><time>2026-05-03T15:11:15.000Z</time></trkpt>
        <trkpt lat="29.5694958" lon="103.4486675"><ele>458.08</ele><time>2026-05-03T15:11:49.000Z</time></trkpt>
        <trkpt lat="29.569453" lon="103.4485738"><ele>459.02</ele><time>2026-05-03T15:12:25.000Z</time></trkpt>
        <trkpt lat="29.5694053" lon="103.4484669"><ele>459.79</ele><time>2026-05-03T15:12:31.000Z</time></trkpt>
        <trkpt lat="29.5693771" lon="103.4483598"><ele>459.69</ele><time>2026-05-03T15:12:39.000Z</time></trkpt>
        <trkpt lat="29.5693562" lon="103.448321"><ele>461.73</ele><time>2026-05-03T15:12:43.000Z</time></trkpt>
        <trkpt lat="29.5693255" lon="103.4482286"><ele>463.67</ele><time>2026-05-03T15:13:05.000Z</time></trkpt>
        <trkpt lat="29.5693074" lon="103.4481256"><ele>464.3</ele><time>2026-05-03T15:13:15.000Z</time></trkpt>
        <trkpt lat="29.5692809" lon="103.4480117"><ele>464.71</ele><time>2026-05-03T15:13:25.000Z</time></trkpt>
        <trkpt lat="29.5692452" lon="103.4479019"><ele>466.47</ele><time>2026-05-03T15:13:35.000Z</time></trkpt>
        <trkpt lat="29.5692145" lon="103.4477924"><ele>467.13</ele><time>2026-05-03T15:13:45.000Z</time></trkpt>
        <trkpt lat="29.5691888" lon="103.4476831"><ele>466.4</ele><time>2026-05-03T15:13:53.000Z</time></trkpt>
        <trkpt lat="29.5691644" lon="103.4475737"><ele>465.26</ele><time>2026-05-03T15:14:01.000Z</time></trkpt>
        <trkpt lat="29.5691387" lon="103.4474554"><ele>463.94</ele><time>2026-05-03T15:14:11.000Z</time></trkpt>
        <trkpt lat="29.5691077" lon="103.447351"><ele>462.55</ele><time>2026-05-03T15:14:19.000Z</time></trkpt>
        <trkpt lat="29.5690755" lon="103.4472377"><ele>461.57</ele><time>2026-05-03T15:14:29.000Z</time></trkpt>
        <trkpt lat="29.5690476" lon="103.4471333"><ele>461.73</ele><time>2026-05-03T15:14:37.000Z</time></trkpt>
        <trkpt lat="29.5690161" lon="103.4470176"><ele>462.42</ele><time>2026-05-03T15:14:47.000Z</time></trkpt>
        <trkpt lat="29.5689588" lon="103.4469103"><ele>462.86</ele><time>2026-05-03T15:14:59.000Z</time></trkpt>
        <trkpt lat="29.5688939" lon="103.4468152"><ele>464.01</ele><time>2026-05-03T15:15:09.000Z</time></trkpt>
        <trkpt lat="29.5688611" lon="103.4467048"><ele>463.88</ele><time>2026-05-03T15:15:17.000Z</time></trkpt>
        <trkpt lat="29.5688564" lon="103.4465938"><ele>463.11</ele><time>2026-05-03T15:15:23.000Z</time></trkpt>
        <trkpt lat="29.5688512" lon="103.4464762"><ele>462.5</ele><time>2026-05-03T15:15:31.000Z</time></trkpt>
        <trkpt lat="29.5688275" lon="103.4463591"><ele>462.83</ele><time>2026-05-03T15:15:39.000Z</time></trkpt>
        <trkpt lat="29.5687873" lon="103.4462515"><ele>462.85</ele><time>2026-05-03T15:15:47.000Z</time></trkpt>
        <trkpt lat="29.5687465" lon="103.4461468"><ele>463.11</ele><time>2026-05-03T15:15:55.000Z</time></trkpt>
        <trkpt lat="29.5687008" lon="103.4460477"><ele>462.88</ele><time>2026-05-03T15:16:03.000Z</time></trkpt>
        <trkpt lat="29.5686645" lon="103.4459424"><ele>463.75</ele><time>2026-05-03T15:16:11.000Z</time></trkpt>
        <trkpt lat="29.5686014" lon="103.4459079"><ele>463.16</ele><time>2026-05-03T15:16:25.000Z</time></trkpt>
        <trkpt lat="29.568666" lon="103.4458716"><ele>461.39</ele><time>2026-05-03T15:16:47.000Z</time></trkpt>
        <trkpt lat="29.568775" lon="103.4458414"><ele>462.1</ele><time>2026-05-03T15:16:53.000Z</time></trkpt>
        <trkpt lat="29.5688358" lon="103.4457548"><ele>463.34</ele><time>2026-05-03T15:16:59.000Z</time></trkpt>
        <trkpt lat="29.5688534" lon="103.4456505"><ele>467.12</ele><time>2026-05-03T15:17:05.000Z</time></trkpt>
        <trkpt lat="29.5688399" lon="103.4455905"><ele>470.3</ele><time>2026-05-03T15:17:07.000Z</time></trkpt>
        <trkpt lat="29.56873" lon="103.445605"><ele>471.66</ele><time>2026-05-03T15:18:15.000Z</time></trkpt>
        <trkpt lat="29.5686407" lon="103.4455416"><ele>471.1</ele><time>2026-05-03T15:18:23.000Z</time></trkpt>
        <trkpt lat="29.5686072" lon="103.4454259"><ele>469.73</ele><time>2026-05-03T15:19:03.000Z</time></trkpt>
        <trkpt lat="29.5685624" lon="103.4453166"><ele>468.87</ele><time>2026-05-03T15:19:13.000Z</time></trkpt>
        <trkpt lat="29.5685345" lon="103.4452115"><ele>467.84</ele><time>2026-05-03T15:19:21.000Z</time></trkpt>
        <trkpt lat="29.5685177" lon="103.445103"><ele>466.68</ele><time>2026-05-03T15:19:29.000Z</time></trkpt>
        <trkpt lat="29.5685016" lon="103.4449885"><ele>466.93</ele><time>2026-05-03T15:19:39.000Z</time></trkpt>
        <trkpt lat="29.5684956" lon="103.4449143"><ele>468.77</ele><time>2026-05-03T15:19:49.000Z</time></trkpt>
        <trkpt lat="29.5685542" lon="103.4448557"><ele>471.47</ele><time>2026-05-03T15:19:59.000Z</time></trkpt>
        <trkpt lat="29.5686335" lon="103.4448173"><ele>472.51</ele><time>2026-05-03T15:20:13.000Z</time></trkpt>
        <trkpt lat="29.5686665" lon="103.4447345"><ele>471.98</ele><time>2026-05-03T15:20:25.000Z</time></trkpt>
        <trkpt lat="29.5686551" lon="103.4446509"><ele>470.57</ele><time>2026-05-03T15:20:33.000Z</time></trkpt>
        <trkpt lat="29.5686329" lon="103.4445499"><ele>469.59</ele><time>2026-05-03T15:20:53.000Z</time></trkpt>
        <trkpt lat="29.5686106" lon="103.4444403"><ele>470.64</ele><time>2026-05-03T15:21:13.000Z</time></trkpt>
        <trkpt lat="29.5685832" lon="103.4443341"><ele>471.04</ele><time>2026-05-03T15:21:21.000Z</time></trkpt>
        <trkpt lat="29.5685571" lon="103.4442238"><ele>469.94</ele><time>2026-05-03T15:21:29.000Z</time></trkpt>
        <trkpt lat="29.5685122" lon="103.4441171"><ele>468.91</ele><time>2026-05-03T15:21:39.000Z</time></trkpt>
        <trkpt lat="29.568497" lon="103.4440809"><ele>468.52</ele><time>2026-05-03T15:21:43.000Z</time></trkpt>
        <trkpt lat="29.56848" lon="103.4439881"><ele>468.34</ele><time>2026-05-03T15:21:57.000Z</time></trkpt>
        <trkpt lat="29.5684626" lon="103.4438855"><ele>468.56</ele><time>2026-05-03T15:22:05.000Z</time></trkpt>
        <trkpt lat="29.5684438" lon="103.4438214"><ele>469.07</ele><time>2026-05-03T15:22:13.000Z</time></trkpt>
        <trkpt lat="29.5684505" lon="103.4437285"><ele>469.93</ele><time>2026-05-03T15:22:53.000Z</time></trkpt>
        <trkpt lat="29.5684455" lon="103.4436159"><ele>470.54</ele><time>2026-05-03T15:23:03.000Z</time></trkpt>
        <trkpt lat="29.5684513" lon="103.443489"><ele>470.92</ele><time>2026-05-03T15:23:15.000Z</time></trkpt>
        <trkpt lat="29.5684537" lon="103.4433617"><ele>470.93</ele><time>2026-05-03T15:23:25.000Z</time></trkpt>
        <trkpt lat="29.5685026" lon="103.4432696"><ele>471.56</ele><time>2026-05-03T15:23:39.000Z</time></trkpt>
        <trkpt lat="29.5685859" lon="103.4432296"><ele>471.09</ele><time>2026-05-03T15:23:51.000Z</time></trkpt>
        <trkpt lat="29.5686776" lon="103.4431806"><ele>471.21</ele><time>2026-05-03T15:24:01.000Z</time></trkpt>
        <trkpt lat="29.5687058" lon="103.4431715"><ele>471.41</ele><time>2026-05-03T15:24:03.000Z</time></trkpt>
        <trkpt lat="29.5687651" lon="103.4431248"><ele>471.51</ele><time>2026-05-03T15:24:19.000Z</time></trkpt>
        <trkpt lat="29.5687906" lon="103.4430347"><ele>471.1</ele><time>2026-05-03T15:24:27.000Z</time></trkpt>
        <trkpt lat="29.5688159" lon="103.442978"><ele>472.12</ele><time>2026-05-03T15:24:41.000Z</time></trkpt>
        <trkpt lat="29.5688727" lon="103.4430144"><ele>472.74</ele><time>2026-05-03T15:24:51.000Z</time></trkpt>
        <trkpt lat="29.5689601" lon="103.4430177"><ele>473.32</ele><time>2026-05-03T15:25:11.000Z</time></trkpt>
        <trkpt lat="29.5690504" lon="103.4429893"><ele>474.21</ele><time>2026-05-03T15:25:19.000Z</time></trkpt>
        <trkpt lat="29.569128" lon="103.4429237"><ele>474.88</ele><time>2026-05-03T15:25:27.000Z</time></trkpt>
        <trkpt lat="29.5692112" lon="103.4428555"><ele>475.19</ele><time>2026-05-03T15:25:35.000Z</time></trkpt>
        <trkpt lat="29.5692684" lon="103.4428099"><ele>475.08</ele><time>2026-05-03T15:25:43.000Z</time></trkpt>
        <trkpt lat="29.5693628" lon="103.4428351"><ele>475.09</ele><time>2026-05-03T15:26:57.000Z</time></trkpt>
        <trkpt lat="29.5694686" lon="103.4428478"><ele>475.94</ele><time>2026-05-03T15:27:07.000Z</time></trkpt>
        <trkpt lat="29.569484" lon="103.4428479"><ele>476.55</ele><time>2026-05-03T15:27:09.000Z</time></trkpt>
        <trkpt lat="29.5695653" lon="103.4428523"><ele>477.05</ele><time>2026-05-03T15:27:23.000Z</time></trkpt>
        <trkpt lat="29.5696661" lon="103.442861"><ele>477.24</ele><time>2026-05-03T15:27:35.000Z</time></trkpt>
        <trkpt lat="29.5697" lon="103.4428599"><ele>480.09</ele><time>2026-05-03T15:27:37.000Z</time></trkpt>
        <trkpt lat="29.56962" lon="103.4428458"><ele>481.69</ele><time>2026-05-03T15:27:47.000Z</time></trkpt>
        <trkpt lat="29.5696246" lon="103.4428423"><ele>482.67</ele><time>2026-05-03T15:28:01.000Z</time></trkpt>
        <trkpt lat="29.5695544" lon="103.4428458"><ele>483.43</ele><time>2026-05-03T15:28:39.000Z</time></trkpt>
        <trkpt lat="29.5694591" lon="103.4428447"><ele>482.8</ele><time>2026-05-03T15:28:47.000Z</time></trkpt>
        <trkpt lat="29.569358" lon="103.4428251"><ele>481.98</ele><time>2026-05-03T15:28:55.000Z</time></trkpt>
        <trkpt lat="29.5692515" lon="103.4428222"><ele>480.27</ele><time>2026-05-03T15:29:03.000Z</time></trkpt>
        <trkpt lat="29.5691408" lon="103.4428262"><ele>478.85</ele><time>2026-05-03T15:29:11.000Z</time></trkpt>
        <trkpt lat="29.5690284" lon="103.442827"><ele>477.78</ele><time>2026-05-03T15:29:19.000Z</time></trkpt>
        <trkpt lat="29.5689268" lon="103.4427837"><ele>476.83</ele><time>2026-05-03T15:29:27.000Z</time></trkpt>
        <trkpt lat="29.5688614" lon="103.442702"><ele>475.9</ele><time>2026-05-03T15:29:33.000Z</time></trkpt>
        <trkpt lat="29.56884" lon="103.4425917"><ele>475.19</ele><time>2026-05-03T15:29:43.000Z</time></trkpt>
        <trkpt lat="29.5688501" lon="103.4424726"><ele>475.08</ele><time>2026-05-03T15:29:51.000Z</time></trkpt>
        <trkpt lat="29.5688705" lon="103.442358"><ele>475.95</ele><time>2026-05-03T15:29:59.000Z</time></trkpt>
        <trkpt lat="29.5688972" lon="103.4422497"><ele>478.29</ele><time>2026-05-03T15:30:07.000Z</time></trkpt>
        <trkpt lat="29.5689269" lon="103.4421459"><ele>480.55</ele><time>2026-05-03T15:30:15.000Z</time></trkpt>
        <trkpt lat="29.5689524" lon="103.4420448"><ele>481.94</ele><time>2026-05-03T15:30:23.000Z</time></trkpt>
        <trkpt lat="29.5689769" lon="103.4419409"><ele>481.64</ele><time>2026-05-03T15:30:31.000Z</time></trkpt>
        <trkpt lat="29.5689904" lon="103.441831"><ele>481.13</ele><time>2026-05-03T15:30:39.000Z</time></trkpt>
        <trkpt lat="29.5690028" lon="103.4417253"><ele>481.96</ele><time>2026-05-03T15:30:47.000Z</time></trkpt>
        <trkpt lat="29.5690235" lon="103.4416221"><ele>482.23</ele><time>2026-05-03T15:30:55.000Z</time></trkpt>
        <trkpt lat="29.5690329" lon="103.4415155"><ele>481.6</ele><time>2026-05-03T15:31:03.000Z</time></trkpt>
        <trkpt lat="29.5690563" lon="103.4414105"><ele>481.49</ele><time>2026-05-03T15:31:11.000Z</time></trkpt>
        <trkpt lat="29.5690824" lon="103.4412917"><ele>481.37</ele><time>2026-05-03T15:31:21.000Z</time></trkpt>
        <trkpt lat="29.5691012" lon="103.4411679"><ele>481.66</ele><time>2026-05-03T15:31:31.000Z</time></trkpt>
        <trkpt lat="29.569125" lon="103.4410756"><ele>484.04</ele><time>2026-05-03T15:31:41.000Z</time></trkpt>
        <trkpt lat="29.5691597" lon="103.440981"><ele>485.57</ele><time>2026-05-03T15:31:55.000Z</time></trkpt>
        <trkpt lat="29.5691823" lon="103.4409204"><ele>487.11</ele><time>2026-05-03T15:32:03.000Z</time></trkpt>
        <trkpt lat="29.5692556" lon="103.4408833"><ele>488.4</ele><time>2026-05-03T15:32:21.000Z</time></trkpt>
        <trkpt lat="29.5691771" lon="103.4409255"><ele>488.97</ele><time>2026-05-03T15:33:35.000Z</time></trkpt>
        <trkpt lat="29.5691095" lon="103.4409246"><ele>488.71</ele><time>2026-05-03T15:33:43.000Z</time></trkpt>
        <trkpt lat="29.569058" lon="103.4408419"><ele>488.34</ele><time>2026-05-03T15:33:53.000Z</time></trkpt>
        <trkpt lat="29.5690304" lon="103.4407288"><ele>488.13</ele><time>2026-05-03T15:34:03.000Z</time></trkpt>
        <trkpt lat="29.5690156" lon="103.4406105"><ele>488.39</ele><time>2026-05-03T15:34:13.000Z</time></trkpt>
        <trkpt lat="29.5690151" lon="103.4405686"><ele>488.95</ele><time>2026-05-03T15:34:15.000Z</time></trkpt>
        <trkpt lat="29.5690095" lon="103.4404873"><ele>489.42</ele><time>2026-05-03T15:34:31.000Z</time></trkpt>
        <trkpt lat="29.5690441" lon="103.4405232"><ele>489.6</ele><time>2026-05-03T15:34:39.000Z</time></trkpt>
        <trkpt lat="29.5690918" lon="103.4406341"><ele>489.3</ele><time>2026-05-03T15:34:49.000Z</time></trkpt>
        <trkpt lat="29.5691746" lon="103.4406961"><ele>488.85</ele><time>2026-05-03T15:34:57.000Z</time></trkpt>
        <trkpt lat="29.5692358" lon="103.4408108"><ele>486.45</ele><time>2026-05-03T15:35:05.000Z</time></trkpt>
        <trkpt lat="29.5692876" lon="103.44092"><ele>484.55</ele><time>2026-05-03T15:35:11.000Z</time></trkpt>
        <trkpt lat="29.5693703" lon="103.4409848"><ele>484.6</ele><time>2026-05-03T15:35:19.000Z</time></trkpt>
        <trkpt lat="29.5694791" lon="103.441015"><ele>486.46</ele><time>2026-05-03T15:35:27.000Z</time></trkpt>
        <trkpt lat="29.5695834" lon="103.441022"><ele>488.19</ele><time>2026-05-03T15:35:35.000Z</time></trkpt>
        <trkpt lat="29.5696929" lon="103.4410208"><ele>489.31</ele><time>2026-05-03T15:35:43.000Z</time></trkpt>
        <trkpt lat="29.5698045" lon="103.4410063"><ele>491.54</ele><time>2026-05-03T15:35:51.000Z</time></trkpt>
        <trkpt lat="29.5699119" lon="103.4410308"><ele>492.57</ele><time>2026-05-03T15:35:59.000Z</time></trkpt>
        <trkpt lat="29.5700188" lon="103.4410782"><ele>492.57</ele><time>2026-05-03T15:36:07.000Z</time></trkpt>
        <trkpt lat="29.570117" lon="103.4411471"><ele>491.54</ele><time>2026-05-03T15:36:15.000Z</time></trkpt>
        <trkpt lat="29.5702112" lon="103.4412227"><ele>491.66</ele><time>2026-05-03T15:36:23.000Z</time></trkpt>
        <trkpt lat="29.5703077" lon="103.4412873"><ele>492.42</ele><time>2026-05-03T15:36:31.000Z</time></trkpt>
        <trkpt lat="29.5703978" lon="103.4413477"><ele>492.82</ele><time>2026-05-03T15:36:39.000Z</time></trkpt>
        <trkpt lat="29.5704892" lon="103.4414033"><ele>492.19</ele><time>2026-05-03T15:36:47.000Z</time></trkpt>
        <trkpt lat="29.5705869" lon="103.4414376"><ele>491.35</ele><time>2026-05-03T15:36:55.000Z</time></trkpt>
        <trkpt lat="29.5706844" lon="103.4414468"><ele>491.97</ele><time>2026-05-03T15:37:11.000Z</time></trkpt>
        <trkpt lat="29.5706055" lon="103.4414828"><ele>492.48</ele><time>2026-05-03T15:38:23.000Z</time></trkpt>
        <trkpt lat="29.570525" lon="103.4414323"><ele>492.95</ele><time>2026-05-03T15:38:31.000Z</time></trkpt>
        <trkpt lat="29.5704396" lon="103.4413659"><ele>493.21</ele><time>2026-05-03T15:38:39.000Z</time></trkpt>
        <trkpt lat="29.5703453" lon="103.4413166"><ele>493.77</ele><time>2026-05-03T15:38:55.000Z</time></trkpt>
        <trkpt lat="29.5702993" lon="103.441299"><ele>493.45</ele><time>2026-05-03T15:39:05.000Z</time></trkpt>
        <trkpt lat="29.5702413" lon="103.4412182"><ele>493.25</ele><time>2026-05-03T15:40:31.000Z</time></trkpt>
        <trkpt lat="29.5701466" lon="103.4411817"><ele>492.97</ele><time>2026-05-03T15:40:37.000Z</time></trkpt>
        <trkpt lat="29.5700569" lon="103.4411246"><ele>492.94</ele><time>2026-05-03T15:40:43.000Z</time></trkpt>
        <trkpt lat="29.5699649" lon="103.4410836"><ele>494.23</ele><time>2026-05-03T15:40:49.000Z</time></trkpt>
        <trkpt lat="29.5698769" lon="103.4410483"><ele>495.43</ele><time>2026-05-03T15:40:55.000Z</time></trkpt>
        <trkpt lat="29.5697803" lon="103.4410206"><ele>497.23</ele><time>2026-05-03T15:41:03.000Z</time></trkpt>
        <trkpt lat="29.5696724" lon="103.4410086"><ele>498.08</ele><time>2026-05-03T15:41:11.000Z</time></trkpt>
        <trkpt lat="29.5695675" lon="103.440975"><ele>499.67</ele><time>2026-05-03T15:41:19.000Z</time></trkpt>
        <trkpt lat="29.5694622" lon="103.4409405"><ele>500.58</ele><time>2026-05-03T15:41:27.000Z</time></trkpt>
        <trkpt lat="29.5693707" lon="103.4409077"><ele>500.61</ele><time>2026-05-03T15:41:35.000Z</time></trkpt>
        <trkpt lat="29.5692655" lon="103.440889"><ele>498.76</ele><time>2026-05-03T15:41:43.000Z</time></trkpt>
        <trkpt lat="29.5691753" lon="103.4408328"><ele>496.6</ele><time>2026-05-03T15:41:51.000Z</time></trkpt>
        <trkpt lat="29.5691517" lon="103.4407226"><ele>494.62</ele><time>2026-05-03T15:41:59.000Z</time></trkpt>
        <trkpt lat="29.5690787" lon="103.4406382"><ele>491.51</ele><time>2026-05-03T15:42:07.000Z</time></trkpt>
        <trkpt lat="29.5690268" lon="103.4405302"><ele>488.7</ele><time>2026-05-03T15:42:17.000Z</time></trkpt>
        <trkpt lat="29.5690083" lon="103.4404138"><ele>487.32</ele><time>2026-05-03T15:42:25.000Z</time></trkpt>
        <trkpt lat="29.5689931" lon="103.4403034"><ele>487.29</ele><time>2026-05-03T15:42:33.000Z</time></trkpt>
        <trkpt lat="29.5689346" lon="103.4402258"><ele>488.3</ele><time>2026-05-03T15:42:41.000Z</time></trkpt>
        <trkpt lat="29.5688722" lon="103.4401457"><ele>490.46</ele><time>2026-05-03T15:42:49.000Z</time></trkpt>
        <trkpt lat="29.568824" lon="103.4400561"><ele>491.22</ele><time>2026-05-03T15:42:57.000Z</time></trkpt>
        <trkpt lat="29.5687673" lon="103.4399577"><ele>492.34</ele><time>2026-05-03T15:43:07.000Z</time></trkpt>
        <trkpt lat="29.5687062" lon="103.4398521"><ele>493.41</ele><time>2026-05-03T15:43:17.000Z</time></trkpt>
        <trkpt lat="29.5686496" lon="103.4397622"><ele>493.9</ele><time>2026-05-03T15:43:25.000Z</time></trkpt>
        <trkpt lat="29.5686055" lon="103.4396722"><ele>494.22</ele><time>2026-05-03T15:43:35.000Z</time></trkpt>
        <trkpt lat="29.5685374" lon="103.4395915"><ele>495.48</ele><time>2026-05-03T15:43:45.000Z</time></trkpt>
        <trkpt lat="29.5684765" lon="103.4395044"><ele>498.27</ele><time>2026-05-03T15:43:53.000Z</time></trkpt>
        <trkpt lat="29.5683998" lon="103.4394109"><ele>499.09</ele><time>2026-05-03T15:44:05.000Z</time></trkpt>
        <trkpt lat="29.5683258" lon="103.4393197"><ele>500.47</ele><time>2026-05-03T15:44:13.000Z</time></trkpt>
        <trkpt lat="29.5682534" lon="103.4392465"><ele>500.91</ele><time>2026-05-03T15:44:21.000Z</time></trkpt>
        <trkpt lat="29.5681661" lon="103.4391868"><ele>501.26</ele><time>2026-05-03T15:44:29.000Z</time></trkpt>
        <trkpt lat="29.5680856" lon="103.4391013"><ele>501.91</ele><time>2026-05-03T15:44:37.000Z</time></trkpt>
        <trkpt lat="29.5680074" lon="103.4390084"><ele>504.05</ele><time>2026-05-03T15:44:47.000Z</time></trkpt>
        <trkpt lat="29.5679352" lon="103.4389295"><ele>505.94</ele><time>2026-05-03T15:44:55.000Z</time></trkpt>
        <trkpt lat="29.5678578" lon="103.4388448"><ele>507.28</ele><time>2026-05-03T15:45:05.000Z</time></trkpt>
        <trkpt lat="29.5677828" lon="103.4387562"><ele>507.94</ele><time>2026-05-03T15:45:15.000Z</time></trkpt>
        <trkpt lat="29.5677173" lon="103.4386677"><ele>508.36</ele><time>2026-05-03T15:45:23.000Z</time></trkpt>
        <trkpt lat="29.5676698" lon="103.4385732"><ele>509.89</ele><time>2026-05-03T15:45:31.000Z</time></trkpt>
        <trkpt lat="29.5676097" lon="103.4384827"><ele>510.56</ele><time>2026-05-03T15:45:41.000Z</time></trkpt>
        <trkpt lat="29.567542" lon="103.4383866"><ele>510.44</ele><time>2026-05-03T15:45:51.000Z</time></trkpt>
        <trkpt lat="29.5674679" lon="103.4382969"><ele>510.2</ele><time>2026-05-03T15:46:01.000Z</time></trkpt>
        <trkpt lat="29.5673857" lon="103.4382161"><ele>509.54</ele><time>2026-05-03T15:46:11.000Z</time></trkpt>
        <trkpt lat="29.5673264" lon="103.4381227"><ele>509.08</ele><time>2026-05-03T15:46:19.000Z</time></trkpt>
        <trkpt lat="29.5672846" lon="103.4380236"><ele>509.72</ele><time>2026-05-03T15:46:27.000Z</time></trkpt>
        <trkpt lat="29.5672385" lon="103.4379173"><ele>510.53</ele><time>2026-05-03T15:46:37.000Z</time></trkpt>
        <trkpt lat="29.5671925" lon="103.4378166"><ele>511.52</ele><time>2026-05-03T15:46:47.000Z</time></trkpt>
        <trkpt lat="29.5671432" lon="103.4377073"><ele>511.52</ele><time>2026-05-03T15:46:57.000Z</time></trkpt>
        <trkpt lat="29.5671155" lon="103.4376603"><ele>510.84</ele><time>2026-05-03T15:47:01.000Z</time></trkpt>
        <trkpt lat="29.5670493" lon="103.4376008"><ele>510.28</ele><time>2026-05-03T15:47:17.000Z</time></trkpt>
        <trkpt lat="29.5669822" lon="103.4375232"><ele>512.2</ele><time>2026-05-03T15:47:31.000Z</time></trkpt>
        <trkpt lat="29.5669292" lon="103.4374347"><ele>512.91</ele><time>2026-05-03T15:47:43.000Z</time></trkpt>
        <trkpt lat="29.5668877" lon="103.4373343"><ele>514.75</ele><time>2026-05-03T15:47:53.000Z</time></trkpt>
        <trkpt lat="29.5668388" lon="103.4372418"><ele>514.81</ele><time>2026-05-03T15:48:01.000Z</time></trkpt>
        <trkpt lat="29.5667797" lon="103.4371458"><ele>515.6</ele><time>2026-05-03T15:48:09.000Z</time></trkpt>
        <trkpt lat="29.5667123" lon="103.437043"><ele>516.68</ele><time>2026-05-03T15:48:19.000Z</time></trkpt>
        <trkpt lat="29.5666719" lon="103.4369294"><ele>517.92</ele><time>2026-05-03T15:48:29.000Z</time></trkpt>
        <trkpt lat="29.5666206" lon="103.4368331"><ele>519.92</ele><time>2026-05-03T15:48:37.000Z</time></trkpt>
        <trkpt lat="29.5665532" lon="103.436752"><ele>521.13</ele><time>2026-05-03T15:48:45.000Z</time></trkpt>
        <trkpt lat="29.5665074" lon="103.4366588"><ele>521.81</ele><time>2026-05-03T15:48:53.000Z</time></trkpt>
        <trkpt lat="29.566446" lon="103.4365799"><ele>521.5</ele><time>2026-05-03T15:49:01.000Z</time></trkpt>
        <trkpt lat="29.5663837" lon="103.4364944"><ele>521.28</ele><time>2026-05-03T15:49:09.000Z</time></trkpt>
        <trkpt lat="29.566346" lon="103.4363866"><ele>522.83</ele><time>2026-05-03T15:49:17.000Z</time></trkpt>
        <trkpt lat="29.5663098" lon="103.4362816"><ele>524.98</ele><time>2026-05-03T15:49:25.000Z</time></trkpt>
        <trkpt lat="29.5662725" lon="103.4361707"><ele>526.57</ele><time>2026-05-03T15:49:35.000Z</time></trkpt>
        <trkpt lat="29.5662276" lon="103.4360628"><ele>527.11</ele><time>2026-05-03T15:49:47.000Z</time></trkpt>
        <trkpt lat="29.5661939" lon="103.4359587"><ele>527.33</ele><time>2026-05-03T15:49:57.000Z</time></trkpt>
        <trkpt lat="29.5661657" lon="103.4358491"><ele>525.25</ele><time>2026-05-03T15:50:05.000Z</time></trkpt>
        <trkpt lat="29.5661532" lon="103.4357354"><ele>522.36</ele><time>2026-05-03T15:50:13.000Z</time></trkpt>
        <trkpt lat="29.566145" lon="103.4356538"><ele>522.34</ele><time>2026-05-03T15:50:23.000Z</time></trkpt>
        <trkpt lat="29.5661052" lon="103.4355673"><ele>521.64</ele><time>2026-05-03T15:50:53.000Z</time></trkpt>
        <trkpt lat="29.5660637" lon="103.4354598"><ele>523.28</ele><time>2026-05-03T15:51:05.000Z</time></trkpt>
        <trkpt lat="29.5660311" lon="103.4353507"><ele>523.93</ele><time>2026-05-03T15:51:15.000Z</time></trkpt>
        <trkpt lat="29.566004" lon="103.4352423"><ele>523.34</ele><time>2026-05-03T15:51:23.000Z</time></trkpt>
        <trkpt lat="29.5659582" lon="103.4351153"><ele>523.51</ele><time>2026-05-03T15:51:34.000Z</time></trkpt>
        <trkpt lat="29.5659092" lon="103.4350124"><ele>526.53</ele><time>2026-05-03T15:51:44.000Z</time></trkpt>
        <trkpt lat="29.5658509" lon="103.4349283"><ele>528.75</ele><time>2026-05-03T15:51:56.000Z</time></trkpt>
        <trkpt lat="29.565758" lon="103.4348909"><ele>530.18</ele><time>2026-05-03T15:52:06.000Z</time></trkpt>
        <trkpt lat="29.5656749" lon="103.434835"><ele>532.12</ele><time>2026-05-03T15:52:16.000Z</time></trkpt>
        <trkpt lat="29.5656058" lon="103.4347669"><ele>534.13</ele><time>2026-05-03T15:52:26.000Z</time></trkpt>
        <trkpt lat="29.5655616" lon="103.4346657"><ele>535.64</ele><time>2026-05-03T15:52:38.000Z</time></trkpt>
        <trkpt lat="29.5655595" lon="103.4345449"><ele>534.87</ele><time>2026-05-03T15:52:48.000Z</time></trkpt>
        <trkpt lat="29.5655998" lon="103.4344289"><ele>534.14</ele><time>2026-05-03T15:53:00.000Z</time></trkpt>
        <trkpt lat="29.5656567" lon="103.434324"><ele>535.72</ele><time>2026-05-03T15:53:10.000Z</time></trkpt>
        <trkpt lat="29.5656987" lon="103.4342731"><ele>536.42</ele><time>2026-05-03T15:53:16.000Z</time></trkpt>
        <trkpt lat="29.5657451" lon="103.4341988"><ele>537.13</ele><time>2026-05-03T15:53:48.000Z</time></trkpt>
        <trkpt lat="29.5657421" lon="103.4340994"><ele>539.53</ele><time>2026-05-03T15:54:02.000Z</time></trkpt>
        <trkpt lat="29.5657312" lon="103.4339927"><ele>542.23</ele><time>2026-05-03T15:54:14.000Z</time></trkpt>
        <trkpt lat="29.5657309" lon="103.4338724"><ele>544.7</ele><time>2026-05-03T15:54:26.000Z</time></trkpt>
        <trkpt lat="29.5657188" lon="103.4337598"><ele>546.48</ele><time>2026-05-03T15:54:36.000Z</time></trkpt>
        <trkpt lat="29.5657231" lon="103.433643"><ele>547.32</ele><time>2026-05-03T15:54:46.000Z</time></trkpt>
        <trkpt lat="29.5657567" lon="103.4335392"><ele>547.79</ele><time>2026-05-03T15:54:56.000Z</time></trkpt>
        <trkpt lat="29.5657838" lon="103.4334337"><ele>545.86</ele><time>2026-05-03T15:55:04.000Z</time></trkpt>
        <trkpt lat="29.5657785" lon="103.4333185"><ele>544.28</ele><time>2026-05-03T15:55:12.000Z</time></trkpt>
        <trkpt lat="29.565763" lon="103.4332111"><ele>542.62</ele><time>2026-05-03T15:55:22.000Z</time></trkpt>
        <trkpt lat="29.5657194" lon="103.4331166"><ele>540.36</ele><time>2026-05-03T15:55:30.000Z</time></trkpt>
        <trkpt lat="29.5657068" lon="103.4330152"><ele>538.36</ele><time>2026-05-03T15:55:36.000Z</time></trkpt>
        <trkpt lat="29.5656493" lon="103.432906"><ele>539.4</ele><time>2026-05-03T15:55:46.000Z</time></trkpt>
        <trkpt lat="29.5655844" lon="103.4328178"><ele>539.77</ele><time>2026-05-03T15:55:52.000Z</time></trkpt>
        <trkpt lat="29.5655756" lon="103.4327091"><ele>540.82</ele><time>2026-05-03T15:56:00.000Z</time></trkpt>
        <trkpt lat="29.5655559" lon="103.4325977"><ele>541.44</ele><time>2026-05-03T15:56:12.000Z</time></trkpt>
        <trkpt lat="29.5655109" lon="103.4325052"><ele>541.64</ele><time>2026-05-03T15:56:22.000Z</time></trkpt>
        <trkpt lat="29.5654447" lon="103.4324326"><ele>543.05</ele><time>2026-05-03T15:57:58.000Z</time></trkpt>
        <trkpt lat="29.5654173" lon="103.4323242"><ele>544.98</ele><time>2026-05-03T15:58:06.000Z</time></trkpt>
        <trkpt lat="29.5654222" lon="103.4321964"><ele>548.35</ele><time>2026-05-03T15:58:14.000Z</time></trkpt>
        <trkpt lat="29.5653932" lon="103.432095"><ele>549.94</ele><time>2026-05-03T15:58:22.000Z</time></trkpt>
        <trkpt lat="29.5653312" lon="103.4320077"><ele>549.76</ele><time>2026-05-03T15:58:32.000Z</time></trkpt>
        <trkpt lat="29.5652927" lon="103.4319136"><ele>551.68</ele><time>2026-05-03T15:58:44.000Z</time></trkpt>
        <trkpt lat="29.5653351" lon="103.4318302"><ele>553.1</ele><time>2026-05-03T15:58:54.000Z</time></trkpt>
        <trkpt lat="29.5653828" lon="103.4317401"><ele>554.83</ele><time>2026-05-03T15:59:16.000Z</time></trkpt>
        <trkpt lat="29.5654191" lon="103.4316346"><ele>554.92</ele><time>2026-05-03T15:59:26.000Z</time></trkpt>
        <trkpt lat="29.565443" lon="103.4315272"><ele>556.63</ele><time>2026-05-03T15:59:38.000Z</time></trkpt>
        <trkpt lat="29.5654657" lon="103.4314193"><ele>559.39</ele><time>2026-05-03T15:59:50.000Z</time></trkpt>
        <trkpt lat="29.5654971" lon="103.4313102"><ele>562.76</ele><time>2026-05-03T16:00:04.000Z</time></trkpt>
        <trkpt lat="29.565537" lon="103.4311996"><ele>564.39</ele><time>2026-05-03T16:00:18.000Z</time></trkpt>
        <trkpt lat="29.5655612" lon="103.4310937"><ele>564.68</ele><time>2026-05-03T16:00:26.000Z</time></trkpt>
        <trkpt lat="29.5655469" lon="103.4309904"><ele>566.07</ele><time>2026-05-03T16:00:34.000Z</time></trkpt>
        <trkpt lat="29.5654721" lon="103.4309034"><ele>566.34</ele><time>2026-05-03T16:00:44.000Z</time></trkpt>
        <trkpt lat="29.5653991" lon="103.430807"><ele>567.31</ele><time>2026-05-03T16:00:54.000Z</time></trkpt>
        <trkpt lat="29.5653387" lon="103.4306986"><ele>568.33</ele><time>2026-05-03T16:01:04.000Z</time></trkpt>
        <trkpt lat="29.5653342" lon="103.4305841"><ele>570.22</ele><time>2026-05-03T16:01:14.000Z</time></trkpt>
        <trkpt lat="29.5653104" lon="103.4304824"><ele>569.72</ele><time>2026-05-03T16:01:24.000Z</time></trkpt>
        <trkpt lat="29.565297" lon="103.430376"><ele>570.9</ele><time>2026-05-03T16:01:34.000Z</time></trkpt>
        <trkpt lat="29.5652888" lon="103.4302628"><ele>573.42</ele><time>2026-05-03T16:01:44.000Z</time></trkpt>
        <trkpt lat="29.5652787" lon="103.4301558"><ele>576.97</ele><time>2026-05-03T16:01:52.000Z</time></trkpt>
        <trkpt lat="29.5652629" lon="103.4300533"><ele>578.47</ele><time>2026-05-03T16:02:00.000Z</time></trkpt>
        <trkpt lat="29.5652453" lon="103.4299399"><ele>577.97</ele><time>2026-05-03T16:02:10.000Z</time></trkpt>
        <trkpt lat="29.565215" lon="103.4298384"><ele>578.34</ele><time>2026-05-03T16:02:18.000Z</time></trkpt>
        <trkpt lat="29.5651692" lon="103.429733"><ele>578.23</ele><time>2026-05-03T16:02:28.000Z</time></trkpt>
        <trkpt lat="29.5651273" lon="103.4296236"><ele>579.72</ele><time>2026-05-03T16:02:38.000Z</time></trkpt>
        <trkpt lat="29.5650629" lon="103.4295199"><ele>581.08</ele><time>2026-05-03T16:02:48.000Z</time></trkpt>
        <trkpt lat="29.5650083" lon="103.4294228"><ele>581.81</ele><time>2026-05-03T16:02:56.000Z</time></trkpt>
        <trkpt lat="29.5649571" lon="103.4293322"><ele>582.5</ele><time>2026-05-03T16:03:04.000Z</time></trkpt>
        <trkpt lat="29.5649382" lon="103.4292264"><ele>582.11</ele><time>2026-05-03T16:03:12.000Z</time></trkpt>
        <trkpt lat="29.5649202" lon="103.4291097"><ele>582.51</ele><time>2026-05-03T16:03:20.000Z</time></trkpt>
        <trkpt lat="29.5648804" lon="103.4290037"><ele>581.85</ele><time>2026-05-03T16:03:28.000Z</time></trkpt>
        <trkpt lat="29.5648513" lon="103.4288943"><ele>581.32</ele><time>2026-05-03T16:03:36.000Z</time></trkpt>
        <trkpt lat="29.5648369" lon="103.4287708"><ele>581.22</ele><time>2026-05-03T16:03:46.000Z</time></trkpt>
        <trkpt lat="29.5648294" lon="103.4286536"><ele>582.46</ele><time>2026-05-03T16:03:54.000Z</time></trkpt>
        <trkpt lat="29.5648213" lon="103.4285298"><ele>585.42</ele><time>2026-05-03T16:04:04.000Z</time></trkpt>
        <trkpt lat="29.5648504" lon="103.4284183"><ele>586.51</ele><time>2026-05-03T16:04:14.000Z</time></trkpt>
        <trkpt lat="29.5649417" lon="103.4283635"><ele>587.73</ele><time>2026-05-03T16:04:26.000Z</time></trkpt>
        <trkpt lat="29.5650405" lon="103.4283232"><ele>589.16</ele><time>2026-05-03T16:04:34.000Z</time></trkpt>
        <trkpt lat="29.56514" lon="103.4282645"><ele>589.78</ele><time>2026-05-03T16:04:44.000Z</time></trkpt>
        <trkpt lat="29.5652241" lon="103.4282016"><ele>589.05</ele><time>2026-05-03T16:04:52.000Z</time></trkpt>
        <trkpt lat="29.5652971" lon="103.4281334"><ele>588.68</ele><time>2026-05-03T16:05:00.000Z</time></trkpt>
        <trkpt lat="29.5653607" lon="103.4280569"><ele>588.13</ele><time>2026-05-03T16:05:08.000Z</time></trkpt>
        <trkpt lat="29.5654343" lon="103.427973"><ele>587.54</ele><time>2026-05-03T16:05:18.000Z</time></trkpt>
        <trkpt lat="29.565466" lon="103.4278655"><ele>585.13</ele><time>2026-05-03T16:05:28.000Z</time></trkpt>
        <trkpt lat="29.5654539" lon="103.427751"><ele>585.43</ele><time>2026-05-03T16:05:38.000Z</time></trkpt>
        <trkpt lat="29.5654303" lon="103.427631"><ele>586.35</ele><time>2026-05-03T16:05:48.000Z</time></trkpt>
        <trkpt lat="29.5654048" lon="103.4275063"><ele>588.1</ele><time>2026-05-03T16:05:58.000Z</time></trkpt>
        <trkpt lat="29.5653794" lon="103.4273975"><ele>590.71</ele><time>2026-05-03T16:06:06.000Z</time></trkpt>
        <trkpt lat="29.5653479" lon="103.427292"><ele>593.15</ele><time>2026-05-03T16:06:16.000Z</time></trkpt>
        <trkpt lat="29.5653057" lon="103.4271964"><ele>594.34</ele><time>2026-05-03T16:06:26.000Z</time></trkpt>
        <trkpt lat="29.5652543" lon="103.4271048"><ele>595.65</ele><time>2026-05-03T16:06:38.000Z</time></trkpt>
        <trkpt lat="29.5651732" lon="103.427041"><ele>598.41</ele><time>2026-05-03T16:06:50.000Z</time></trkpt>
        <trkpt lat="29.5650863" lon="103.4269777"><ele>599.75</ele><time>2026-05-03T16:07:00.000Z</time></trkpt>
        <trkpt lat="29.5650031" lon="103.4269237"><ele>600.73</ele><time>2026-05-03T16:07:08.000Z</time></trkpt>
        <trkpt lat="29.5649213" lon="103.426864"><ele>601.54</ele><time>2026-05-03T16:07:18.000Z</time></trkpt>
        <trkpt lat="29.5648945" lon="103.426806"><ele>601.8</ele><time>2026-05-03T16:07:26.000Z</time></trkpt>
        <trkpt lat="29.5649151" lon="103.426709"><ele>603.09</ele><time>2026-05-03T16:08:16.000Z</time></trkpt>
        <trkpt lat="29.5649577" lon="103.4266103"><ele>604.87</ele><time>2026-05-03T16:09:00.000Z</time></trkpt>
        <trkpt lat="29.5649942" lon="103.4265034"><ele>607.22</ele><time>2026-05-03T16:09:52.000Z</time></trkpt>
        <trkpt lat="29.5650355" lon="103.4264039"><ele>610.23</ele><time>2026-05-03T16:10:12.000Z</time></trkpt>
        <trkpt lat="29.5650839" lon="103.4263062"><ele>613.09</ele><time>2026-05-03T16:10:34.000Z</time></trkpt>
        <trkpt lat="29.5651117" lon="103.4262056"><ele>616.76</ele><time>2026-05-03T16:10:58.000Z</time></trkpt>
        <trkpt lat="29.5651417" lon="103.4261039"><ele>622.42</ele><time>2026-05-03T16:11:34.000Z</time></trkpt>
        <trkpt lat="29.5651923" lon="103.4260098"><ele>626.84</ele><time>2026-05-03T16:11:58.000Z</time></trkpt>
        <trkpt lat="29.5651752" lon="103.4259153"><ele>631.86</ele><time>2026-05-03T16:12:20.000Z</time></trkpt>
        <trkpt lat="29.5651816" lon="103.4258153"><ele>636.92</ele><time>2026-05-03T16:12:42.000Z</time></trkpt>
        <trkpt lat="29.565246" lon="103.4257286"><ele>642.32</ele><time>2026-05-03T16:14:32.000Z</time></trkpt>
        <trkpt lat="29.5651571" lon="103.425682"><ele>644.95</ele><time>2026-05-03T16:14:42.000Z</time></trkpt>
        <trkpt lat="29.5650958" lon="103.425599"><ele>646.36</ele><time>2026-05-03T16:14:50.000Z</time></trkpt>
        <trkpt lat="29.5650248" lon="103.4254998"><ele>647.1</ele><time>2026-05-03T16:15:02.000Z</time></trkpt>
        <trkpt lat="29.564967" lon="103.4253961"><ele>647.93</ele><time>2026-05-03T16:15:10.000Z</time></trkpt>
        <trkpt lat="29.56489" lon="103.4253024"><ele>646.7</ele><time>2026-05-03T16:15:20.000Z</time></trkpt>
        <trkpt lat="29.5648106" lon="103.4252153"><ele>644.5</ele><time>2026-05-03T16:15:28.000Z</time></trkpt>
        <trkpt lat="29.5647533" lon="103.4251274"><ele>643.94</ele><time>2026-05-03T16:15:36.000Z</time></trkpt>
        <trkpt lat="29.5647721" lon="103.4250222"><ele>643.26</ele><time>2026-05-03T16:16:02.000Z</time></trkpt>
        <trkpt lat="29.5647733" lon="103.4249132"><ele>647.25</ele><time>2026-05-03T16:16:14.000Z</time></trkpt>
        <trkpt lat="29.5647369" lon="103.4248207"><ele>647.84</ele><time>2026-05-03T16:16:28.000Z</time></trkpt>
        <trkpt lat="29.5647208" lon="103.424714"><ele>648.19</ele><time>2026-05-03T16:16:44.000Z</time></trkpt>
        <trkpt lat="29.5647163" lon="103.4245981"><ele>649</ele><time>2026-05-03T16:16:56.000Z</time></trkpt>
        <trkpt lat="29.5647339" lon="103.4244912"><ele>652.18</ele><time>2026-05-03T16:17:10.000Z</time></trkpt>
        <trkpt lat="29.5646948" lon="103.4244089"><ele>653.63</ele><time>2026-05-03T16:17:24.000Z</time></trkpt>
        <trkpt lat="29.5646344" lon="103.4243071"><ele>654.84</ele><time>2026-05-03T16:17:36.000Z</time></trkpt>
        <trkpt lat="29.5646432" lon="103.4242058"><ele>656.39</ele><time>2026-05-03T16:17:50.000Z</time></trkpt>
        <trkpt lat="29.5645908" lon="103.4241387"><ele>660.72</ele><time>2026-05-03T16:18:08.000Z</time></trkpt>
        <trkpt lat="29.5645583" lon="103.424048"><ele>664.78</ele><time>2026-05-03T16:18:34.000Z</time></trkpt>
        <trkpt lat="29.5644782" lon="103.4239883"><ele>666.79</ele><time>2026-05-03T16:18:54.000Z</time></trkpt>
        <trkpt lat="29.5643881" lon="103.42394"><ele>670.48</ele><time>2026-05-03T16:19:12.000Z</time></trkpt>
        <trkpt lat="29.5644002" lon="103.4238647"><ele>673.27</ele><time>2026-05-03T16:19:18.000Z</time></trkpt>
        <trkpt lat="29.5644453" lon="103.4237708"><ele>675.29</ele><time>2026-05-03T16:19:30.000Z</time></trkpt>
        <trkpt lat="29.5644173" lon="103.4236878"><ele>677.09</ele><time>2026-05-03T16:19:50.000Z</time></trkpt>
        <trkpt lat="29.5644045" lon="103.4235782"><ele>680.87</ele><time>2026-05-03T16:20:08.000Z</time></trkpt>
        <trkpt lat="29.5644457" lon="103.4234859"><ele>683.89</ele><time>2026-05-03T16:20:24.000Z</time></trkpt>
        <trkpt lat="29.5644784" lon="103.4233842"><ele>685.11</ele><time>2026-05-03T16:20:42.000Z</time></trkpt>
        <trkpt lat="29.5644813" lon="103.4232768"><ele>688.37</ele><time>2026-05-03T16:21:00.000Z</time></trkpt>
        <trkpt lat="29.5645077" lon="103.4231694"><ele>692.67</ele><time>2026-05-03T16:21:16.000Z</time></trkpt>
        <trkpt lat="29.5645231" lon="103.4230601"><ele>696.64</ele><time>2026-05-03T16:21:36.000Z</time></trkpt>
        <trkpt lat="29.5645346" lon="103.4229541"><ele>700.56</ele><time>2026-05-03T16:21:50.000Z</time></trkpt>
        <trkpt lat="29.5645" lon="103.4228519"><ele>703.18</ele><time>2026-05-03T16:22:08.000Z</time></trkpt>
        <trkpt lat="29.5645292" lon="103.4227578"><ele>706.7</ele><time>2026-05-03T16:22:34.000Z</time></trkpt>
        <trkpt lat="29.5644814" lon="103.422678"><ele>709.25</ele><time>2026-05-03T16:22:44.000Z</time></trkpt>
        <trkpt lat="29.5644716" lon="103.422568"><ele>712.61</ele><time>2026-05-03T16:23:00.000Z</time></trkpt>
        <trkpt lat="29.5644864" lon="103.4224521"><ele>717.09</ele><time>2026-05-03T16:23:14.000Z</time></trkpt>
        <trkpt lat="29.5645055" lon="103.422341"><ele>717.96</ele><time>2026-05-03T16:23:46.000Z</time></trkpt>
        <trkpt lat="29.564496" lon="103.4222263"><ele>716.82</ele><time>2026-05-03T16:24:12.000Z</time></trkpt>
        <trkpt lat="29.5644448" lon="103.4221193"><ele>715.25</ele><time>2026-05-03T16:24:30.000Z</time></trkpt>
        <trkpt lat="29.564416" lon="103.4220085"><ele>721.02</ele><time>2026-05-03T16:25:14.000Z</time></trkpt>
        <trkpt lat="29.5644093" lon="103.4218963"><ele>728.72</ele><time>2026-05-03T16:25:38.000Z</time></trkpt>
        <trkpt lat="29.5643966" lon="103.4217873"><ele>733.35</ele><time>2026-05-03T16:26:06.000Z</time></trkpt>
        <trkpt lat="29.5643844" lon="103.4216794"><ele>739.21</ele><time>2026-05-03T16:26:30.000Z</time></trkpt>
        <trkpt lat="29.5643728" lon="103.4215752"><ele>744.91</ele><time>2026-05-03T16:26:50.000Z</time></trkpt>
        <trkpt lat="29.5643504" lon="103.4214703"><ele>747.84</ele><time>2026-05-03T16:27:18.000Z</time></trkpt>
        <trkpt lat="29.5643148" lon="103.4213705"><ele>749.13</ele><time>2026-05-03T16:27:40.000Z</time></trkpt>
        <trkpt lat="29.5643668" lon="103.4213163"><ele>752.8</ele><time>2026-05-03T16:28:08.000Z</time></trkpt>
        <trkpt lat="29.564459" lon="103.4212844"><ele>756.21</ele><time>2026-05-03T16:28:18.000Z</time></trkpt>
        <trkpt lat="29.564555" lon="103.4212539"><ele>757.77</ele><time>2026-05-03T16:28:30.000Z</time></trkpt>
        <trkpt lat="29.5646294" lon="103.4211842"><ele>758.89</ele><time>2026-05-03T16:28:46.000Z</time></trkpt>
        <trkpt lat="29.5646893" lon="103.4210965"><ele>759.85</ele><time>2026-05-03T16:29:02.000Z</time></trkpt>
        <trkpt lat="29.564753" lon="103.4211273"><ele>762.04</ele><time>2026-05-03T16:29:22.000Z</time></trkpt>
        <trkpt lat="29.5648126" lon="103.4212116"><ele>763.22</ele><time>2026-05-03T16:29:36.000Z</time></trkpt>
        <trkpt lat="29.5648657" lon="103.421314"><ele>763.43</ele><time>2026-05-03T16:29:56.000Z</time></trkpt>
        <trkpt lat="29.5649367" lon="103.4213898"><ele>763.91</ele><time>2026-05-03T16:30:20.000Z</time></trkpt>
        <trkpt lat="29.565022" lon="103.4213794"><ele>764.7</ele><time>2026-05-03T16:31:10.000Z</time></trkpt>
        <trkpt lat="29.5651145" lon="103.4213422"><ele>768.37</ele><time>2026-05-03T16:31:28.000Z</time></trkpt>
        <trkpt lat="29.5652031" lon="103.421293"><ele>771.62</ele><time>2026-05-03T16:31:44.000Z</time></trkpt>
        <trkpt lat="29.5652974" lon="103.4212404"><ele>773.49</ele><time>2026-05-03T16:32:26.000Z</time></trkpt>
        <trkpt lat="29.5653943" lon="103.4212069"><ele>776.87</ele><time>2026-05-03T16:36:00.000Z</time></trkpt>
        <trkpt lat="29.5654583" lon="103.4211168"><ele>780.33</ele><time>2026-05-03T16:38:32.000Z</time></trkpt>
        <trkpt lat="29.5655441" lon="103.421076"><ele>781.4</ele><time>2026-05-03T16:38:40.000Z</time></trkpt>
        <trkpt lat="29.5656422" lon="103.421054"><ele>780.71</ele><time>2026-05-03T16:38:48.000Z</time></trkpt>
        <trkpt lat="29.5657459" lon="103.4210545"><ele>780.71</ele><time>2026-05-03T16:38:58.000Z</time></trkpt>
        <trkpt lat="29.5658498" lon="103.4210764"><ele>782.72</ele><time>2026-05-03T16:39:08.000Z</time></trkpt>
        <trkpt lat="29.5659453" lon="103.4210956"><ele>785.2</ele><time>2026-05-03T16:39:18.000Z</time></trkpt>
        <trkpt lat="29.5660376" lon="103.4211051"><ele>785.8</ele><time>2026-05-03T16:39:30.000Z</time></trkpt>
        <trkpt lat="29.5661275" lon="103.421106"><ele>786.07</ele><time>2026-05-03T16:39:54.000Z</time></trkpt>
        <trkpt lat="29.5662193" lon="103.4210709"><ele>788.53</ele><time>2026-05-03T16:40:10.000Z</time></trkpt>
        <trkpt lat="29.566266" lon="103.4209745"><ele>790.01</ele><time>2026-05-03T16:40:22.000Z</time></trkpt>
        <trkpt lat="29.566277" lon="103.4208481"><ele>791.18</ele><time>2026-05-03T16:40:32.000Z</time></trkpt>
        <trkpt lat="29.566301" lon="103.4207298"><ele>793.28</ele><time>2026-05-03T16:40:40.000Z</time></trkpt>
        <trkpt lat="29.5663358" lon="103.4206114"><ele>794.83</ele><time>2026-05-03T16:40:50.000Z</time></trkpt>
        <trkpt lat="29.5663559" lon="103.4204925"><ele>795.96</ele><time>2026-05-03T16:41:00.000Z</time></trkpt>
        <trkpt lat="29.566393" lon="103.4203923"><ele>794.28</ele><time>2026-05-03T16:41:08.000Z</time></trkpt>
        <trkpt lat="29.566448" lon="103.4203067"><ele>792.54</ele><time>2026-05-03T16:41:16.000Z</time></trkpt>
        <trkpt lat="29.566507" lon="103.4202181"><ele>791.45</ele><time>2026-05-03T16:41:26.000Z</time></trkpt>
        <trkpt lat="29.5665804" lon="103.4201291"><ele>791.77</ele><time>2026-05-03T16:41:36.000Z</time></trkpt>
        <trkpt lat="29.5666381" lon="103.4200273"><ele>791.41</ele><time>2026-05-03T16:41:46.000Z</time></trkpt>
        <trkpt lat="29.5666637" lon="103.4199176"><ele>791.92</ele><time>2026-05-03T16:41:58.000Z</time></trkpt>
        <trkpt lat="29.5666957" lon="103.4198106"><ele>793.08</ele><time>2026-05-03T16:42:24.000Z</time></trkpt>
        <trkpt lat="29.5667637" lon="103.4198177"><ele>795.31</ele><time>2026-05-03T16:42:40.000Z</time></trkpt>
        <trkpt lat="29.5668456" lon="103.4198735"><ele>797.78</ele><time>2026-05-03T16:42:58.000Z</time></trkpt>
        <trkpt lat="29.5669102" lon="103.4199727"><ele>800.17</ele><time>2026-05-03T16:43:16.000Z</time></trkpt>
        <trkpt lat="29.5669855" lon="103.4200512"><ele>802.52</ele><time>2026-05-03T16:43:40.000Z</time></trkpt>
        <trkpt lat="29.5670043" lon="103.4201583"><ele>804.26</ele><time>2026-05-03T16:44:00.000Z</time></trkpt>
        <trkpt lat="29.5670276" lon="103.4202802"><ele>807.23</ele><time>2026-05-03T16:44:16.000Z</time></trkpt>
        <trkpt lat="29.5670731" lon="103.42038"><ele>809.14</ele><time>2026-05-03T16:44:32.000Z</time></trkpt>
        <trkpt lat="29.567143" lon="103.4204507"><ele>811.17</ele><time>2026-05-03T16:44:50.000Z</time></trkpt>
        <trkpt lat="29.5672325" lon="103.4204814"><ele>812.63</ele><time>2026-05-03T16:45:08.000Z</time></trkpt>
        <trkpt lat="29.5673262" lon="103.4204928"><ele>814.26</ele><time>2026-05-03T16:45:24.000Z</time></trkpt>
        <trkpt lat="29.5674159" lon="103.4204578"><ele>816.53</ele><time>2026-05-03T16:45:44.000Z</time></trkpt>
        <trkpt lat="29.5674985" lon="103.420384"><ele>818.57</ele><time>2026-05-03T16:46:46.000Z</time></trkpt>
        <trkpt lat="29.5675639" lon="103.4203522"><ele>823.64</ele><time>2026-05-03T16:47:08.000Z</time></trkpt>
        <trkpt lat="29.5676412" lon="103.4202994"><ele>827.23</ele><time>2026-05-03T16:48:22.000Z</time></trkpt>
        <trkpt lat="29.5677345" lon="103.4202489"><ele>832.65</ele><time>2026-05-03T16:48:42.000Z</time></trkpt>
        <trkpt lat="29.5678291" lon="103.4201992"><ele>837.23</ele><time>2026-05-03T16:48:58.000Z</time></trkpt>
        <trkpt lat="29.5679266" lon="103.4201682"><ele>839.05</ele><time>2026-05-03T16:49:10.000Z</time></trkpt>
        <trkpt lat="29.5680072" lon="103.4201101"><ele>841.02</ele><time>2026-05-03T16:49:32.000Z</time></trkpt>
        <trkpt lat="29.5680938" lon="103.4201032"><ele>843.07</ele><time>2026-05-03T16:49:56.000Z</time></trkpt>
        <trkpt lat="29.5681824" lon="103.4200869"><ele>843.95</ele><time>2026-05-03T16:50:20.000Z</time></trkpt>
        <trkpt lat="29.5682718" lon="103.4200733"><ele>848.51</ele><time>2026-05-03T16:50:46.000Z</time></trkpt>
        <trkpt lat="29.5683626" lon="103.420069"><ele>855.6</ele><time>2026-05-03T16:51:20.000Z</time></trkpt>
        <trkpt lat="29.5684555" lon="103.420071"><ele>860.38</ele><time>2026-05-03T16:51:44.000Z</time></trkpt>
        <trkpt lat="29.5685497" lon="103.420079"><ele>864.09</ele><time>2026-05-03T16:52:10.000Z</time></trkpt>
        <trkpt lat="29.5686363" lon="103.4200355"><ele>868.02</ele><time>2026-05-03T16:54:04.000Z</time></trkpt>
        <trkpt lat="29.5687248" lon="103.4200166"><ele>870.91</ele><time>2026-05-03T16:54:18.000Z</time></trkpt>
        <trkpt lat="29.56882" lon="103.4199789"><ele>873.68</ele><time>2026-05-03T16:54:36.000Z</time></trkpt>
        <trkpt lat="29.5689148" lon="103.4199258"><ele>878.41</ele><time>2026-05-03T16:54:54.000Z</time></trkpt>
        <trkpt lat="29.5690011" lon="103.419877"><ele>881.97</ele><time>2026-05-03T16:55:06.000Z</time></trkpt>
        <trkpt lat="29.5690922" lon="103.4198386"><ele>883.27</ele><time>2026-05-03T16:55:16.000Z</time></trkpt>
        <trkpt lat="29.5691798" lon="103.4197934"><ele>883.96</ele><time>2026-05-03T16:55:26.000Z</time></trkpt>
        <trkpt lat="29.5692699" lon="103.4197457"><ele>883.67</ele><time>2026-05-03T16:55:36.000Z</time></trkpt>
        <trkpt lat="29.5693504" lon="103.4196893"><ele>883.48</ele><time>2026-05-03T16:55:46.000Z</time></trkpt>
        <trkpt lat="29.5694344" lon="103.4196342"><ele>882.76</ele><time>2026-05-03T16:55:58.000Z</time></trkpt>
        <trkpt lat="29.5695149" lon="103.4195665"><ele>883.17</ele><time>2026-05-03T16:56:08.000Z</time></trkpt>
        <trkpt lat="29.5696017" lon="103.419513"><ele>882.89</ele><time>2026-05-03T16:56:20.000Z</time></trkpt>
        <trkpt lat="29.5696537" lon="103.4194269"><ele>881.48</ele><time>2026-05-03T16:56:30.000Z</time></trkpt>
        <trkpt lat="29.5697362" lon="103.419438"><ele>879.91</ele><time>2026-05-03T16:56:42.000Z</time></trkpt>
        <trkpt lat="29.5698103" lon="103.4195159"><ele>878.6</ele><time>2026-05-03T16:56:52.000Z</time></trkpt>
        <trkpt lat="29.5698563" lon="103.41948"><ele>877.59</ele><time>2026-05-03T16:57:00.000Z</time></trkpt>
        <trkpt lat="29.5696883" lon="103.4194986"><ele>877.12</ele><time>2026-05-03T16:59:27.000Z</time></trkpt>
        <trkpt lat="29.5696347" lon="103.4193767"><ele>872.88</ele><time>2026-05-03T16:59:36.000Z</time></trkpt>
        <trkpt lat="29.5696773" lon="103.4192748"><ele>873.7</ele><time>2026-05-03T16:59:50.000Z</time></trkpt>
        <trkpt lat="29.5697345" lon="103.4191753"><ele>875.71</ele><time>2026-05-03T17:00:16.000Z</time></trkpt>
        <trkpt lat="29.5697655" lon="103.4191214"><ele>876.68</ele><time>2026-05-03T17:00:22.000Z</time></trkpt>
        <trkpt lat="29.5697608" lon="103.4190349"><ele>877.24</ele><time>2026-05-03T17:00:42.000Z</time></trkpt>
        <trkpt lat="29.5697584" lon="103.4189324"><ele>878.01</ele><time>2026-05-03T17:00:54.000Z</time></trkpt>
        <trkpt lat="29.5697559" lon="103.418814"><ele>878.25</ele><time>2026-05-03T17:01:06.000Z</time></trkpt>
        <trkpt lat="29.5697705" lon="103.4186985"><ele>878.87</ele><time>2026-05-03T17:01:16.000Z</time></trkpt>
        <trkpt lat="29.5697986" lon="103.4185858"><ele>879.51</ele><time>2026-05-03T17:01:26.000Z</time></trkpt>
        <trkpt lat="29.5698089" lon="103.4185504"><ele>879.71</ele><time>2026-05-03T17:01:28.000Z</time></trkpt>
        <trkpt lat="29.5698224" lon="103.4184626"><ele>879.9</ele><time>2026-05-03T17:01:46.000Z</time></trkpt>
        <trkpt lat="29.5698221" lon="103.4183523"><ele>878.79</ele><time>2026-05-03T17:01:58.000Z</time></trkpt>
        <trkpt lat="29.5698351" lon="103.4182351"><ele>878.95</ele><time>2026-05-03T17:02:08.000Z</time></trkpt>
        <trkpt lat="29.5698331" lon="103.4181633"><ele>880.13</ele><time>2026-05-03T17:02:16.000Z</time></trkpt>
        <trkpt lat="29.569854" lon="103.4180672"><ele>880.86</ele><time>2026-05-03T17:02:32.000Z</time></trkpt>
        <trkpt lat="29.5699017" lon="103.4179742"><ele>879.97</ele><time>2026-05-03T17:02:44.000Z</time></trkpt>
        <trkpt lat="29.5699607" lon="103.4178759"><ele>878.97</ele><time>2026-05-03T17:02:56.000Z</time></trkpt>
        <trkpt lat="29.570008" lon="103.4177655"><ele>877.12</ele><time>2026-05-03T17:03:06.000Z</time></trkpt>
        <trkpt lat="29.5700295" lon="103.4176523"><ele>876.35</ele><time>2026-05-03T17:03:16.000Z</time></trkpt>
        <trkpt lat="29.5700158" lon="103.4175422"><ele>875.59</ele><time>2026-05-03T17:03:24.000Z</time></trkpt>
        <trkpt lat="29.5700052" lon="103.4174167"><ele>874.66</ele><time>2026-05-03T17:03:34.000Z</time></trkpt>
        <trkpt lat="29.57002" lon="103.4173054"><ele>874.11</ele><time>2026-05-03T17:03:44.000Z</time></trkpt>
        <trkpt lat="29.5700438" lon="103.4171913"><ele>873.13</ele><time>2026-05-03T17:03:56.000Z</time></trkpt>
        <trkpt lat="29.5700861" lon="103.41708"><ele>874.15</ele><time>2026-05-03T17:04:06.000Z</time></trkpt>
        <trkpt lat="29.5701664" lon="103.417029"><ele>874.63</ele><time>2026-05-03T17:04:16.000Z</time></trkpt>
        <trkpt lat="29.5702649" lon="103.4170179"><ele>874.87</ele><time>2026-05-03T17:04:26.000Z</time></trkpt>
        <trkpt lat="29.5703598" lon="103.4169729"><ele>874.35</ele><time>2026-05-03T17:04:38.000Z</time></trkpt>
        <trkpt lat="29.5703854" lon="103.4168833"><ele>872.33</ele><time>2026-05-03T17:04:48.000Z</time></trkpt>
        <trkpt lat="29.5703863" lon="103.4167722"><ele>872.27</ele><time>2026-05-03T17:04:58.000Z</time></trkpt>
        <trkpt lat="29.5703846" lon="103.416649"><ele>871.51</ele><time>2026-05-03T17:05:08.000Z</time></trkpt>
        <trkpt lat="29.5703809" lon="103.4165261"><ele>869.69</ele><time>2026-05-03T17:05:18.000Z</time></trkpt>
        <trkpt lat="29.5703895" lon="103.4164021"><ele>869.06</ele><time>2026-05-03T17:05:28.000Z</time></trkpt>
        <trkpt lat="29.5703937" lon="103.4163062"><ele>870.45</ele><time>2026-05-03T17:05:36.000Z</time></trkpt>
        <trkpt lat="29.5703992" lon="103.4162048"><ele>872.49</ele><time>2026-05-03T17:05:48.000Z</time></trkpt>
        <trkpt lat="29.5704636" lon="103.4161351"><ele>874.41</ele><time>2026-05-03T17:06:00.000Z</time></trkpt>
        <trkpt lat="29.5705541" lon="103.4160977"><ele>872.62</ele><time>2026-05-03T17:06:12.000Z</time></trkpt>
        <trkpt lat="29.5706521" lon="103.4160639"><ele>871.97</ele><time>2026-05-03T17:06:26.000Z</time></trkpt>
        <trkpt lat="29.5707157" lon="103.4160301"><ele>873.5</ele><time>2026-05-03T17:06:44.000Z</time></trkpt>
        <trkpt lat="29.5707783" lon="103.4159654"><ele>876.14</ele><time>2026-05-03T17:07:00.000Z</time></trkpt>
        <trkpt lat="29.5707326" lon="103.4158995"><ele>878.5</ele><time>2026-05-03T17:07:10.000Z</time></trkpt>
        <trkpt lat="29.5706539" lon="103.4158258"><ele>877.35</ele><time>2026-05-03T17:07:20.000Z</time></trkpt>
        <trkpt lat="29.5705475" lon="103.4157877"><ele>876.59</ele><time>2026-05-03T17:07:32.000Z</time></trkpt>
        <trkpt lat="29.5704505" lon="103.415736"><ele>876.4</ele><time>2026-05-03T17:07:44.000Z</time></trkpt>
        <trkpt lat="29.5703834" lon="103.4156566"><ele>875.93</ele><time>2026-05-03T17:07:54.000Z</time></trkpt>
        <trkpt lat="29.5703087" lon="103.4155881"><ele>874.92</ele><time>2026-05-03T17:08:04.000Z</time></trkpt>
        <trkpt lat="29.5702194" lon="103.4155387"><ele>875.11</ele><time>2026-05-03T17:08:18.000Z</time></trkpt>
        <trkpt lat="29.5701264" lon="103.4155174"><ele>875.72</ele><time>2026-05-03T17:08:32.000Z</time></trkpt>
        <trkpt lat="29.5700402" lon="103.4154825"><ele>877.24</ele><time>2026-05-03T17:08:44.000Z</time></trkpt>
        <trkpt lat="29.5699588" lon="103.4154246"><ele>877.91</ele><time>2026-05-03T17:08:54.000Z</time></trkpt>
        <trkpt lat="29.5698878" lon="103.4153432"><ele>878.75</ele><time>2026-05-03T17:09:04.000Z</time></trkpt>
        <trkpt lat="29.5698626" lon="103.4152256"><ele>878.38</ele><time>2026-05-03T17:09:12.000Z</time></trkpt>
        <trkpt lat="29.5698608" lon="103.4151038"><ele>878.77</ele><time>2026-05-03T17:09:20.000Z</time></trkpt>
        <trkpt lat="29.5698634" lon="103.4149861"><ele>879.37</ele><time>2026-05-03T17:09:28.000Z</time></trkpt>
        <trkpt lat="29.5698357" lon="103.4148861"><ele>880.11</ele><time>2026-05-03T17:09:38.000Z</time></trkpt>
        <trkpt lat="29.5697708" lon="103.4148125"><ele>880.81</ele><time>2026-05-03T17:09:46.000Z</time></trkpt>
        <trkpt lat="29.5696939" lon="103.4147329"><ele>880.22</ele><time>2026-05-03T17:09:54.000Z</time></trkpt>
        <trkpt lat="29.5696015" lon="103.4147152"><ele>879.53</ele><time>2026-05-03T17:10:02.000Z</time></trkpt>
        <trkpt lat="29.5695013" lon="103.4147444"><ele>878.74</ele><time>2026-05-03T17:10:10.000Z</time></trkpt>
        <trkpt lat="29.5694053" lon="103.414793"><ele>878.32</ele><time>2026-05-03T17:10:18.000Z</time></trkpt>
        <trkpt lat="29.5693073" lon="103.4148365"><ele>878.12</ele><time>2026-05-03T17:10:28.000Z</time></trkpt>
        <trkpt lat="29.5692219" lon="103.4148469"><ele>878.33</ele><time>2026-05-03T17:10:44.000Z</time></trkpt>
        <trkpt lat="29.5691277" lon="103.4148519"><ele>878.44</ele><time>2026-05-03T17:10:58.000Z</time></trkpt>
        <trkpt lat="29.5691264" lon="103.4147708"><ele>879.02</ele><time>2026-05-03T17:11:22.000Z</time></trkpt>
        <trkpt lat="29.569124" lon="103.4146535"><ele>877.25</ele><time>2026-05-03T17:11:30.000Z</time></trkpt>
        <trkpt lat="29.5691034" lon="103.4145253"><ele>875.83</ele><time>2026-05-03T17:11:40.000Z</time></trkpt>
        <trkpt lat="29.5691044" lon="103.4144094"><ele>874.78</ele><time>2026-05-03T17:11:48.000Z</time></trkpt>
        <trkpt lat="29.5691256" lon="103.4142978"><ele>873.84</ele><time>2026-05-03T17:11:56.000Z</time></trkpt>
        <trkpt lat="29.5691262" lon="103.4141894"><ele>873.18</ele><time>2026-05-03T17:12:04.000Z</time></trkpt>
        <trkpt lat="29.5691078" lon="103.4140859"><ele>873.48</ele><time>2026-05-03T17:12:12.000Z</time></trkpt>
        <trkpt lat="29.5691302" lon="103.4139707"><ele>873.29</ele><time>2026-05-03T17:12:22.000Z</time></trkpt>
        <trkpt lat="29.5691561" lon="103.4138599"><ele>873.86</ele><time>2026-05-03T17:12:32.000Z</time></trkpt>
        <trkpt lat="29.5691321" lon="103.4137489"><ele>873.92</ele><time>2026-05-03T17:12:42.000Z</time></trkpt>
        <trkpt lat="29.5690908" lon="103.4136371"><ele>873.58</ele><time>2026-05-03T17:12:50.000Z</time></trkpt>
        <trkpt lat="29.5690336" lon="103.4135391"><ele>873.72</ele><time>2026-05-03T17:13:00.000Z</time></trkpt>
        <trkpt lat="29.5690026" lon="103.4134398"><ele>873.15</ele><time>2026-05-03T17:13:08.000Z</time></trkpt>
        <trkpt lat="29.5689987" lon="103.4133331"><ele>872.43</ele><time>2026-05-03T17:13:16.000Z</time></trkpt>
        <trkpt lat="29.5689855" lon="103.4132146"><ele>872.36</ele><time>2026-05-03T17:13:26.000Z</time></trkpt>
        <trkpt lat="29.569008" lon="103.413097"><ele>870.65</ele><time>2026-05-03T17:13:36.000Z</time></trkpt>
        <trkpt lat="29.5690688" lon="103.4130139"><ele>869.76</ele><time>2026-05-03T17:13:44.000Z</time></trkpt>
        <trkpt lat="29.5691429" lon="103.4129285"><ele>869.36</ele><time>2026-05-03T17:13:54.000Z</time></trkpt>
        <trkpt lat="29.5692102" lon="103.4128475"><ele>868.87</ele><time>2026-05-03T17:14:02.000Z</time></trkpt>
        <trkpt lat="29.569279" lon="103.4127748"><ele>867.73</ele><time>2026-05-03T17:14:10.000Z</time></trkpt>
        <trkpt lat="29.5693547" lon="103.4127121"><ele>866.32</ele><time>2026-05-03T17:14:18.000Z</time></trkpt>
        <trkpt lat="29.5694068" lon="103.4126204"><ele>865.27</ele><time>2026-05-03T17:14:28.000Z</time></trkpt>
        <trkpt lat="29.5693766" lon="103.412526"><ele>865.13</ele><time>2026-05-03T17:14:38.000Z</time></trkpt>
        <trkpt lat="29.5692956" lon="103.4124466"><ele>866.32</ele><time>2026-05-03T17:14:48.000Z</time></trkpt>
        <trkpt lat="29.5693385" lon="103.412454"><ele>866.51</ele><time>2026-05-03T17:15:20.000Z</time></trkpt>
        <trkpt lat="29.5693476" lon="103.4123851"><ele>867.15</ele><time>2026-05-03T17:15:34.000Z</time></trkpt>
        <trkpt lat="29.5693233" lon="103.4123194"><ele>867.1</ele><time>2026-05-03T17:15:46.000Z</time></trkpt>
        <trkpt lat="29.5693707" lon="103.4122384"><ele>865.42</ele><time>2026-05-03T17:16:16.000Z</time></trkpt>
        <trkpt lat="29.5693453" lon="103.4121537"><ele>862.91</ele><time>2026-05-03T17:16:26.000Z</time></trkpt>
        <trkpt lat="29.5692581" lon="103.4121859"><ele>861.61</ele><time>2026-05-03T17:16:36.000Z</time></trkpt>
        <trkpt lat="29.5691568" lon="103.4122146"><ele>859.45</ele><time>2026-05-03T17:16:46.000Z</time></trkpt>
        <trkpt lat="29.5690563" lon="103.412176"><ele>856.73</ele><time>2026-05-03T17:16:54.000Z</time></trkpt>
        <trkpt lat="29.5689837" lon="103.4120922"><ele>854.47</ele><time>2026-05-03T17:17:02.000Z</time></trkpt>
        <trkpt lat="29.5689276" lon="103.4119858"><ele>851.83</ele><time>2026-05-03T17:17:12.000Z</time></trkpt>
        <trkpt lat="29.5688815" lon="103.4118773"><ele>850.88</ele><time>2026-05-03T17:17:22.000Z</time></trkpt>
        <trkpt lat="29.5687934" lon="103.4118175"><ele>849.27</ele><time>2026-05-03T17:17:34.000Z</time></trkpt>
        <trkpt lat="29.5686933" lon="103.4118005"><ele>846.98</ele><time>2026-05-03T17:17:42.000Z</time></trkpt>
        <trkpt lat="29.5685858" lon="103.4117959"><ele>845.3</ele><time>2026-05-03T17:17:52.000Z</time></trkpt>
        <trkpt lat="29.5685028" lon="103.4117381"><ele>843.63</ele><time>2026-05-03T17:18:06.000Z</time></trkpt>
        <trkpt lat="29.5684311" lon="103.4116638"><ele>845</ele><time>2026-05-03T17:18:20.000Z</time></trkpt>
        <trkpt lat="29.5683838" lon="103.4115609"><ele>841.51</ele><time>2026-05-03T17:18:32.000Z</time></trkpt>
        <trkpt lat="29.5683624" lon="103.4114512"><ele>837.99</ele><time>2026-05-03T17:18:44.000Z</time></trkpt>
        <trkpt lat="29.5683988" lon="103.4113482"><ele>835.57</ele><time>2026-05-03T17:18:54.000Z</time></trkpt>
        <trkpt lat="29.5684544" lon="103.4112366"><ele>833.81</ele><time>2026-05-03T17:19:04.000Z</time></trkpt>
        <trkpt lat="29.5685046" lon="103.4111359"><ele>832.54</ele><time>2026-05-03T17:19:12.000Z</time></trkpt>
        <trkpt lat="29.5685209" lon="103.4110286"><ele>831.65</ele><time>2026-05-03T17:19:20.000Z</time></trkpt>
        <trkpt lat="29.5685427" lon="103.4109204"><ele>829.94</ele><time>2026-05-03T17:19:28.000Z</time></trkpt>
        <trkpt lat="29.5685729" lon="103.4108154"><ele>829.27</ele><time>2026-05-03T17:19:36.000Z</time></trkpt>
        <trkpt lat="29.5686055" lon="103.410712"><ele>829.51</ele><time>2026-05-03T17:19:44.000Z</time></trkpt>
        <trkpt lat="29.568645" lon="103.4106132"><ele>829.33</ele><time>2026-05-03T17:19:52.000Z</time></trkpt>
        <trkpt lat="29.5686585" lon="103.4105113"><ele>828.87</ele><time>2026-05-03T17:20:02.000Z</time></trkpt>
        <trkpt lat="29.5686569" lon="103.4104082"><ele>827.26</ele><time>2026-05-03T17:20:14.000Z</time></trkpt>
        <trkpt lat="29.5686451" lon="103.410298"><ele>825.62</ele><time>2026-05-03T17:20:26.000Z</time></trkpt>
        <trkpt lat="29.568665" lon="103.410195"><ele>824.85</ele><time>2026-05-03T17:20:36.000Z</time></trkpt>
        <trkpt lat="29.5686496" lon="103.410088"><ele>824.78</ele><time>2026-05-03T17:20:46.000Z</time></trkpt>
        <trkpt lat="29.5685785" lon="103.4100003"><ele>825.11</ele><time>2026-05-03T17:20:56.000Z</time></trkpt>
        <trkpt lat="29.5685691" lon="103.4099508"><ele>824.96</ele><time>2026-05-03T17:21:04.000Z</time></trkpt>
        <trkpt lat="29.568483" lon="103.4099498"><ele>825.09</ele><time>2026-05-03T17:21:16.000Z</time></trkpt>
        <trkpt lat="29.5683966" lon="103.4099141"><ele>822.52</ele><time>2026-05-03T17:21:22.000Z</time></trkpt>
        <trkpt lat="29.5683267" lon="103.4098424"><ele>821.94</ele><time>2026-05-03T17:21:32.000Z</time></trkpt>
        <trkpt lat="29.5682805" lon="103.4097284"><ele>821.37</ele><time>2026-05-03T17:21:50.000Z</time></trkpt>
        <trkpt lat="29.5682513" lon="103.4096024"><ele>820.26</ele><time>2026-05-03T17:22:00.000Z</time></trkpt>
        <trkpt lat="29.5682177" lon="103.4094944"><ele>819.71</ele><time>2026-05-03T17:22:12.000Z</time></trkpt>
        <trkpt lat="29.5681518" lon="103.4093999"><ele>819.92</ele><time>2026-05-03T17:22:28.000Z</time></trkpt>
        <trkpt lat="29.5681024" lon="103.4093"><ele>817.77</ele><time>2026-05-03T17:22:40.000Z</time></trkpt>
        <trkpt lat="29.5680354" lon="103.4092161"><ele>815.92</ele><time>2026-05-03T17:22:52.000Z</time></trkpt>
        <trkpt lat="29.5680036" lon="103.4091082"><ele>814.03</ele><time>2026-05-03T17:23:08.000Z</time></trkpt>
        <trkpt lat="29.5679711" lon="103.4089796"><ele>809.58</ele><time>2026-05-03T17:23:22.000Z</time></trkpt>
        <trkpt lat="29.5679132" lon="103.4088805"><ele>804.73</ele><time>2026-05-03T17:23:32.000Z</time></trkpt>
        <trkpt lat="29.5678852" lon="103.4087727"><ele>800.87</ele><time>2026-05-03T17:23:48.000Z</time></trkpt>
        <trkpt lat="29.5678728" lon="103.4086606"><ele>796.41</ele><time>2026-05-03T17:24:00.000Z</time></trkpt>
        <trkpt lat="29.5678245" lon="103.4085724"><ele>792.93</ele><time>2026-05-03T17:24:16.000Z</time></trkpt>
        <trkpt lat="29.5677625" lon="103.4084943"><ele>787.17</ele><time>2026-05-03T17:24:28.000Z</time></trkpt>
        <trkpt lat="29.5676741" lon="103.4084361"><ele>782.61</ele><time>2026-05-03T17:24:42.000Z</time></trkpt>
        <trkpt lat="29.5676047" lon="103.4084992"><ele>779.97</ele><time>2026-05-03T17:24:58.000Z</time></trkpt>
        <trkpt lat="29.5675415" lon="103.4086051"><ele>777.93</ele><time>2026-05-03T17:25:08.000Z</time></trkpt>
        <trkpt lat="29.5674548" lon="103.4086542"><ele>776.22</ele><time>2026-05-03T17:25:16.000Z</time></trkpt>
        <trkpt lat="29.5673688" lon="103.4086323"><ele>775.02</ele><time>2026-05-03T17:25:24.000Z</time></trkpt>
        <trkpt lat="29.5672882" lon="103.4085762"><ele>773.88</ele><time>2026-05-03T17:25:32.000Z</time></trkpt>
        <trkpt lat="29.5671921" lon="103.4085115"><ele>772.89</ele><time>2026-05-03T17:25:42.000Z</time></trkpt>
        <trkpt lat="29.5670977" lon="103.4084722"><ele>771.94</ele><time>2026-05-03T17:25:50.000Z</time></trkpt>
        <trkpt lat="29.5669891" lon="103.4084675"><ele>771.2</ele><time>2026-05-03T17:26:00.000Z</time></trkpt>
        <trkpt lat="29.5668872" lon="103.408464"><ele>770.92</ele><time>2026-05-03T17:26:08.000Z</time></trkpt>
        <trkpt lat="29.5667884" lon="103.408455"><ele>770.62</ele><time>2026-05-03T17:26:16.000Z</time></trkpt>
        <trkpt lat="29.5667035" lon="103.4084057"><ele>770.14</ele><time>2026-05-03T17:26:24.000Z</time></trkpt>
        <trkpt lat="29.5666662" lon="103.4083088"><ele>769.6</ele><time>2026-05-03T17:26:32.000Z</time></trkpt>
        <trkpt lat="29.5666747" lon="103.4081814"><ele>768.08</ele><time>2026-05-03T17:26:42.000Z</time></trkpt>
        <trkpt lat="29.5666865" lon="103.4080501"><ele>767.34</ele><time>2026-05-03T17:26:52.000Z</time></trkpt>
        <trkpt lat="29.5666582" lon="103.4079469"><ele>767.2</ele><time>2026-05-03T17:27:02.000Z</time></trkpt>
        <trkpt lat="29.5666127" lon="103.4078448"><ele>767.95</ele><time>2026-05-03T17:27:18.000Z</time></trkpt>
        <trkpt lat="29.5665841" lon="103.4077417"><ele>768.98</ele><time>2026-05-03T17:27:30.000Z</time></trkpt>
        <trkpt lat="29.5665494" lon="103.4076397"><ele>769.5</ele><time>2026-05-03T17:27:40.000Z</time></trkpt>
        <trkpt lat="29.5665131" lon="103.4075403"><ele>770.14</ele><time>2026-05-03T17:27:50.000Z</time></trkpt>
        <trkpt lat="29.5664534" lon="103.4074596"><ele>770.58</ele><time>2026-05-03T17:28:02.000Z</time></trkpt>
        <trkpt lat="29.5664544" lon="103.4073446"><ele>771</ele><time>2026-05-03T17:28:12.000Z</time></trkpt>
        <trkpt lat="29.566438" lon="103.4072392"><ele>771.35</ele><time>2026-05-03T17:28:20.000Z</time></trkpt>
        <trkpt lat="29.5664256" lon="103.4071299"><ele>771.27</ele><time>2026-05-03T17:28:28.000Z</time></trkpt>
        <trkpt lat="29.5664207" lon="103.4070199"><ele>769.89</ele><time>2026-05-03T17:28:36.000Z</time></trkpt>
        <trkpt lat="29.5664374" lon="103.4069048"><ele>768</ele><time>2026-05-03T17:28:44.000Z</time></trkpt>
        <trkpt lat="29.5664861" lon="103.4068016"><ele>767.07</ele><time>2026-05-03T17:28:52.000Z</time></trkpt>
        <trkpt lat="29.5665653" lon="103.406737"><ele>767.46</ele><time>2026-05-03T17:29:04.000Z</time></trkpt>
        <trkpt lat="29.5666337" lon="103.4066633"><ele>767.61</ele><time>2026-05-03T17:29:14.000Z</time></trkpt>
        <trkpt lat="29.5666984" lon="103.406584"><ele>765.92</ele><time>2026-05-03T17:29:22.000Z</time></trkpt>
        <trkpt lat="29.5667694" lon="103.4064999"><ele>764.54</ele><time>2026-05-03T17:29:30.000Z</time></trkpt>
        <trkpt lat="29.566842" lon="103.4064154"><ele>764.25</ele><time>2026-05-03T17:29:38.000Z</time></trkpt>
        <trkpt lat="29.5669109" lon="103.4063309"><ele>763.61</ele><time>2026-05-03T17:29:46.000Z</time></trkpt>
        <trkpt lat="29.5669618" lon="103.4062365"><ele>763.71</ele><time>2026-05-03T17:29:54.000Z</time></trkpt>
        <trkpt lat="29.5670061" lon="103.406136"><ele>762.98</ele><time>2026-05-03T17:30:02.000Z</time></trkpt>
        <trkpt lat="29.5670633" lon="103.4060347"><ele>761.92</ele><time>2026-05-03T17:30:10.000Z</time></trkpt>
        <trkpt lat="29.5671207" lon="103.4059315"><ele>761.41</ele><time>2026-05-03T17:30:18.000Z</time></trkpt>
        <trkpt lat="29.5671244" lon="103.4058265"><ele>759.87</ele><time>2026-05-03T17:30:26.000Z</time></trkpt>
        <trkpt lat="29.5670741" lon="103.4057238"><ele>758.45</ele><time>2026-05-03T17:30:34.000Z</time></trkpt>
        <trkpt lat="29.5670034" lon="103.4056189"><ele>756.76</ele><time>2026-05-03T17:30:44.000Z</time></trkpt>
        <trkpt lat="29.5669258" lon="103.4055379"><ele>754.77</ele><time>2026-05-03T17:30:52.000Z</time></trkpt>
        <trkpt lat="29.5668486" lon="103.4054581"><ele>753.85</ele><time>2026-05-03T17:31:00.000Z</time></trkpt>
        <trkpt lat="29.566782" lon="103.4053734"><ele>753.63</ele><time>2026-05-03T17:31:08.000Z</time></trkpt>
        <trkpt lat="29.5667415" lon="103.4052774"><ele>753.27</ele><time>2026-05-03T17:31:16.000Z</time></trkpt>
        <trkpt lat="29.5667317" lon="103.4051716"><ele>754.46</ele><time>2026-05-03T17:31:24.000Z</time></trkpt>
        <trkpt lat="29.5667851" lon="103.4050878"><ele>754.86</ele><time>2026-05-03T17:31:34.000Z</time></trkpt>
        <trkpt lat="29.5668756" lon="103.4050874"><ele>755.72</ele><time>2026-05-03T17:31:42.000Z</time></trkpt>
        <trkpt lat="29.5669848" lon="103.4051254"><ele>756.82</ele><time>2026-05-03T17:31:52.000Z</time></trkpt>
        <trkpt lat="29.5670896" lon="103.4051166"><ele>758</ele><time>2026-05-03T17:32:00.000Z</time></trkpt>
        <trkpt lat="29.567196" lon="103.4050992"><ele>758.63</ele><time>2026-05-03T17:32:08.000Z</time></trkpt>
        <trkpt lat="29.5673047" lon="103.4050847"><ele>759.09</ele><time>2026-05-03T17:32:18.000Z</time></trkpt>
        <trkpt lat="29.5674092" lon="103.405069"><ele>759.24</ele><time>2026-05-03T17:32:26.000Z</time></trkpt>
        <trkpt lat="29.5675112" lon="103.4050681"><ele>759.51</ele><time>2026-05-03T17:32:34.000Z</time></trkpt>
        <trkpt lat="29.5676178" lon="103.4050753"><ele>759.03</ele><time>2026-05-03T17:32:42.000Z</time></trkpt>
        <trkpt lat="29.5677188" lon="103.4050984"><ele>758.96</ele><time>2026-05-03T17:32:50.000Z</time></trkpt>
        <trkpt lat="29.567812" lon="103.4050962"><ele>758.59</ele><time>2026-05-03T17:32:58.000Z</time></trkpt>
        <trkpt lat="29.5678989" lon="103.4050394"><ele>757.31</ele><time>2026-05-03T17:33:06.000Z</time></trkpt>
        <trkpt lat="29.5679699" lon="103.4049658"><ele>755.12</ele><time>2026-05-03T17:33:14.000Z</time></trkpt>
        <trkpt lat="29.56804" lon="103.4048863"><ele>753.16</ele><time>2026-05-03T17:33:22.000Z</time></trkpt>
        <trkpt lat="29.5681189" lon="103.4048272"><ele>752.03</ele><time>2026-05-03T17:33:30.000Z</time></trkpt>
        <trkpt lat="29.5682064" lon="103.4047859"><ele>751.43</ele><time>2026-05-03T17:33:38.000Z</time></trkpt>
        <trkpt lat="29.568291" lon="103.4047257"><ele>750.91</ele><time>2026-05-03T17:33:46.000Z</time></trkpt>
        <trkpt lat="29.5683657" lon="103.404645"><ele>750.66</ele><time>2026-05-03T17:33:54.000Z</time></trkpt>
        <trkpt lat="29.5684281" lon="103.4045532"><ele>749.99</ele><time>2026-05-03T17:34:02.000Z</time></trkpt>
        <trkpt lat="29.5684911" lon="103.4044548"><ele>749.49</ele><time>2026-05-03T17:34:10.000Z</time></trkpt>
        <trkpt lat="29.5685371" lon="103.4043526"><ele>748.87</ele><time>2026-05-03T17:34:18.000Z</time></trkpt>
        <trkpt lat="29.5685898" lon="103.4042537"><ele>748.11</ele><time>2026-05-03T17:34:26.000Z</time></trkpt>
        <trkpt lat="29.5686484" lon="103.4041582"><ele>748.52</ele><time>2026-05-03T17:34:34.000Z</time></trkpt>
        <trkpt lat="29.5687024" lon="103.4040682"><ele>747.94</ele><time>2026-05-03T17:34:42.000Z</time></trkpt>
        <trkpt lat="29.5687564" lon="103.403983"><ele>746.35</ele><time>2026-05-03T17:34:50.000Z</time></trkpt>
        <trkpt lat="29.5688285" lon="103.403898"><ele>745.13</ele><time>2026-05-03T17:35:00.000Z</time></trkpt>
        <trkpt lat="29.5689317" lon="103.4038898"><ele>744.5</ele><time>2026-05-03T17:35:10.000Z</time></trkpt>
        <trkpt lat="29.5690204" lon="103.4039416"><ele>744.94</ele><time>2026-05-03T17:35:18.000Z</time></trkpt>
        <trkpt lat="29.5691202" lon="103.4039572"><ele>745.19</ele><time>2026-05-03T17:35:28.000Z</time></trkpt>
        <trkpt lat="29.5692127" lon="103.4039196"><ele>744.15</ele><time>2026-05-03T17:35:38.000Z</time></trkpt>
        <trkpt lat="29.5693004" lon="103.403873"><ele>742.35</ele><time>2026-05-03T17:35:48.000Z</time></trkpt>
        <trkpt lat="29.5693957" lon="103.4038279"><ele>740.92</ele><time>2026-05-03T17:35:58.000Z</time></trkpt>
        <trkpt lat="29.5694902" lon="103.4037599"><ele>740.46</ele><time>2026-05-03T17:36:08.000Z</time></trkpt>
        <trkpt lat="29.5695736" lon="103.4036875"><ele>738.91</ele><time>2026-05-03T17:36:16.000Z</time></trkpt>
        <trkpt lat="29.569651" lon="103.4036054"><ele>737.89</ele><time>2026-05-03T17:36:24.000Z</time></trkpt>
        <trkpt lat="29.5697201" lon="103.4035275"><ele>736.43</ele><time>2026-05-03T17:36:32.000Z</time></trkpt>
        <trkpt lat="29.5697885" lon="103.4034316"><ele>735.82</ele><time>2026-05-03T17:36:42.000Z</time></trkpt>
        <trkpt lat="29.5698559" lon="103.4033288"><ele>735.26</ele><time>2026-05-03T17:36:52.000Z</time></trkpt>
        <trkpt lat="29.569924" lon="103.4032369"><ele>735.88</ele><time>2026-05-03T17:37:00.000Z</time></trkpt>
        <trkpt lat="29.5699826" lon="103.4031367"><ele>736.42</ele><time>2026-05-03T17:37:08.000Z</time></trkpt>
        <trkpt lat="29.5700341" lon="103.4030231"><ele>735.86</ele><time>2026-05-03T17:37:18.000Z</time></trkpt>
        <trkpt lat="29.5700882" lon="103.4029159"><ele>735.6</ele><time>2026-05-03T17:37:26.000Z</time></trkpt>
        <trkpt lat="29.570161" lon="103.4028528"><ele>735.66</ele><time>2026-05-03T17:37:32.000Z</time></trkpt>
        <trkpt lat="29.5702578" lon="103.4028062"><ele>736.16</ele><time>2026-05-03T17:37:40.000Z</time></trkpt>
        <trkpt lat="29.5703623" lon="103.4027781"><ele>735.8</ele><time>2026-05-03T17:37:48.000Z</time></trkpt>
        <trkpt lat="29.5704634" lon="103.402773"><ele>734.58</ele><time>2026-05-03T17:37:56.000Z</time></trkpt>
        <trkpt lat="29.5705624" lon="103.4027721"><ele>734.59</ele><time>2026-05-03T17:38:04.000Z</time></trkpt>
        <trkpt lat="29.5706698" lon="103.4027667"><ele>734.67</ele><time>2026-05-03T17:38:12.000Z</time></trkpt>
        <trkpt lat="29.5707727" lon="103.4027308"><ele>733.4</ele><time>2026-05-03T17:38:20.000Z</time></trkpt>
        <trkpt lat="29.5708761" lon="103.40269"><ele>731.32</ele><time>2026-05-03T17:38:28.000Z</time></trkpt>
        <trkpt lat="29.5709693" lon="103.4026435"><ele>728.91</ele><time>2026-05-03T17:38:36.000Z</time></trkpt>
        <trkpt lat="29.5710558" lon="103.402589"><ele>726.45</ele><time>2026-05-03T17:38:44.000Z</time></trkpt>
        <trkpt lat="29.5711368" lon="103.4025229"><ele>724.89</ele><time>2026-05-03T17:38:52.000Z</time></trkpt>
        <trkpt lat="29.571204" lon="103.4024401"><ele>725.03</ele><time>2026-05-03T17:39:00.000Z</time></trkpt>
        <trkpt lat="29.5712557" lon="103.4023358"><ele>725.3</ele><time>2026-05-03T17:39:10.000Z</time></trkpt>
        <trkpt lat="29.5713034" lon="103.4022301"><ele>723.82</ele><time>2026-05-03T17:39:18.000Z</time></trkpt>
        <trkpt lat="29.5713528" lon="103.4021269"><ele>723.26</ele><time>2026-05-03T17:39:26.000Z</time></trkpt>
        <trkpt lat="29.5714242" lon="103.4020477"><ele>723.15</ele><time>2026-05-03T17:39:34.000Z</time></trkpt>
        <trkpt lat="29.5714985" lon="103.4019842"><ele>723.4</ele><time>2026-05-03T17:39:42.000Z</time></trkpt>
        <trkpt lat="29.5715633" lon="103.4018992"><ele>721.8</ele><time>2026-05-03T17:39:52.000Z</time></trkpt>
        <trkpt lat="29.571649" lon="103.4018407"><ele>721.1</ele><time>2026-05-03T17:40:02.000Z</time></trkpt>
        <trkpt lat="29.57173" lon="103.4017766"><ele>721.18</ele><time>2026-05-03T17:40:14.000Z</time></trkpt>
        <trkpt lat="29.5718209" lon="103.4017279"><ele>722.38</ele><time>2026-05-03T17:40:26.000Z</time></trkpt>
        <trkpt lat="29.5718627" lon="103.4016326"><ele>722.92</ele><time>2026-05-03T17:40:46.000Z</time></trkpt>
        <trkpt lat="29.5719264" lon="103.4015587"><ele>725.01</ele><time>2026-05-03T17:40:58.000Z</time></trkpt>
        <trkpt lat="29.5720081" lon="103.4014943"><ele>724.59</ele><time>2026-05-03T17:41:08.000Z</time></trkpt>
        <trkpt lat="29.5720363" lon="103.401396"><ele>724.37</ele><time>2026-05-03T17:41:20.000Z</time></trkpt>
        <trkpt lat="29.5720214" lon="103.401291"><ele>725</ele><time>2026-05-03T17:41:32.000Z</time></trkpt>
        <trkpt lat="29.5720139" lon="103.401264"><ele>726.62</ele><time>2026-05-03T17:41:36.000Z</time></trkpt>
        <trkpt lat="29.5719851" lon="103.4011888"><ele>726.39</ele><time>2026-05-03T17:42:18.000Z</time></trkpt>
        <trkpt lat="29.5719712" lon="103.4010854"><ele>728.28</ele><time>2026-05-03T17:42:34.000Z</time></trkpt>
        <trkpt lat="29.5719977" lon="103.4010409"><ele>728.87</ele><time>2026-05-03T17:42:38.000Z</time></trkpt>
        <trkpt lat="29.5719665" lon="103.4009721"><ele>729.1</ele><time>2026-05-03T17:42:56.000Z</time></trkpt>
        <trkpt lat="29.5719553" lon="103.4008665"><ele>731.74</ele><time>2026-05-03T17:43:14.000Z</time></trkpt>
        <trkpt lat="29.5719294" lon="103.4007514"><ele>732.88</ele><time>2026-05-03T17:43:58.000Z</time></trkpt>
        <trkpt lat="29.5719102" lon="103.4006419"><ele>737.94</ele><time>2026-05-03T17:44:20.000Z</time></trkpt>
        <trkpt lat="29.5718748" lon="103.4005441"><ele>742.61</ele><time>2026-05-03T17:44:46.000Z</time></trkpt>
        <trkpt lat="29.5718867" lon="103.4004471"><ele>744.11</ele><time>2026-05-03T17:45:00.000Z</time></trkpt>
        <trkpt lat="29.5719182" lon="103.4003432"><ele>746.93</ele><time>2026-05-03T17:45:26.000Z</time></trkpt>
        <trkpt lat="29.5718963" lon="103.4002458"><ele>751.3</ele><time>2026-05-03T17:45:48.000Z</time></trkpt>
        <trkpt lat="29.5718588" lon="103.4001449"><ele>754.97</ele><time>2026-05-03T17:46:18.000Z</time></trkpt>
        <trkpt lat="29.5718544" lon="103.4000411"><ele>758.88</ele><time>2026-05-03T17:46:38.000Z</time></trkpt>
        <trkpt lat="29.5718235" lon="103.3999405"><ele>762.78</ele><time>2026-05-03T17:47:08.000Z</time></trkpt>
        <trkpt lat="29.5718304" lon="103.3998366"><ele>765.42</ele><time>2026-05-03T17:47:34.000Z</time></trkpt>
        <trkpt lat="29.5718493" lon="103.3997316"><ele>769.4</ele><time>2026-05-03T17:47:56.000Z</time></trkpt>
        <trkpt lat="29.5718483" lon="103.3996256"><ele>774.5</ele><time>2026-05-03T17:48:18.000Z</time></trkpt>
        <trkpt lat="29.5718224" lon="103.3995161"><ele>777.81</ele><time>2026-05-03T17:48:38.000Z</time></trkpt>
        <trkpt lat="29.5718236" lon="103.3994114"><ele>780.6</ele><time>2026-05-03T17:48:52.000Z</time></trkpt>
        <trkpt lat="29.5718288" lon="103.3992996"><ele>781.95</ele><time>2026-05-03T17:49:06.000Z</time></trkpt>
        <trkpt lat="29.5717864" lon="103.3992113"><ele>785.22</ele><time>2026-05-03T17:49:22.000Z</time></trkpt>
        <trkpt lat="29.5717206" lon="103.3991296"><ele>785.68</ele><time>2026-05-03T17:49:42.000Z</time></trkpt>
        <trkpt lat="29.5716827" lon="103.3990326"><ele>788.78</ele><time>2026-05-03T17:49:58.000Z</time></trkpt>
        <trkpt lat="29.5716348" lon="103.3989333"><ele>791.57</ele><time>2026-05-03T17:50:20.000Z</time></trkpt>
        <trkpt lat="29.5716046" lon="103.3988158"><ele>795.13</ele><time>2026-05-03T17:50:32.000Z</time></trkpt>
        <trkpt lat="29.5715959" lon="103.398694"><ele>797.27</ele><time>2026-05-03T17:50:54.000Z</time></trkpt>
        <trkpt lat="29.5715967" lon="103.3985724"><ele>798.04</ele><time>2026-05-03T17:51:04.000Z</time></trkpt>
        <trkpt lat="29.5715812" lon="103.3984609"><ele>797.84</ele><time>2026-05-03T17:51:16.000Z</time></trkpt>
        <trkpt lat="29.5715721" lon="103.3983518"><ele>796.14</ele><time>2026-05-03T17:51:28.000Z</time></trkpt>
        <trkpt lat="29.571568" lon="103.3982477"><ele>794.98</ele><time>2026-05-03T17:51:40.000Z</time></trkpt>
        <trkpt lat="29.5715756" lon="103.3981412"><ele>792.84</ele><time>2026-05-03T17:51:56.000Z</time></trkpt>
        <trkpt lat="29.5715856" lon="103.3980346"><ele>791.39</ele><time>2026-05-03T17:52:36.000Z</time></trkpt>
        <trkpt lat="29.5715766" lon="103.3979242"><ele>788.36</ele><time>2026-05-03T17:52:48.000Z</time></trkpt>
        <trkpt lat="29.5715514" lon="103.3978165"><ele>785.03</ele><time>2026-05-03T17:53:04.000Z</time></trkpt>
        <trkpt lat="29.5715104" lon="103.3977156"><ele>783.6</ele><time>2026-05-03T17:53:16.000Z</time></trkpt>
        <trkpt lat="29.5714763" lon="103.3976078"><ele>782.2</ele><time>2026-05-03T17:53:36.000Z</time></trkpt>
        <trkpt lat="29.5714473" lon="103.3975046"><ele>778.77</ele><time>2026-05-03T17:53:50.000Z</time></trkpt>
        <trkpt lat="29.5714614" lon="103.3973869"><ele>774.94</ele><time>2026-05-03T17:54:02.000Z</time></trkpt>
        <trkpt lat="29.5714995" lon="103.3972751"><ele>773.29</ele><time>2026-05-03T17:54:16.000Z</time></trkpt>
        <trkpt lat="29.5715542" lon="103.397172"><ele>769.21</ele><time>2026-05-03T17:54:30.000Z</time></trkpt>
        <trkpt lat="29.5716071" lon="103.3970783"><ele>765.43</ele><time>2026-05-03T17:54:44.000Z</time></trkpt>
        <trkpt lat="29.571668" lon="103.3969922"><ele>762.23</ele><time>2026-05-03T17:54:58.000Z</time></trkpt>
        <trkpt lat="29.5717404" lon="103.3969023"><ele>759.5</ele><time>2026-05-03T17:55:12.000Z</time></trkpt>
        <trkpt lat="29.5717975" lon="103.3968113"><ele>757.63</ele><time>2026-05-03T17:55:26.000Z</time></trkpt>
        <trkpt lat="29.5718936" lon="103.3967646"><ele>755.43</ele><time>2026-05-03T17:55:44.000Z</time></trkpt>
        <trkpt lat="29.5719946" lon="103.396748"><ele>753.43</ele><time>2026-05-03T17:56:02.000Z</time></trkpt>
        <trkpt lat="29.5720943" lon="103.3967266"><ele>750.49</ele><time>2026-05-03T17:56:30.000Z</time></trkpt>
        <trkpt lat="29.5721881" lon="103.396722"><ele>747.59</ele><time>2026-05-03T17:56:44.000Z</time></trkpt>
        <trkpt lat="29.5722812" lon="103.3967116"><ele>744.93</ele><time>2026-05-03T17:56:58.000Z</time></trkpt>
        <trkpt lat="29.5723772" lon="103.3966645"><ele>742.85</ele><time>2026-05-03T17:57:16.000Z</time></trkpt>
        <trkpt lat="29.5723982" lon="103.3965708"><ele>739.57</ele><time>2026-05-03T17:57:26.000Z</time></trkpt>
        <trkpt lat="29.5723956" lon="103.3964584"><ele>736</ele><time>2026-05-03T17:57:38.000Z</time></trkpt>
        <trkpt lat="29.5724119" lon="103.3963488"><ele>732.23</ele><time>2026-05-03T17:58:12.000Z</time></trkpt>
        <trkpt lat="29.572463" lon="103.3962521"><ele>730.37</ele><time>2026-05-03T17:58:26.000Z</time></trkpt>
        <trkpt lat="29.572466" lon="103.396143"><ele>729.57</ele><time>2026-05-03T17:58:36.000Z</time></trkpt>
        <trkpt lat="29.5724949" lon="103.3960365"><ele>727.16</ele><time>2026-05-03T17:58:50.000Z</time></trkpt>
        <trkpt lat="29.5725765" lon="103.3959833"><ele>724.83</ele><time>2026-05-03T17:59:04.000Z</time></trkpt>
        <trkpt lat="29.5726565" lon="103.3959269"><ele>724.84</ele><time>2026-05-03T17:59:18.000Z</time></trkpt>
        <trkpt lat="29.5727453" lon="103.395867"><ele>724.05</ele><time>2026-05-03T17:59:32.000Z</time></trkpt>
        <trkpt lat="29.5728146" lon="103.3957915"><ele>721.31</ele><time>2026-05-03T17:59:46.000Z</time></trkpt>
        <trkpt lat="29.5728653" lon="103.3957012"><ele>718.28</ele><time>2026-05-03T17:59:56.000Z</time></trkpt>
        <trkpt lat="29.5729072" lon="103.3956061"><ele>716.58</ele><time>2026-05-03T18:00:06.000Z</time></trkpt>
        <trkpt lat="29.5729472" lon="103.3955075"><ele>715.25</ele><time>2026-05-03T18:00:14.000Z</time></trkpt>
        <trkpt lat="29.572978" lon="103.3953942"><ele>714.75</ele><time>2026-05-03T18:00:24.000Z</time></trkpt>
        <trkpt lat="29.573023" lon="103.3952911"><ele>712.31</ele><time>2026-05-03T18:00:34.000Z</time></trkpt>
        <trkpt lat="29.5729889" lon="103.3951913"><ele>709.63</ele><time>2026-05-03T18:00:46.000Z</time></trkpt>
        <trkpt lat="29.57295" lon="103.3950861"><ele>705.41</ele><time>2026-05-03T18:00:58.000Z</time></trkpt>
        <trkpt lat="29.5729267" lon="103.3949745"><ele>703.81</ele><time>2026-05-03T18:01:10.000Z</time></trkpt>
        <trkpt lat="29.5729254" lon="103.3948564"><ele>702.3</ele><time>2026-05-03T18:01:22.000Z</time></trkpt>
        <trkpt lat="29.5728829" lon="103.3947509"><ele>700.34</ele><time>2026-05-03T18:01:34.000Z</time></trkpt>
        <trkpt lat="29.5728161" lon="103.3946716"><ele>697.82</ele><time>2026-05-03T18:01:44.000Z</time></trkpt>
        <trkpt lat="29.5727496" lon="103.3945821"><ele>697.12</ele><time>2026-05-03T18:01:56.000Z</time></trkpt>
        <trkpt lat="29.5727375" lon="103.3944796"><ele>696.64</ele><time>2026-05-03T18:02:16.000Z</time></trkpt>
        <trkpt lat="29.5727721" lon="103.3943819"><ele>693.48</ele><time>2026-05-03T18:02:32.000Z</time></trkpt>
        <trkpt lat="29.5728135" lon="103.3942762"><ele>689.61</ele><time>2026-05-03T18:02:48.000Z</time></trkpt>
        <trkpt lat="29.5728664" lon="103.3941837"><ele>684.49</ele><time>2026-05-03T18:03:02.000Z</time></trkpt>
        <trkpt lat="29.5729029" lon="103.3940792"><ele>681.88</ele><time>2026-05-03T18:03:12.000Z</time></trkpt>
        <trkpt lat="29.5729477" lon="103.3939826"><ele>679.72</ele><time>2026-05-03T18:03:22.000Z</time></trkpt>
        <trkpt lat="29.5729957" lon="103.3938765"><ele>677.64</ele><time>2026-05-03T18:03:36.000Z</time></trkpt>
        <trkpt lat="29.5730485" lon="103.3937685"><ele>677.49</ele><time>2026-05-03T18:03:46.000Z</time></trkpt>
        <trkpt lat="29.5731218" lon="103.3937152"><ele>677.89</ele><time>2026-05-03T18:03:58.000Z</time></trkpt>
        <trkpt lat="29.5732129" lon="103.393712"><ele>678.94</ele><time>2026-05-03T18:04:16.000Z</time></trkpt>
        <trkpt lat="29.5733117" lon="103.3937057"><ele>680.58</ele><time>2026-05-03T18:04:32.000Z</time></trkpt>
        <trkpt lat="29.5733943" lon="103.393635"><ele>679.14</ele><time>2026-05-03T18:04:40.000Z</time></trkpt>
        <trkpt lat="29.5734687" lon="103.3935641"><ele>677.4</ele><time>2026-05-03T18:04:48.000Z</time></trkpt>
        <trkpt lat="29.5735675" lon="103.3935223"><ele>675.59</ele><time>2026-05-03T18:04:58.000Z</time></trkpt>
        <trkpt lat="29.5736515" lon="103.3934664"><ele>673.82</ele><time>2026-05-03T18:05:06.000Z</time></trkpt>
        <trkpt lat="29.5736725" lon="103.3934268"><ele>674.04</ele><time>2026-05-03T18:05:10.000Z</time></trkpt>
        <trkpt lat="29.5737412" lon="103.3933983"><ele>674.91</ele><time>2026-05-03T18:05:34.000Z</time></trkpt>
        <trkpt lat="29.5738347" lon="103.3933611"><ele>675.38</ele><time>2026-05-03T18:05:44.000Z</time></trkpt>
        <trkpt lat="29.5739216" lon="103.3932933"><ele>675.7</ele><time>2026-05-03T18:05:54.000Z</time></trkpt>
        <trkpt lat="29.5739726" lon="103.3932112"><ele>676.01</ele><time>2026-05-03T18:06:04.000Z</time></trkpt>
        <trkpt lat="29.5740112" lon="103.3931139"><ele>674.14</ele><time>2026-05-03T18:06:14.000Z</time></trkpt>
        <trkpt lat="29.5740112" lon="103.3930087"><ele>671.73</ele><time>2026-05-03T18:06:26.000Z</time></trkpt>
        <trkpt lat="29.5740271" lon="103.3928961"><ele>668.88</ele><time>2026-05-03T18:06:40.000Z</time></trkpt>
        <trkpt lat="29.5740562" lon="103.3927821"><ele>664.68</ele><time>2026-05-03T18:06:52.000Z</time></trkpt>
        <trkpt lat="29.574091" lon="103.3926794"><ele>662.54</ele><time>2026-05-03T18:07:04.000Z</time></trkpt>
        <trkpt lat="29.5741113" lon="103.3925696"><ele>660.46</ele><time>2026-05-03T18:07:20.000Z</time></trkpt>
        <trkpt lat="29.5740828" lon="103.3924642"><ele>658.62</ele><time>2026-05-03T18:07:32.000Z</time></trkpt>
        <trkpt lat="29.5740467" lon="103.3923629"><ele>656.06</ele><time>2026-05-03T18:07:44.000Z</time></trkpt>
        <trkpt lat="29.574099" lon="103.392371"><ele>653.45</ele><time>2026-05-03T18:07:54.000Z</time></trkpt>
        <trkpt lat="29.5741785" lon="103.3923385"><ele>652.3</ele><time>2026-05-03T18:08:30.000Z</time></trkpt>
        <trkpt lat="29.5741859" lon="103.3922569"><ele>649.91</ele><time>2026-05-03T18:09:14.000Z</time></trkpt>
        <trkpt lat="29.574158" lon="103.3922001"><ele>646.18</ele><time>2026-05-03T18:09:22.000Z</time></trkpt>
        <trkpt lat="29.5740847" lon="103.3921047"><ele>646.08</ele><time>2026-05-03T18:10:46.000Z</time></trkpt>
        <trkpt lat="29.5739871" lon="103.3920861"><ele>652.44</ele><time>2026-05-03T18:11:12.000Z</time></trkpt>
        <trkpt lat="29.5738884" lon="103.3921022"><ele>654.28</ele><time>2026-05-03T18:11:30.000Z</time></trkpt>
        <trkpt lat="29.5738192" lon="103.3921681"><ele>654.77</ele><time>2026-05-03T18:11:42.000Z</time></trkpt>
        <trkpt lat="29.5737556" lon="103.3921277"><ele>654.93</ele><time>2026-05-03T18:11:50.000Z</time></trkpt>
        <trkpt lat="29.5736906" lon="103.3920441"><ele>654.85</ele><time>2026-05-03T18:11:58.000Z</time></trkpt>
        <trkpt lat="29.5736055" lon="103.3919744"><ele>655.56</ele><time>2026-05-03T18:12:06.000Z</time></trkpt>
        <trkpt lat="29.5735531" lon="103.3919881"><ele>656.04</ele><time>2026-05-03T18:12:14.000Z</time></trkpt>
        <trkpt lat="29.5734994" lon="103.3919199"><ele>656.82</ele><time>2026-05-03T18:12:26.000Z</time></trkpt>
        <trkpt lat="29.5734354" lon="103.3918383"><ele>657.41</ele><time>2026-05-03T18:12:38.000Z</time></trkpt>
        <trkpt lat="29.5733588" lon="103.391758"><ele>658.95</ele><time>2026-05-03T18:13:36.000Z</time></trkpt>
        <trkpt lat="29.5732706" lon="103.3917193"><ele>659.28</ele><time>2026-05-03T18:13:50.000Z</time></trkpt>
        <trkpt lat="29.5731754" lon="103.3917182"><ele>659.33</ele><time>2026-05-03T18:14:10.000Z</time></trkpt>
        <trkpt lat="29.5730836" lon="103.3916773"><ele>659.91</ele><time>2026-05-03T18:14:26.000Z</time></trkpt>
        <trkpt lat="29.5729968" lon="103.3917113"><ele>660.75</ele><time>2026-05-03T18:14:34.000Z</time></trkpt>
        <trkpt lat="29.5729177" lon="103.3917897"><ele>663.2</ele><time>2026-05-03T18:14:42.000Z</time></trkpt>
        <trkpt lat="29.5728394" lon="103.3918751"><ele>665.71</ele><time>2026-05-03T18:14:50.000Z</time></trkpt>
        <trkpt lat="29.5727566" lon="103.3918706"><ele>668.06</ele><time>2026-05-03T18:15:00.000Z</time></trkpt>
        <trkpt lat="29.5726702" lon="103.391829"><ele>669.18</ele><time>2026-05-03T18:15:14.000Z</time></trkpt>
        <trkpt lat="29.5725805" lon="103.3918086"><ele>668.63</ele><time>2026-05-03T18:15:26.000Z</time></trkpt>
        <trkpt lat="29.572483" lon="103.3918232"><ele>670.64</ele><time>2026-05-03T18:15:40.000Z</time></trkpt>
        <trkpt lat="29.5724027" lon="103.3917721"><ele>669.86</ele><time>2026-05-03T18:15:52.000Z</time></trkpt>
        <trkpt lat="29.5723262" lon="103.3916917"><ele>669.28</ele><time>2026-05-03T18:16:04.000Z</time></trkpt>
        <trkpt lat="29.5722339" lon="103.3916732"><ele>669.51</ele><time>2026-05-03T18:16:14.000Z</time></trkpt>
        <trkpt lat="29.5721423" lon="103.391647"><ele>669.54</ele><time>2026-05-03T18:16:24.000Z</time></trkpt>
        <trkpt lat="29.572048" lon="103.3916535"><ele>669.18</ele><time>2026-05-03T18:16:32.000Z</time></trkpt>
        <trkpt lat="29.5719524" lon="103.3916521"><ele>668.37</ele><time>2026-05-03T18:16:40.000Z</time></trkpt>
        <trkpt lat="29.5718528" lon="103.3916596"><ele>668.47</ele><time>2026-05-03T18:16:48.000Z</time></trkpt>
        <trkpt lat="29.5717459" lon="103.3916526"><ele>669.52</ele><time>2026-05-03T18:16:58.000Z</time></trkpt>
        <trkpt lat="29.5716401" lon="103.3916427"><ele>668.87</ele><time>2026-05-03T18:17:08.000Z</time></trkpt>
        <trkpt lat="29.5715312" lon="103.3916533"><ele>671.17</ele><time>2026-05-03T18:17:20.000Z</time></trkpt>
        <trkpt lat="29.5714327" lon="103.3916571"><ele>670.48</ele><time>2026-05-03T18:17:30.000Z</time></trkpt>
        <trkpt lat="29.5713362" lon="103.3916773"><ele>668.28</ele><time>2026-05-03T18:17:40.000Z</time></trkpt>
        <trkpt lat="29.5712354" lon="103.391688"><ele>667.35</ele><time>2026-05-03T18:17:50.000Z</time></trkpt>
        <trkpt lat="29.5711357" lon="103.3916965"><ele>665.62</ele><time>2026-05-03T18:18:00.000Z</time></trkpt>
        <trkpt lat="29.57104" lon="103.3917043"><ele>664.82</ele><time>2026-05-03T18:18:12.000Z</time></trkpt>
        <trkpt lat="29.5709459" lon="103.3916909"><ele>663.9</ele><time>2026-05-03T18:18:30.000Z</time></trkpt>
        <trkpt lat="29.5708562" lon="103.3916497"><ele>662.98</ele><time>2026-05-03T18:18:42.000Z</time></trkpt>
        <trkpt lat="29.5707778" lon="103.3915908"><ele>660.94</ele><time>2026-05-03T18:18:58.000Z</time></trkpt>
        <trkpt lat="29.5707044" lon="103.3915252"><ele>660.81</ele><time>2026-05-03T18:19:28.000Z</time></trkpt>
        <trkpt lat="29.5706302" lon="103.3914578"><ele>663.28</ele><time>2026-05-03T18:19:40.000Z</time></trkpt>
        <trkpt lat="29.5705464" lon="103.3914109"><ele>665.57</ele><time>2026-05-03T18:19:56.000Z</time></trkpt>
        <trkpt lat="29.570469" lon="103.3913441"><ele>669.4</ele><time>2026-05-03T18:20:25.000Z</time></trkpt>
        <trkpt lat="29.5703809" lon="103.3912901"><ele>672.92</ele><time>2026-05-03T18:20:35.000Z</time></trkpt>
        <trkpt lat="29.5703346" lon="103.3911979"><ele>676.15</ele><time>2026-05-03T18:20:51.000Z</time></trkpt>
        <trkpt lat="29.570319" lon="103.3910793"><ele>678.22</ele><time>2026-05-03T18:21:13.000Z</time></trkpt>
        <trkpt lat="29.5702536" lon="103.3910644"><ele>678.64</ele><time>2026-05-03T18:21:31.000Z</time></trkpt>
        <trkpt lat="29.570174" lon="103.391126"><ele>678.24</ele><time>2026-05-03T18:21:45.000Z</time></trkpt>
        <trkpt lat="29.5701209" lon="103.3910642"><ele>678.99</ele><time>2026-05-03T18:21:55.000Z</time></trkpt>
        <trkpt lat="29.5700856" lon="103.3909545"><ele>679.78</ele><time>2026-05-03T18:22:05.000Z</time></trkpt>
        <trkpt lat="29.5700113" lon="103.3908969"><ele>680.93</ele><time>2026-05-03T18:22:17.000Z</time></trkpt>
        <trkpt lat="29.56992" lon="103.3909102"><ele>682.43</ele><time>2026-05-03T18:22:29.000Z</time></trkpt>
        <trkpt lat="29.5698204" lon="103.3909345"><ele>683.78</ele><time>2026-05-03T18:22:39.000Z</time></trkpt>
        <trkpt lat="29.5697149" lon="103.3909556"><ele>685.47</ele><time>2026-05-03T18:22:51.000Z</time></trkpt>
        <trkpt lat="29.5696132" lon="103.3909939"><ele>685.6</ele><time>2026-05-03T18:23:03.000Z</time></trkpt>
        <trkpt lat="29.5695177" lon="103.3910051"><ele>685.88</ele><time>2026-05-03T18:23:13.000Z</time></trkpt>
        <trkpt lat="29.5694265" lon="103.3910209"><ele>686.21</ele><time>2026-05-03T18:23:25.000Z</time></trkpt>
        <trkpt lat="29.5693459" lon="103.3909709"><ele>683.34</ele><time>2026-05-03T18:23:39.000Z</time></trkpt>
        <trkpt lat="29.5692591" lon="103.3909338"><ele>678.8</ele><time>2026-05-03T18:23:49.000Z</time></trkpt>
        <trkpt lat="29.5691909" lon="103.3908732"><ele>674.94</ele><time>2026-05-03T18:23:57.000Z</time></trkpt>
        <trkpt lat="29.5691053" lon="103.3908592"><ele>673.19</ele><time>2026-05-03T18:24:35.000Z</time></trkpt>
        <trkpt lat="29.5690111" lon="103.3909078"><ele>669.66</ele><time>2026-05-03T18:24:45.000Z</time></trkpt>
        <trkpt lat="29.5689417" lon="103.3909975"><ele>667.28</ele><time>2026-05-03T18:24:59.000Z</time></trkpt>
        <trkpt lat="29.5688747" lon="103.3910861"><ele>665.25</ele><time>2026-05-03T18:25:13.000Z</time></trkpt>
        <trkpt lat="29.568858" lon="103.3911941"><ele>664.52</ele><time>2026-05-03T18:25:27.000Z</time></trkpt>
        <trkpt lat="29.5687854" lon="103.3912479"><ele>663.91</ele><time>2026-05-03T18:25:37.000Z</time></trkpt>
        <trkpt lat="29.5686962" lon="103.3912287"><ele>664.33</ele><time>2026-05-03T18:25:45.000Z</time></trkpt>
        <trkpt lat="29.568592" lon="103.3912533"><ele>664.53</ele><time>2026-05-03T18:25:55.000Z</time></trkpt>
        <trkpt lat="29.5684966" lon="103.3912202"><ele>663.32</ele><time>2026-05-03T18:26:05.000Z</time></trkpt>
        <trkpt lat="29.5684727" lon="103.3911331"><ele>661.34</ele><time>2026-05-03T18:26:11.000Z</time></trkpt>
        <trkpt lat="29.5684508" lon="103.3909921"><ele>661.84</ele><time>2026-05-03T18:26:29.000Z</time></trkpt>
        <trkpt lat="29.5684842" lon="103.3908787"><ele>666.03</ele><time>2026-05-03T18:26:33.000Z</time></trkpt>
        <trkpt lat="29.5685273" lon="103.3907577"><ele>669.32</ele><time>2026-05-03T18:26:41.000Z</time></trkpt>
        <trkpt lat="29.5684758" lon="103.390682"><ele>672.4</ele><time>2026-05-03T18:26:49.000Z</time></trkpt>
        <trkpt lat="29.5683707" lon="103.3907086"><ele>673.82</ele><time>2026-05-03T18:26:59.000Z</time></trkpt>
        <trkpt lat="29.5683101" lon="103.3908269"><ele>674.32</ele><time>2026-05-03T18:27:05.000Z</time></trkpt>
        <trkpt lat="29.5682876" lon="103.3909539"><ele>675.51</ele><time>2026-05-03T18:27:17.000Z</time></trkpt>
        <trkpt lat="29.5682112" lon="103.3910021"><ele>673.39</ele><time>2026-05-03T18:27:41.000Z</time></trkpt>
        <trkpt lat="29.568108" lon="103.3910171"><ele>672.28</ele><time>2026-05-03T18:27:55.000Z</time></trkpt>
        <trkpt lat="29.5680412" lon="103.3909488"><ele>674.42</ele><time>2026-05-03T18:28:19.000Z</time></trkpt>
        <trkpt lat="29.5679759" lon="103.3908533"><ele>674.89</ele><time>2026-05-03T18:28:31.000Z</time></trkpt>
        <trkpt lat="29.5679272" lon="103.3907509"><ele>676.77</ele><time>2026-05-03T18:28:41.000Z</time></trkpt>
        <trkpt lat="29.5678389" lon="103.3907156"><ele>678.33</ele><time>2026-05-03T18:28:51.000Z</time></trkpt>
        <trkpt lat="29.5677361" lon="103.3907153"><ele>680.3</ele><time>2026-05-03T18:29:03.000Z</time></trkpt>
        <trkpt lat="29.5676848" lon="103.3907"><ele>679.14</ele><time>2026-05-03T18:29:17.000Z</time></trkpt>
        <trkpt lat="29.5676228" lon="103.3907591"><ele>675.25</ele><time>2026-05-03T18:29:35.000Z</time></trkpt>
        <trkpt lat="29.5675273" lon="103.3908007"><ele>672.23</ele><time>2026-05-03T18:29:43.000Z</time></trkpt>
        <trkpt lat="29.5674319" lon="103.3907884"><ele>671.72</ele><time>2026-05-03T18:29:53.000Z</time></trkpt>
        <trkpt lat="29.5674217" lon="103.3906907"><ele>672.07</ele><time>2026-05-03T18:29:59.000Z</time></trkpt>
        <trkpt lat="29.5674076" lon="103.3905663"><ele>671.56</ele><time>2026-05-03T18:30:07.000Z</time></trkpt>
        <trkpt lat="29.5673394" lon="103.3904916"><ele>672.77</ele><time>2026-05-03T18:30:19.000Z</time></trkpt>
        <trkpt lat="29.5672396" lon="103.3904719"><ele>673.89</ele><time>2026-05-03T18:30:29.000Z</time></trkpt>
        <trkpt lat="29.5671646" lon="103.3903909"><ele>674.53</ele><time>2026-05-03T18:30:37.000Z</time></trkpt>
        <trkpt lat="29.5670723" lon="103.3903425"><ele>677.17</ele><time>2026-05-03T18:30:45.000Z</time></trkpt>
        <trkpt lat="29.5669877" lon="103.3902814"><ele>679.55</ele><time>2026-05-03T18:30:57.000Z</time></trkpt>
        <trkpt lat="29.5668956" lon="103.3902168"><ele>683.67</ele><time>2026-05-03T18:31:05.000Z</time></trkpt>
        <trkpt lat="29.566815" lon="103.3901421"><ele>686.02</ele><time>2026-05-03T18:31:17.000Z</time></trkpt>
        <trkpt lat="29.5667642" lon="103.3900376"><ele>685.9</ele><time>2026-05-03T18:31:29.000Z</time></trkpt>
        <trkpt lat="29.56669" lon="103.3899825"><ele>687.54</ele><time>2026-05-03T18:31:39.000Z</time></trkpt>
        <trkpt lat="29.566647" lon="103.3898996"><ele>688.46</ele><time>2026-05-03T18:31:51.000Z</time></trkpt>
        <trkpt lat="29.5665751" lon="103.3898412"><ele>688.44</ele><time>2026-05-03T18:32:11.000Z</time></trkpt>
        <trkpt lat="29.5664925" lon="103.3898745"><ele>689.2</ele><time>2026-05-03T18:32:25.000Z</time></trkpt>
        <trkpt lat="29.5663847" lon="103.3898866"><ele>690.25</ele><time>2026-05-03T18:32:39.000Z</time></trkpt>
        <trkpt lat="29.5663109" lon="103.3897793"><ele>691.1</ele><time>2026-05-03T18:32:47.000Z</time></trkpt>
        <trkpt lat="29.5662295" lon="103.3897864"><ele>692.1</ele><time>2026-05-03T18:32:55.000Z</time></trkpt>
        <trkpt lat="29.5661547" lon="103.3897281"><ele>697.79</ele><time>2026-05-03T18:33:11.000Z</time></trkpt>
        <trkpt lat="29.5660642" lon="103.3896848"><ele>699.8</ele><time>2026-05-03T18:33:21.000Z</time></trkpt>
        <trkpt lat="29.5659744" lon="103.3896981"><ele>700.06</ele><time>2026-05-03T18:33:29.000Z</time></trkpt>
        <trkpt lat="29.5659255" lon="103.3897383"><ele>700.06</ele><time>2026-05-03T18:33:35.000Z</time></trkpt>
        <trkpt lat="29.5658439" lon="103.3897646"><ele>699.61</ele><time>2026-05-03T18:33:55.000Z</time></trkpt>
        <trkpt lat="29.5657497" lon="103.3897232"><ele>698.45</ele><time>2026-05-03T18:34:41.000Z</time></trkpt>
        <trkpt lat="29.5656527" lon="103.3896724"><ele>694.64</ele><time>2026-05-03T18:34:49.000Z</time></trkpt>
        <trkpt lat="29.5655729" lon="103.3896025"><ele>691.34</ele><time>2026-05-03T18:34:59.000Z</time></trkpt>
        <trkpt lat="29.5654782" lon="103.3895667"><ele>691.45</ele><time>2026-05-03T18:35:13.000Z</time></trkpt>
        <trkpt lat="29.565383" lon="103.3895445"><ele>695.81</ele><time>2026-05-03T18:35:23.000Z</time></trkpt>
        <trkpt lat="29.5652968" lon="103.3894985"><ele>698.09</ele><time>2026-05-03T18:35:33.000Z</time></trkpt>
        <trkpt lat="29.5652011" lon="103.3894464"><ele>698.9</ele><time>2026-05-03T18:35:45.000Z</time></trkpt>
        <trkpt lat="29.5651316" lon="103.3893698"><ele>699.08</ele><time>2026-05-03T18:35:53.000Z</time></trkpt>
        <trkpt lat="29.5650692" lon="103.3892846"><ele>698.92</ele><time>2026-05-03T18:36:05.000Z</time></trkpt>
        <trkpt lat="29.5650148" lon="103.3891923"><ele>700.01</ele><time>2026-05-03T18:36:15.000Z</time></trkpt>
        <trkpt lat="29.5649761" lon="103.3890824"><ele>700.12</ele><time>2026-05-03T18:36:25.000Z</time></trkpt>
        <trkpt lat="29.5649314" lon="103.3889846"><ele>700.61</ele><time>2026-05-03T18:36:37.000Z</time></trkpt>
        <trkpt lat="29.5648557" lon="103.3889246"><ele>703.18</ele><time>2026-05-03T18:36:47.000Z</time></trkpt>
        <trkpt lat="29.5647595" lon="103.388928"><ele>704.94</ele><time>2026-05-03T18:36:55.000Z</time></trkpt>
        <trkpt lat="29.5646736" lon="103.3889809"><ele>708.63</ele><time>2026-05-03T18:37:03.000Z</time></trkpt>
        <trkpt lat="29.5645766" lon="103.3890398"><ele>711.38</ele><time>2026-05-03T18:37:21.000Z</time></trkpt>
        <trkpt lat="29.5644829" lon="103.3890696"><ele>710.8</ele><time>2026-05-03T18:37:37.000Z</time></trkpt>
        <trkpt lat="29.5643963" lon="103.3891079"><ele>709.32</ele><time>2026-05-03T18:37:47.000Z</time></trkpt>
        <trkpt lat="29.564307" lon="103.3891118"><ele>709.99</ele><time>2026-05-03T18:37:57.000Z</time></trkpt>
        <trkpt lat="29.5642096" lon="103.3891111"><ele>709.16</ele><time>2026-05-03T18:38:09.000Z</time></trkpt>
        <trkpt lat="29.5641231" lon="103.3891518"><ele>708.51</ele><time>2026-05-03T18:38:23.000Z</time></trkpt>
        <trkpt lat="29.5640384" lon="103.389192"><ele>707.73</ele><time>2026-05-03T18:38:45.000Z</time></trkpt>
        <trkpt lat="29.5639962" lon="103.3891304"><ele>710.21</ele><time>2026-05-03T18:39:09.000Z</time></trkpt>
        <trkpt lat="29.5639632" lon="103.3890228"><ele>710</ele><time>2026-05-03T18:39:19.000Z</time></trkpt>
        <trkpt lat="29.5639036" lon="103.3890544"><ele>709.69</ele><time>2026-05-03T18:39:33.000Z</time></trkpt>
        <trkpt lat="29.5638174" lon="103.3890732"><ele>711.1</ele><time>2026-05-03T18:39:45.000Z</time></trkpt>
        <trkpt lat="29.5637172" lon="103.3890688"><ele>713.68</ele><time>2026-05-03T18:40:35.000Z</time></trkpt>
        <trkpt lat="29.5636144" lon="103.389069"><ele>715.72</ele><time>2026-05-03T18:40:45.000Z</time></trkpt>
        <trkpt lat="29.5635095" lon="103.3890475"><ele>718.37</ele><time>2026-05-03T18:40:55.000Z</time></trkpt>
        <trkpt lat="29.5634132" lon="103.3890402"><ele>720.16</ele><time>2026-05-03T18:41:09.000Z</time></trkpt>
        <trkpt lat="29.5633338" lon="103.389083"><ele>720.45</ele><time>2026-05-03T18:41:35.000Z</time></trkpt>
        <trkpt lat="29.5632532" lon="103.3891053"><ele>719.88</ele><time>2026-05-03T18:41:47.000Z</time></trkpt>
        <trkpt lat="29.5631546" lon="103.3891007"><ele>719.71</ele><time>2026-05-03T18:43:01.000Z</time></trkpt>
        <trkpt lat="29.5630527" lon="103.3891094"><ele>720.54</ele><time>2026-05-03T18:43:53.000Z</time></trkpt>
        <trkpt lat="29.5629627" lon="103.389141"><ele>721.6</ele><time>2026-05-03T18:44:07.000Z</time></trkpt>
        <trkpt lat="29.5628725" lon="103.3891583"><ele>722.08</ele><time>2026-05-03T18:44:21.000Z</time></trkpt>
        <trkpt lat="29.5627775" lon="103.3891903"><ele>723.69</ele><time>2026-05-03T18:44:37.000Z</time></trkpt>
        <trkpt lat="29.56276" lon="103.3891164"><ele>726.3</ele><time>2026-05-03T18:44:59.000Z</time></trkpt>
        <trkpt lat="29.5626973" lon="103.3891141"><ele>729.97</ele><time>2026-05-03T18:45:21.000Z</time></trkpt>
        <trkpt lat="29.562606" lon="103.3891281"><ele>732.35</ele><time>2026-05-03T18:45:41.000Z</time></trkpt>
        <trkpt lat="29.562512" lon="103.3891258"><ele>734.41</ele><time>2026-05-03T18:45:55.000Z</time></trkpt>
        <trkpt lat="29.5624133" lon="103.3891031"><ele>737.54</ele><time>2026-05-03T18:46:09.000Z</time></trkpt>
        <trkpt lat="29.5623105" lon="103.3891311"><ele>742.1</ele><time>2026-05-03T18:46:21.000Z</time></trkpt>
        <trkpt lat="29.5622119" lon="103.3891677"><ele>744.84</ele><time>2026-05-03T18:46:35.000Z</time></trkpt>
        <trkpt lat="29.5621084" lon="103.3891921"><ele>745.52</ele><time>2026-05-03T18:46:47.000Z</time></trkpt>
        <trkpt lat="29.5620175" lon="103.3892308"><ele>747.38</ele><time>2026-05-03T18:46:59.000Z</time></trkpt>
        <trkpt lat="29.5620423" lon="103.3893101"><ele>748</ele><time>2026-05-03T18:47:29.000Z</time></trkpt>
        <trkpt lat="29.5620602" lon="103.3894157"><ele>739.47</ele><time>2026-05-03T18:47:39.000Z</time></trkpt>
        <trkpt lat="29.5620083" lon="103.3894859"><ele>732.98</ele><time>2026-05-03T18:47:51.000Z</time></trkpt>
        <trkpt lat="29.5619165" lon="103.3894821"><ele>728.33</ele><time>2026-05-03T18:48:07.000Z</time></trkpt>
        <trkpt lat="29.5618193" lon="103.3894568"><ele>725.97</ele><time>2026-05-03T18:48:19.000Z</time></trkpt>
        <trkpt lat="29.5617349" lon="103.3893914"><ele>725.98</ele><time>2026-05-03T18:48:31.000Z</time></trkpt>
        <trkpt lat="29.5616407" lon="103.3893526"><ele>725.61</ele><time>2026-05-03T18:48:43.000Z</time></trkpt>
        <trkpt lat="29.561544" lon="103.3893317"><ele>729.73</ele><time>2026-05-03T18:48:55.000Z</time></trkpt>
        <trkpt lat="29.5614458" lon="103.3893307"><ele>733.55</ele><time>2026-05-03T18:49:05.000Z</time></trkpt>
        <trkpt lat="29.5613458" lon="103.3893122"><ele>736.49</ele><time>2026-05-03T18:49:17.000Z</time></trkpt>
        <trkpt lat="29.5612498" lon="103.3892838"><ele>738.63</ele><time>2026-05-03T18:49:55.000Z</time></trkpt>
        <trkpt lat="29.5611586" lon="103.3893142"><ele>739.97</ele><time>2026-05-03T18:50:23.000Z</time></trkpt>
        <trkpt lat="29.561071" lon="103.3893591"><ele>740.69</ele><time>2026-05-03T18:50:27.000Z</time></trkpt>
        <trkpt lat="29.5609822" lon="103.389382"><ele>741.46</ele><time>2026-05-03T18:50:33.000Z</time></trkpt>
        <trkpt lat="29.5608968" lon="103.3894244"><ele>741.39</ele><time>2026-05-03T18:50:41.000Z</time></trkpt>
        <trkpt lat="29.5608085" lon="103.3894401"><ele>741.21</ele><time>2026-05-03T18:50:49.000Z</time></trkpt>
        <trkpt lat="29.5607106" lon="103.3894542"><ele>739.88</ele><time>2026-05-03T18:50:57.000Z</time></trkpt>
        <trkpt lat="29.5606179" lon="103.3894733"><ele>737.52</ele><time>2026-05-03T18:51:05.000Z</time></trkpt>
        <trkpt lat="29.560515" lon="103.3894904"><ele>737.04</ele><time>2026-05-03T18:51:17.000Z</time></trkpt>
        <trkpt lat="29.5604248" lon="103.3894638"><ele>737.17</ele><time>2026-05-03T18:51:27.000Z</time></trkpt>
        <trkpt lat="29.5603789" lon="103.3894282"><ele>736.86</ele><time>2026-05-03T18:51:35.000Z</time></trkpt>
        <trkpt lat="29.5603037" lon="103.3894319"><ele>736.84</ele><time>2026-05-03T18:52:25.000Z</time></trkpt>
        <trkpt lat="29.5602143" lon="103.3894232"><ele>737.49</ele><time>2026-05-03T18:52:39.000Z</time></trkpt>
        <trkpt lat="29.5601886" lon="103.3893338"><ele>736.73</ele><time>2026-05-03T18:52:53.000Z</time></trkpt>
        <trkpt lat="29.5601987" lon="103.3892205"><ele>736.89</ele><time>2026-05-03T18:53:15.000Z</time></trkpt>
        <trkpt lat="29.5601469" lon="103.3891282"><ele>738.16</ele><time>2026-05-03T18:53:39.000Z</time></trkpt>
        <trkpt lat="29.5601047" lon="103.3890242"><ele>741.58</ele><time>2026-05-03T18:53:49.000Z</time></trkpt>
        <trkpt lat="29.5600707" lon="103.3889199"><ele>742.72</ele><time>2026-05-03T18:54:03.000Z</time></trkpt>
        <trkpt lat="29.5600676" lon="103.3888149"><ele>743.69</ele><time>2026-05-03T18:54:17.000Z</time></trkpt>
        <trkpt lat="29.5601338" lon="103.3887412"><ele>746.14</ele><time>2026-05-03T18:54:31.000Z</time></trkpt>
        <trkpt lat="29.5601115" lon="103.3886592"><ele>748.46</ele><time>2026-05-03T18:54:43.000Z</time></trkpt>
        <trkpt lat="29.5600446" lon="103.3885937"><ele>748.56</ele><time>2026-05-03T18:54:53.000Z</time></trkpt>
        <trkpt lat="29.5599576" lon="103.3885323"><ele>748.8</ele><time>2026-05-03T18:55:03.000Z</time></trkpt>
        <trkpt lat="29.5598662" lon="103.3884711"><ele>749.2</ele><time>2026-05-03T18:55:13.000Z</time></trkpt>
        <trkpt lat="29.5597814" lon="103.3884163"><ele>750.74</ele><time>2026-05-03T18:55:23.000Z</time></trkpt>
        <trkpt lat="29.5597089" lon="103.3883403"><ele>753.36</ele><time>2026-05-03T18:55:37.000Z</time></trkpt>
        <trkpt lat="29.5596921" lon="103.3882398"><ele>754.99</ele><time>2026-05-03T18:55:47.000Z</time></trkpt>
        <trkpt lat="29.5596727" lon="103.3881225"><ele>754.83</ele><time>2026-05-03T18:55:57.000Z</time></trkpt>
        <trkpt lat="29.5596286" lon="103.3880233"><ele>752.66</ele><time>2026-05-03T18:56:05.000Z</time></trkpt>
        <trkpt lat="29.5595652" lon="103.3879439"><ele>752.31</ele><time>2026-05-03T18:56:13.000Z</time></trkpt>
        <trkpt lat="29.5594821" lon="103.3878948"><ele>752.29</ele><time>2026-05-03T18:56:21.000Z</time></trkpt>
        <trkpt lat="29.5593817" lon="103.3878516"><ele>751.52</ele><time>2026-05-03T18:56:31.000Z</time></trkpt>
        <trkpt lat="29.5592803" lon="103.3877978"><ele>752.64</ele><time>2026-05-03T18:56:41.000Z</time></trkpt>
        <trkpt lat="29.5591732" lon="103.3877783"><ele>753.19</ele><time>2026-05-03T18:56:51.000Z</time></trkpt>
        <trkpt lat="29.5590744" lon="103.3877842"><ele>754.47</ele><time>2026-05-03T18:56:59.000Z</time></trkpt>
        <trkpt lat="29.5589748" lon="103.3877971"><ele>755.41</ele><time>2026-05-03T18:57:09.000Z</time></trkpt>
        <trkpt lat="29.5588827" lon="103.387814"><ele>756.92</ele><time>2026-05-03T18:57:19.000Z</time></trkpt>
        <trkpt lat="29.558792" lon="103.3878106"><ele>757.46</ele><time>2026-05-03T18:57:29.000Z</time></trkpt>
        <trkpt lat="29.5587002" lon="103.3877664"><ele>758.72</ele><time>2026-05-03T18:57:39.000Z</time></trkpt>
        <trkpt lat="29.5586162" lon="103.3877128"><ele>758.38</ele><time>2026-05-03T18:57:49.000Z</time></trkpt>
        <trkpt lat="29.5585288" lon="103.387702"><ele>758.06</ele><time>2026-05-03T18:57:59.000Z</time></trkpt>
        <trkpt lat="29.5584579" lon="103.3876299"><ele>758.09</ele><time>2026-05-03T18:58:11.000Z</time></trkpt>
        <trkpt lat="29.5583989" lon="103.3875364"><ele>758.91</ele><time>2026-05-03T18:58:21.000Z</time></trkpt>
        <trkpt lat="29.5583381" lon="103.3874464"><ele>759.64</ele><time>2026-05-03T18:58:31.000Z</time></trkpt>
        <trkpt lat="29.5582817" lon="103.3873477"><ele>759.25</ele><time>2026-05-03T18:58:43.000Z</time></trkpt>
        <trkpt lat="29.5582033" lon="103.3872698"><ele>759.2</ele><time>2026-05-03T18:58:55.000Z</time></trkpt>
        <trkpt lat="29.5581181" lon="103.3872119"><ele>759.22</ele><time>2026-05-03T18:59:09.000Z</time></trkpt>
        <trkpt lat="29.5580275" lon="103.3871613"><ele>759.21</ele><time>2026-05-03T18:59:25.000Z</time></trkpt>
        <trkpt lat="29.5579341" lon="103.3871118"><ele>760.43</ele><time>2026-05-03T18:59:37.000Z</time></trkpt>
        <trkpt lat="29.5578471" lon="103.3870715"><ele>762.72</ele><time>2026-05-03T18:59:47.000Z</time></trkpt>
        <trkpt lat="29.5577486" lon="103.3870535"><ele>764.42</ele><time>2026-05-03T18:59:59.000Z</time></trkpt>
        <trkpt lat="29.5576769" lon="103.3869863"><ele>766.67</ele><time>2026-05-03T19:00:15.000Z</time></trkpt>
        <trkpt lat="29.557666" lon="103.3868882"><ele>768.73</ele><time>2026-05-03T19:00:29.000Z</time></trkpt>
        <trkpt lat="29.5576227" lon="103.3867888"><ele>770.59</ele><time>2026-05-03T19:00:45.000Z</time></trkpt>
        <trkpt lat="29.5575543" lon="103.3867099"><ele>772.99</ele><time>2026-05-03T19:00:57.000Z</time></trkpt>
        <trkpt lat="29.5574943" lon="103.3866197"><ele>776.09</ele><time>2026-05-03T19:01:09.000Z</time></trkpt>
        <trkpt lat="29.5574196" lon="103.3865525"><ele>781.16</ele><time>2026-05-03T19:01:21.000Z</time></trkpt>
        <trkpt lat="29.55734" lon="103.3864901"><ele>783.04</ele><time>2026-05-03T19:01:33.000Z</time></trkpt>
        <trkpt lat="29.5572622" lon="103.3864275"><ele>782.73</ele><time>2026-05-03T19:01:49.000Z</time></trkpt>
        <trkpt lat="29.5571696" lon="103.3864169"><ele>783.32</ele><time>2026-05-03T19:02:01.000Z</time></trkpt>
        <trkpt lat="29.5570798" lon="103.3864435"><ele>783.78</ele><time>2026-05-03T19:02:11.000Z</time></trkpt>
        <trkpt lat="29.5570208" lon="103.3863918"><ele>783.56</ele><time>2026-05-03T19:02:23.000Z</time></trkpt>
        <trkpt lat="29.5569985" lon="103.3862837"><ele>782.65</ele><time>2026-05-03T19:02:37.000Z</time></trkpt>
        <trkpt lat="29.5569705" lon="103.3861655"><ele>782.1</ele><time>2026-05-03T19:02:47.000Z</time></trkpt>
        <trkpt lat="29.5569081" lon="103.3860757"><ele>781.17</ele><time>2026-05-03T19:02:57.000Z</time></trkpt>
        <trkpt lat="29.5568343" lon="103.386003"><ele>782.67</ele><time>2026-05-03T19:03:27.000Z</time></trkpt>
        <trkpt lat="29.5567513" lon="103.3860201"><ele>782.8</ele><time>2026-05-03T19:03:45.000Z</time></trkpt>
        <trkpt lat="29.5567215" lon="103.3860264"><ele>783.01</ele><time>2026-05-03T19:03:49.000Z</time></trkpt>
        <trkpt lat="29.5566505" lon="103.3860572"><ele>782.49</ele><time>2026-05-03T19:04:13.000Z</time></trkpt>
        <trkpt lat="29.5566356" lon="103.3860965"><ele>780.64</ele><time>2026-05-03T19:04:15.000Z</time></trkpt>
        <trkpt lat="29.5565636" lon="103.3861183"><ele>780.04</ele><time>2026-05-03T19:04:31.000Z</time></trkpt>
        <trkpt lat="29.5564838" lon="103.3860953"><ele>781.33</ele><time>2026-05-03T19:05:03.000Z</time></trkpt>
        <trkpt lat="29.556495" lon="103.3860171"><ele>781.86</ele><time>2026-05-03T19:05:19.000Z</time></trkpt>
        <trkpt lat="29.5564544" lon="103.3859336"><ele>784.86</ele><time>2026-05-03T19:05:45.000Z</time></trkpt>
        <trkpt lat="29.5563886" lon="103.3859563"><ele>786.39</ele><time>2026-05-03T19:06:17.000Z</time></trkpt>
        <trkpt lat="29.556315" lon="103.386022"><ele>792.29</ele><time>2026-05-03T19:06:41.000Z</time></trkpt>
        <trkpt lat="29.55623" lon="103.3860806"><ele>798.68</ele><time>2026-05-03T19:07:05.000Z</time></trkpt>
        <trkpt lat="29.5561386" lon="103.3860713"><ele>802.98</ele><time>2026-05-03T19:07:51.000Z</time></trkpt>
        <trkpt lat="29.556045" lon="103.3860518"><ele>807.31</ele><time>2026-05-03T19:08:13.000Z</time></trkpt>
        <trkpt lat="29.5559713" lon="103.3859889"><ele>810.49</ele><time>2026-05-03T19:08:37.000Z</time></trkpt>
        <trkpt lat="29.5560287" lon="103.3859498"><ele>813.34</ele><time>2026-05-03T19:09:25.000Z</time></trkpt>
        <trkpt lat="29.5561076" lon="103.3858831"><ele>820.74</ele><time>2026-05-03T19:09:39.000Z</time></trkpt>
        <trkpt lat="29.5560658" lon="103.3858293"><ele>824.69</ele><time>2026-05-03T19:09:55.000Z</time></trkpt>
        <trkpt lat="29.5560821" lon="103.3857474"><ele>828.31</ele><time>2026-05-03T19:10:27.000Z</time></trkpt>
        <trkpt lat="29.556077" lon="103.3856411"><ele>831.23</ele><time>2026-05-03T19:10:45.000Z</time></trkpt>
        <trkpt lat="29.5560734" lon="103.3855269"><ele>830.44</ele><time>2026-05-03T19:10:59.000Z</time></trkpt>
        <trkpt lat="29.556119" lon="103.38543"><ele>830.18</ele><time>2026-05-03T19:11:15.000Z</time></trkpt>
        <trkpt lat="29.5560687" lon="103.3854227"><ele>832.45</ele><time>2026-05-03T19:11:47.000Z</time></trkpt>
        <trkpt lat="29.5559892" lon="103.3854738"><ele>838.96</ele><time>2026-05-03T19:12:03.000Z</time></trkpt>
        <trkpt lat="29.5558944" lon="103.3854827"><ele>844.36</ele><time>2026-05-03T19:12:51.000Z</time></trkpt>
        <trkpt lat="29.5558071" lon="103.3855342"><ele>850.95</ele><time>2026-05-03T19:13:11.000Z</time></trkpt>
        <trkpt lat="29.5557412" lon="103.3854892"><ele>858.3</ele><time>2026-05-03T19:13:35.000Z</time></trkpt>
        <trkpt lat="29.5557214" lon="103.3853897"><ele>861.5</ele><time>2026-05-03T19:14:03.000Z</time></trkpt>
        <trkpt lat="29.5556862" lon="103.3852857"><ele>865.32</ele><time>2026-05-03T19:14:31.000Z</time></trkpt>
        <trkpt lat="29.5556999" lon="103.3851794"><ele>866.04</ele><time>2026-05-03T19:15:01.000Z</time></trkpt>
        <trkpt lat="29.5557386" lon="103.385073"><ele>870.96</ele><time>2026-05-03T19:15:21.000Z</time></trkpt>
        <trkpt lat="29.5556836" lon="103.3850135"><ele>874.97</ele><time>2026-05-03T19:15:43.000Z</time></trkpt>
        <trkpt lat="29.5555895" lon="103.3849885"><ele>877.46</ele><time>2026-05-03T19:16:07.000Z</time></trkpt>
        <trkpt lat="29.5554804" lon="103.3849697"><ele>882.56</ele><time>2026-05-03T19:16:27.000Z</time></trkpt>
        <trkpt lat="29.5553778" lon="103.3849355"><ele>885.18</ele><time>2026-05-03T19:17:43.000Z</time></trkpt>
        <trkpt lat="29.5552793" lon="103.3849202"><ele>891.59</ele><time>2026-05-03T19:18:11.000Z</time></trkpt>
        <trkpt lat="29.5551876" lon="103.3849028"><ele>896.28</ele><time>2026-05-03T19:18:33.000Z</time></trkpt>
        <trkpt lat="29.5550954" lon="103.384895"><ele>899.41</ele><time>2026-05-03T19:18:57.000Z</time></trkpt>
        <trkpt lat="29.5550098" lon="103.3848469"><ele>905.01</ele><time>2026-05-03T19:19:17.000Z</time></trkpt>
        <trkpt lat="29.5549226" lon="103.384802"><ele>908.37</ele><time>2026-05-03T19:19:31.000Z</time></trkpt>
        <trkpt lat="29.5548585" lon="103.3847265"><ele>911.2</ele><time>2026-05-03T19:20:01.000Z</time></trkpt>
        <trkpt lat="29.5547929" lon="103.384642"><ele>915.61</ele><time>2026-05-03T19:20:17.000Z</time></trkpt>
        <trkpt lat="29.5547158" lon="103.3845645"><ele>918.46</ele><time>2026-05-03T19:20:35.000Z</time></trkpt>
        <trkpt lat="29.5546503" lon="103.3844771"><ele>919.86</ele><time>2026-05-03T19:21:01.000Z</time></trkpt>
        <trkpt lat="29.5547025" lon="103.3844757"><ele>921.05</ele><time>2026-05-03T19:21:41.000Z</time></trkpt>
        <trkpt lat="29.5548045" lon="103.3844874"><ele>929.49</ele><time>2026-05-03T19:22:13.000Z</time></trkpt>
        <trkpt lat="29.5548974" lon="103.3844393"><ele>937.93</ele><time>2026-05-03T19:22:41.000Z</time></trkpt>
        <trkpt lat="29.5549656" lon="103.3843574"><ele>944.49</ele><time>2026-05-03T19:23:03.000Z</time></trkpt>
        <trkpt lat="29.5550405" lon="103.3842832"><ele>946.78</ele><time>2026-05-03T19:23:55.000Z</time></trkpt>
        <trkpt lat="29.5551273" lon="103.3842367"><ele>950.1</ele><time>2026-05-03T19:24:17.000Z</time></trkpt>
        <trkpt lat="29.5551258" lon="103.3841455"><ele>953.8</ele><time>2026-05-03T19:24:59.000Z</time></trkpt>
        <trkpt lat="29.5550604" lon="103.3840469"><ele>952.55</ele><time>2026-05-03T19:25:18.000Z</time></trkpt>
        <trkpt lat="29.5550287" lon="103.3840132"><ele>952.79</ele><time>2026-05-03T19:25:22.000Z</time></trkpt>
        <trkpt lat="29.5550056" lon="103.3839301"><ele>952.83</ele><time>2026-05-03T19:26:08.000Z</time></trkpt>
        <trkpt lat="29.5549904" lon="103.3838057"><ele>953.6</ele><time>2026-05-03T19:27:34.000Z</time></trkpt>
        <trkpt lat="29.5550485" lon="103.383702"><ele>956.81</ele><time>2026-05-03T19:27:44.000Z</time></trkpt>
        <trkpt lat="29.5550488" lon="103.3835877"><ele>958.47</ele><time>2026-05-03T19:27:56.000Z</time></trkpt>
        <trkpt lat="29.5550022" lon="103.3834926"><ele>959.37</ele><time>2026-05-03T19:28:06.000Z</time></trkpt>
        <trkpt lat="29.554924" lon="103.3834194"><ele>959.38</ele><time>2026-05-03T19:28:20.000Z</time></trkpt>
        <trkpt lat="29.5548317" lon="103.3833652"><ele>957.09</ele><time>2026-05-03T19:28:30.000Z</time></trkpt>
        <trkpt lat="29.554726" lon="103.3833289"><ele>954.49</ele><time>2026-05-03T19:28:40.000Z</time></trkpt>
        <trkpt lat="29.5546199" lon="103.3832819"><ele>952.86</ele><time>2026-05-03T19:28:54.000Z</time></trkpt>
        <trkpt lat="29.5545218" lon="103.3832246"><ele>952.74</ele><time>2026-05-03T19:29:04.000Z</time></trkpt>
        <trkpt lat="29.554452" lon="103.3831337"><ele>953.27</ele><time>2026-05-03T19:29:18.000Z</time></trkpt>
        <trkpt lat="29.5544003" lon="103.3830349"><ele>957.28</ele><time>2026-05-03T19:29:30.000Z</time></trkpt>
        <trkpt lat="29.5543341" lon="103.3829505"><ele>961.19</ele><time>2026-05-03T19:29:48.000Z</time></trkpt>
        <trkpt lat="29.5543566" lon="103.3828635"><ele>965.42</ele><time>2026-05-03T19:30:12.000Z</time></trkpt>
        <trkpt lat="29.554373" lon="103.3827614"><ele>965.5</ele><time>2026-05-03T19:30:34.000Z</time></trkpt>
        <trkpt lat="29.5544256" lon="103.3826713"><ele>967.42</ele><time>2026-05-03T19:30:56.000Z</time></trkpt>
        <trkpt lat="29.5544314" lon="103.3825664"><ele>970.97</ele><time>2026-05-03T19:31:56.000Z</time></trkpt>
        <trkpt lat="29.5543702" lon="103.3824979"><ele>975.35</ele><time>2026-05-03T19:32:10.000Z</time></trkpt>
        <trkpt lat="29.5542949" lon="103.3824295"><ele>978.63</ele><time>2026-05-03T19:32:30.000Z</time></trkpt>
        <trkpt lat="29.5542305" lon="103.3823364"><ele>981.36</ele><time>2026-05-03T19:32:42.000Z</time></trkpt>
        <trkpt lat="29.5542335" lon="103.3822346"><ele>982.25</ele><time>2026-05-03T19:33:00.000Z</time></trkpt>
        <trkpt lat="29.5542276" lon="103.3821247"><ele>984.52</ele><time>2026-05-03T19:33:28.000Z</time></trkpt>
        <trkpt lat="29.5542519" lon="103.3820167"><ele>986.91</ele><time>2026-05-03T19:33:36.000Z</time></trkpt>
        <trkpt lat="29.5542235" lon="103.381925"><ele>988.22</ele><time>2026-05-03T19:33:44.000Z</time></trkpt>
        <trkpt lat="29.5541902" lon="103.3818207"><ele>989.07</ele><time>2026-05-03T19:33:52.000Z</time></trkpt>
        <trkpt lat="29.5541623" lon="103.3817148"><ele>989.48</ele><time>2026-05-03T19:34:10.000Z</time></trkpt>
        <trkpt lat="29.5541402" lon="103.3816084"><ele>989.59</ele><time>2026-05-03T19:34:24.000Z</time></trkpt>
        <trkpt lat="29.5541034" lon="103.3815051"><ele>991.67</ele><time>2026-05-03T19:34:36.000Z</time></trkpt>
        <trkpt lat="29.5540931" lon="103.3813945"><ele>993.72</ele><time>2026-05-03T19:34:48.000Z</time></trkpt>
        <trkpt lat="29.5540856" lon="103.3812763"><ele>995.53</ele><time>2026-05-03T19:35:00.000Z</time></trkpt>
        <trkpt lat="29.5540648" lon="103.3811645"><ele>997.5</ele><time>2026-05-03T19:35:10.000Z</time></trkpt>
        <trkpt lat="29.554012" lon="103.3810645"><ele>997.15</ele><time>2026-05-03T19:35:20.000Z</time></trkpt>
        <trkpt lat="29.5539585" lon="103.380962"><ele>997.57</ele><time>2026-05-03T19:35:32.000Z</time></trkpt>
        <trkpt lat="29.5539684" lon="103.3808645"><ele>999.13</ele><time>2026-05-03T19:35:46.000Z</time></trkpt>
        <trkpt lat="29.554007" lon="103.380766"><ele>1001.22</ele><time>2026-05-03T19:36:00.000Z</time></trkpt>
        <trkpt lat="29.5540619" lon="103.3806615"><ele>1003.87</ele><time>2026-05-03T19:36:12.000Z</time></trkpt>
        <trkpt lat="29.5541061" lon="103.380563"><ele>1004.81</ele><time>2026-05-03T19:36:26.000Z</time></trkpt>
        <trkpt lat="29.5540966" lon="103.3804648"><ele>1005.86</ele><time>2026-05-03T19:36:38.000Z</time></trkpt>
        <trkpt lat="29.5540772" lon="103.3803613"><ele>1005.88</ele><time>2026-05-03T19:36:48.000Z</time></trkpt>
        <trkpt lat="29.5540745" lon="103.3802574"><ele>1005.93</ele><time>2026-05-03T19:36:58.000Z</time></trkpt>
        <trkpt lat="29.5540726" lon="103.3801443"><ele>1006.77</ele><time>2026-05-03T19:37:10.000Z</time></trkpt>
        <trkpt lat="29.5540513" lon="103.3800337"><ele>1007.75</ele><time>2026-05-03T19:37:24.000Z</time></trkpt>
        <trkpt lat="29.5540357" lon="103.3799276"><ele>1009.69</ele><time>2026-05-03T19:37:38.000Z</time></trkpt>
        <trkpt lat="29.5539889" lon="103.3798329"><ele>1011.37</ele><time>2026-05-03T19:37:56.000Z</time></trkpt>
        <trkpt lat="29.5539594" lon="103.3797339"><ele>1013.28</ele><time>2026-05-03T19:38:18.000Z</time></trkpt>
        <trkpt lat="29.5539671" lon="103.3796276"><ele>1015.4</ele><time>2026-05-03T19:38:46.000Z</time></trkpt>
        <trkpt lat="29.5539615" lon="103.3795153"><ele>1018.35</ele><time>2026-05-03T19:39:18.000Z</time></trkpt>
        <trkpt lat="29.5539473" lon="103.3794024"><ele>1021.09</ele><time>2026-05-03T19:39:36.000Z</time></trkpt>
        <trkpt lat="29.5539186" lon="103.3793003"><ele>1023.01</ele><time>2026-05-03T19:39:50.000Z</time></trkpt>
        <trkpt lat="29.5538887" lon="103.3791964"><ele>1026.11</ele><time>2026-05-03T19:40:06.000Z</time></trkpt>
        <trkpt lat="29.5538598" lon="103.3790859"><ele>1029.15</ele><time>2026-05-03T19:40:20.000Z</time></trkpt>
        <trkpt lat="29.5538493" lon="103.3789694"><ele>1030.17</ele><time>2026-05-03T19:40:32.000Z</time></trkpt>
        <trkpt lat="29.5538615" lon="103.3788549"><ele>1031.82</ele><time>2026-05-03T19:40:42.000Z</time></trkpt>
        <trkpt lat="29.5539167" lon="103.3787663"><ele>1032.7</ele><time>2026-05-03T19:40:56.000Z</time></trkpt>
        <trkpt lat="29.5539413" lon="103.3786645"><ele>1034.6</ele><time>2026-05-03T19:41:12.000Z</time></trkpt>
        <trkpt lat="29.553918" lon="103.3785664"><ele>1036.04</ele><time>2026-05-03T19:41:24.000Z</time></trkpt>
        <trkpt lat="29.5538752" lon="103.3784736"><ele>1036.83</ele><time>2026-05-03T19:41:40.000Z</time></trkpt>
        <trkpt lat="29.5538305" lon="103.3783806"><ele>1038.13</ele><time>2026-05-03T19:42:00.000Z</time></trkpt>
        <trkpt lat="29.5537685" lon="103.3782973"><ele>1039.41</ele><time>2026-05-03T19:42:20.000Z</time></trkpt>
        <trkpt lat="29.5537116" lon="103.3782075"><ele>1041.07</ele><time>2026-05-03T19:42:38.000Z</time></trkpt>
        <trkpt lat="29.5536854" lon="103.3781025"><ele>1041.96</ele><time>2026-05-03T19:42:52.000Z</time></trkpt>
        <trkpt lat="29.5536308" lon="103.3780099"><ele>1043.84</ele><time>2026-05-03T19:43:08.000Z</time></trkpt>
        <trkpt lat="29.5535652" lon="103.3779291"><ele>1047.91</ele><time>2026-05-03T19:43:32.000Z</time></trkpt>
        <trkpt lat="29.5534998" lon="103.3778471"><ele>1050.85</ele><time>2026-05-03T19:44:06.000Z</time></trkpt>
        <trkpt lat="29.5534416" lon="103.3777619"><ele>1054.26</ele><time>2026-05-03T19:44:40.000Z</time></trkpt>
        <trkpt lat="29.553371" lon="103.3776971"><ele>1057.72</ele><time>2026-05-03T19:45:06.000Z</time></trkpt>
        <trkpt lat="29.5532852" lon="103.377645"><ele>1061.39</ele><time>2026-05-03T19:45:50.000Z</time></trkpt>
        <trkpt lat="29.5532054" lon="103.37758"><ele>1066.31</ele><time>2026-05-03T19:46:26.000Z</time></trkpt>
        <trkpt lat="29.5531378" lon="103.3774993"><ele>1074.37</ele><time>2026-05-03T19:47:06.000Z</time></trkpt>
        <trkpt lat="29.5530774" lon="103.3774129"><ele>1081.08</ele><time>2026-05-03T19:47:32.000Z</time></trkpt>
        <trkpt lat="29.5530403" lon="103.3773157"><ele>1083.21</ele><time>2026-05-03T19:48:04.000Z</time></trkpt>
        <trkpt lat="29.5529789" lon="103.3772348"><ele>1085.72</ele><time>2026-05-03T19:48:30.000Z</time></trkpt>
        <trkpt lat="29.5528975" lon="103.3771932"><ele>1088.77</ele><time>2026-05-03T19:48:50.000Z</time></trkpt>
        <trkpt lat="29.552805" lon="103.3771918"><ele>1092.58</ele><time>2026-05-03T19:49:20.000Z</time></trkpt>
        <trkpt lat="29.5527357" lon="103.3771359"><ele>1095.38</ele><time>2026-05-03T19:49:50.000Z</time></trkpt>
        <trkpt lat="29.5527106" lon="103.3770406"><ele>1098.09</ele><time>2026-05-03T19:50:12.000Z</time></trkpt>
        <trkpt lat="29.5526471" lon="103.3770562"><ele>1101.56</ele><time>2026-05-03T19:50:22.000Z</time></trkpt>
        <trkpt lat="29.5525638" lon="103.3770483"><ele>1102.89</ele><time>2026-05-03T19:50:54.000Z</time></trkpt>
        <trkpt lat="29.5524776" lon="103.3770087"><ele>1103.16</ele><time>2026-05-03T19:51:32.000Z</time></trkpt>
        <trkpt lat="29.5523877" lon="103.3769801"><ele>1107.28</ele><time>2026-05-03T19:52:30.000Z</time></trkpt>
        <trkpt lat="29.5523025" lon="103.3769407"><ele>1113.17</ele><time>2026-05-03T19:52:54.000Z</time></trkpt>
        <trkpt lat="29.5522128" lon="103.3769012"><ele>1116.92</ele><time>2026-05-03T19:53:34.000Z</time></trkpt>
        <trkpt lat="29.5521775" lon="103.376805"><ele>1122.11</ele><time>2026-05-03T19:54:08.000Z</time></trkpt>
        <trkpt lat="29.552117" lon="103.3767336"><ele>1129.73</ele><time>2026-05-03T19:54:22.000Z</time></trkpt>
        <trkpt lat="29.5520348" lon="103.3767367"><ele>1135.43</ele><time>2026-05-03T19:54:40.000Z</time></trkpt>
        <trkpt lat="29.5519402" lon="103.3767434"><ele>1139.4</ele><time>2026-05-03T19:55:06.000Z</time></trkpt>
        <trkpt lat="29.5518523" lon="103.376706"><ele>1141.1</ele><time>2026-05-03T19:55:22.000Z</time></trkpt>
        <trkpt lat="29.5518553" lon="103.3766117"><ele>1143.55</ele><time>2026-05-03T19:55:32.000Z</time></trkpt>
        <trkpt lat="29.5519944" lon="103.3765788"><ele>1146.11</ele><time>2026-05-03T19:57:07.000Z</time></trkpt>
        <trkpt lat="29.5518686" lon="103.3764937"><ele>1146.44</ele><time>2026-05-03T19:58:19.000Z</time></trkpt>
        <trkpt lat="29.5518569" lon="103.3766861"><ele>1146.2</ele><time>2026-05-03T19:58:27.000Z</time></trkpt>
        <trkpt lat="29.551834" lon="103.3767037"><ele>1148.92</ele><time>2026-05-03T19:58:47.000Z</time></trkpt>
        <trkpt lat="29.551923" lon="103.3766805"><ele>1150.95</ele><time>2026-05-03T20:02:03.000Z</time></trkpt>
        <trkpt lat="29.5519189" lon="103.3767129"><ele>1152.04</ele><time>2026-05-03T20:02:07.000Z</time></trkpt>
        <trkpt lat="29.5518835" lon="103.3768219"><ele>1152.37</ele><time>2026-05-03T20:03:11.000Z</time></trkpt>
        <trkpt lat="29.551893" lon="103.376737"><ele>1149.88</ele><time>2026-05-03T20:03:21.000Z</time></trkpt>
        <trkpt lat="29.5518797" lon="103.376636"><ele>1149.5</ele><time>2026-05-03T20:03:55.000Z</time></trkpt>
        <trkpt lat="29.5518154" lon="103.3765711"><ele>1153</ele><time>2026-05-03T20:04:13.000Z</time></trkpt>
        <trkpt lat="29.5518145" lon="103.376539"><ele>1153.95</ele><time>2026-05-03T20:04:17.000Z</time></trkpt>
        <trkpt lat="29.5518581" lon="103.3764708"><ele>1155.78</ele><time>2026-05-03T20:04:43.000Z</time></trkpt>
        <trkpt lat="29.5518176" lon="103.3764098"><ele>1160.46</ele><time>2026-05-03T20:05:03.000Z</time></trkpt>
        <trkpt lat="29.5517636" lon="103.3763233"><ele>1164.23</ele><time>2026-05-03T20:06:01.000Z</time></trkpt>
        <trkpt lat="29.5517486" lon="103.3762201"><ele>1168.5</ele><time>2026-05-03T20:06:29.000Z</time></trkpt>
        <trkpt lat="29.551766" lon="103.3761127"><ele>1174.04</ele><time>2026-05-03T20:06:59.000Z</time></trkpt>
        <trkpt lat="29.5517264" lon="103.3760242"><ele>1182.2</ele><time>2026-05-03T20:07:25.000Z</time></trkpt>
        <trkpt lat="29.5516847" lon="103.3759255"><ele>1181.95</ele><time>2026-05-03T20:08:01.000Z</time></trkpt>
        <trkpt lat="29.5516127" lon="103.375837"><ele>1186.21</ele><time>2026-05-03T20:08:15.000Z</time></trkpt>
        <trkpt lat="29.5515251" lon="103.3757515"><ele>1188.38</ele><time>2026-05-03T20:08:25.000Z</time></trkpt>
        <trkpt lat="29.5514421" lon="103.3756676"><ele>1189.71</ele><time>2026-05-03T20:08:33.000Z</time></trkpt>
        <trkpt lat="29.551387" lon="103.3755714"><ele>1188.61</ele><time>2026-05-03T20:08:40.000Z</time></trkpt>
        <trkpt lat="29.5513171" lon="103.3754887"><ele>1189.36</ele><time>2026-05-03T20:08:48.000Z</time></trkpt>
        <trkpt lat="29.5512619" lon="103.3754002"><ele>1187.21</ele><time>2026-05-03T20:08:58.000Z</time></trkpt>
        <trkpt lat="29.5511812" lon="103.3753492"><ele>1186.38</ele><time>2026-05-03T20:09:16.000Z</time></trkpt>
        <trkpt lat="29.5511209" lon="103.3752661"><ele>1183.73</ele><time>2026-05-03T20:09:32.000Z</time></trkpt>
        <trkpt lat="29.551035" lon="103.3752516"><ele>1186.56</ele><time>2026-05-03T20:09:52.000Z</time></trkpt>
        <trkpt lat="29.5509424" lon="103.3752524"><ele>1189.31</ele><time>2026-05-03T20:10:14.000Z</time></trkpt>
        <trkpt lat="29.550846" lon="103.3752271"><ele>1193.3</ele><time>2026-05-03T20:10:30.000Z</time></trkpt>
        <trkpt lat="29.5507578" lon="103.3751864"><ele>1196.07</ele><time>2026-05-03T20:10:46.000Z</time></trkpt>
        <trkpt lat="29.550661" lon="103.3751409"><ele>1197.31</ele><time>2026-05-03T20:10:56.000Z</time></trkpt>
        <trkpt lat="29.5505726" lon="103.3750922"><ele>1197.66</ele><time>2026-05-03T20:11:06.000Z</time></trkpt>
        <trkpt lat="29.5504796" lon="103.3750607"><ele>1197.81</ele><time>2026-05-03T20:11:16.000Z</time></trkpt>
        <trkpt lat="29.5503875" lon="103.3750376"><ele>1197.42</ele><time>2026-05-03T20:11:26.000Z</time></trkpt>
        <trkpt lat="29.5502929" lon="103.3749931"><ele>1196.46</ele><time>2026-05-03T20:11:38.000Z</time></trkpt>
        <trkpt lat="29.5501962" lon="103.374947"><ele>1195.37</ele><time>2026-05-03T20:12:04.000Z</time></trkpt>
        <trkpt lat="29.5501034" lon="103.3749019"><ele>1194.95</ele><time>2026-05-03T20:12:22.000Z</time></trkpt>
        <trkpt lat="29.5500142" lon="103.3748459"><ele>1195.98</ele><time>2026-05-03T20:12:36.000Z</time></trkpt>
        <trkpt lat="29.5499366" lon="103.3747691"><ele>1197.94</ele><time>2026-05-03T20:12:48.000Z</time></trkpt>
        <trkpt lat="29.5498916" lon="103.3746704"><ele>1199.59</ele><time>2026-05-03T20:13:02.000Z</time></trkpt>
        <trkpt lat="29.5499211" lon="103.3745716"><ele>1204.02</ele><time>2026-05-03T20:13:16.000Z</time></trkpt>
        <trkpt lat="29.5499957" lon="103.3744973"><ele>1204.5</ele><time>2026-05-03T20:13:38.000Z</time></trkpt>
        <trkpt lat="29.5500751" lon="103.3744272"><ele>1208.53</ele><time>2026-05-03T20:14:30.000Z</time></trkpt>
        <trkpt lat="29.5501483" lon="103.3743493"><ele>1214.37</ele><time>2026-05-03T20:14:40.000Z</time></trkpt>
        <trkpt lat="29.5502394" lon="103.3742863"><ele>1218.15</ele><time>2026-05-03T20:14:54.000Z</time></trkpt>
        <trkpt lat="29.5503277" lon="103.3742314"><ele>1221.39</ele><time>2026-05-03T20:15:12.000Z</time></trkpt>
        <trkpt lat="29.5504042" lon="103.3741654"><ele>1223.73</ele><time>2026-05-03T20:15:24.000Z</time></trkpt>
        <trkpt lat="29.5504776" lon="103.3741014"><ele>1225.7</ele><time>2026-05-03T20:15:38.000Z</time></trkpt>
        <trkpt lat="29.5505683" lon="103.374051"><ele>1226.51</ele><time>2026-05-03T20:15:58.000Z</time></trkpt>
        <trkpt lat="29.5506698" lon="103.374046"><ele>1227.42</ele><time>2026-05-03T20:16:08.000Z</time></trkpt>
        <trkpt lat="29.5507503" lon="103.3739852"><ele>1227.63</ele><time>2026-05-03T20:16:18.000Z</time></trkpt>
        <trkpt lat="29.5507959" lon="103.3738913"><ele>1227.8</ele><time>2026-05-03T20:16:28.000Z</time></trkpt>
        <trkpt lat="29.5508546" lon="103.3738113"><ele>1225.19</ele><time>2026-05-03T20:16:38.000Z</time></trkpt>
        <trkpt lat="29.5509118" lon="103.3737273"><ele>1223.6</ele><time>2026-05-03T20:17:02.000Z</time></trkpt>
        <trkpt lat="29.5510119" lon="103.3736939"><ele>1221.85</ele><time>2026-05-03T20:17:12.000Z</time></trkpt>
        <trkpt lat="29.5511125" lon="103.3737246"><ele>1220.72</ele><time>2026-05-03T20:17:20.000Z</time></trkpt>
        <trkpt lat="29.5511955" lon="103.3736951"><ele>1221.29</ele><time>2026-05-03T20:17:28.000Z</time></trkpt>
        <trkpt lat="29.551252" lon="103.373611"><ele>1221.88</ele><time>2026-05-03T20:17:40.000Z</time></trkpt>
        <trkpt lat="29.5513173" lon="103.3735341"><ele>1220.12</ele><time>2026-05-03T20:17:48.000Z</time></trkpt>
        <trkpt lat="29.5513864" lon="103.3734517"><ele>1217.65</ele><time>2026-05-03T20:17:58.000Z</time></trkpt>
        <trkpt lat="29.5513939" lon="103.3733406"><ele>1214.84</ele><time>2026-05-03T20:18:08.000Z</time></trkpt>
        <trkpt lat="29.5513538" lon="103.3732267"><ele>1213.37</ele><time>2026-05-03T20:18:18.000Z</time></trkpt>
        <trkpt lat="29.5512737" lon="103.3731362"><ele>1213.61</ele><time>2026-05-03T20:18:28.000Z</time></trkpt>
        <trkpt lat="29.5511857" lon="103.3730458"><ele>1213.71</ele><time>2026-05-03T20:18:38.000Z</time></trkpt>
        <trkpt lat="29.5511364" lon="103.3729475"><ele>1213.59</ele><time>2026-05-03T20:18:48.000Z</time></trkpt>
        <trkpt lat="29.5510436" lon="103.3729159"><ele>1213.37</ele><time>2026-05-03T20:19:04.000Z</time></trkpt>
        <trkpt lat="29.5509503" lon="103.3728859"><ele>1216.08</ele><time>2026-05-03T20:19:14.000Z</time></trkpt>
        <trkpt lat="29.5508465" lon="103.3728943"><ele>1217.53</ele><time>2026-05-03T20:19:22.000Z</time></trkpt>
        <trkpt lat="29.5507512" lon="103.3729128"><ele>1217.6</ele><time>2026-05-03T20:19:30.000Z</time></trkpt>
        <trkpt lat="29.5506756" lon="103.3729806"><ele>1216.32</ele><time>2026-05-03T20:19:38.000Z</time></trkpt>
        <trkpt lat="29.5505919" lon="103.3729676"><ele>1215.16</ele><time>2026-05-03T20:19:46.000Z</time></trkpt>
        <trkpt lat="29.550533" lon="103.3729441"><ele>1215.79</ele><time>2026-05-03T20:19:56.000Z</time></trkpt>
        <trkpt lat="29.5504551" lon="103.3729801"><ele>1217.24</ele><time>2026-05-03T20:20:10.000Z</time></trkpt>
        <trkpt lat="29.5503618" lon="103.3729816"><ele>1220.44</ele><time>2026-05-03T20:20:22.000Z</time></trkpt>
        <trkpt lat="29.5503211" lon="103.3728661"><ele>1223.31</ele><time>2026-05-03T20:21:40.000Z</time></trkpt>
        <trkpt lat="29.5502735" lon="103.372778"><ele>1227.51</ele><time>2026-05-03T20:21:46.000Z</time></trkpt>
        <trkpt lat="29.5503018" lon="103.3726673"><ele>1229.88</ele><time>2026-05-03T20:22:06.000Z</time></trkpt>
        <trkpt lat="29.5503803" lon="103.3725879"><ele>1230.1</ele><time>2026-05-03T20:22:14.000Z</time></trkpt>
        <trkpt lat="29.5504523" lon="103.3725273"><ele>1227.36</ele><time>2026-05-03T20:22:30.000Z</time></trkpt>
        <trkpt lat="29.5505463" lon="103.3724586"><ele>1224.68</ele><time>2026-05-03T20:22:40.000Z</time></trkpt>
        <trkpt lat="29.5506251" lon="103.3723711"><ele>1222.12</ele><time>2026-05-03T20:22:48.000Z</time></trkpt>
        <trkpt lat="29.5506802" lon="103.3722728"><ele>1221.76</ele><time>2026-05-03T20:22:58.000Z</time></trkpt>
        <trkpt lat="29.5507187" lon="103.3721626"><ele>1220.16</ele><time>2026-05-03T20:23:08.000Z</time></trkpt>
        <trkpt lat="29.5507133" lon="103.3720445"><ele>1218.58</ele><time>2026-05-03T20:23:18.000Z</time></trkpt>
        <trkpt lat="29.5506486" lon="103.3719399"><ele>1216.89</ele><time>2026-05-03T20:23:30.000Z</time></trkpt>
        <trkpt lat="29.5506026" lon="103.371816"><ele>1215.79</ele><time>2026-05-03T20:23:40.000Z</time></trkpt>
        <trkpt lat="29.5505718" lon="103.3718203"><ele>1215.81</ele><time>2026-05-03T20:23:42.000Z</time></trkpt>
        <trkpt lat="29.550504" lon="103.3717895"><ele>1214.18</ele><time>2026-05-03T20:24:00.000Z</time></trkpt>
        <trkpt lat="29.5504977" lon="103.3716937"><ele>1213.13</ele><time>2026-05-03T20:24:08.000Z</time></trkpt>
        <trkpt lat="29.5504616" lon="103.3715906"><ele>1211.12</ele><time>2026-05-03T20:24:18.000Z</time></trkpt>
        <trkpt lat="29.5504274" lon="103.3714864"><ele>1209.64</ele><time>2026-05-03T20:24:28.000Z</time></trkpt>
        <trkpt lat="29.5503483" lon="103.3714375"><ele>1208.69</ele><time>2026-05-03T20:24:36.000Z</time></trkpt>
        <trkpt lat="29.5502811" lon="103.3713667"><ele>1210.94</ele><time>2026-05-03T20:24:46.000Z</time></trkpt>
        <trkpt lat="29.5503206" lon="103.3713025"><ele>1212.02</ele><time>2026-05-03T20:25:00.000Z</time></trkpt>
        <trkpt lat="29.5503661" lon="103.3712102"><ele>1209.96</ele><time>2026-05-03T20:25:10.000Z</time></trkpt>
        <trkpt lat="29.5504177" lon="103.3711094"><ele>1207.37</ele><time>2026-05-03T20:25:20.000Z</time></trkpt>
        <trkpt lat="29.5504632" lon="103.3710108"><ele>1205.57</ele><time>2026-05-03T20:25:26.000Z</time></trkpt>
        <trkpt lat="29.5504626" lon="103.3708991"><ele>1205.06</ele><time>2026-05-03T20:25:34.000Z</time></trkpt>
        <trkpt lat="29.5503913" lon="103.370818"><ele>1204.95</ele><time>2026-05-03T20:25:42.000Z</time></trkpt>
        <trkpt lat="29.5503242" lon="103.3707203"><ele>1205.25</ele><time>2026-05-03T20:25:54.000Z</time></trkpt>
        <trkpt lat="29.5503137" lon="103.3705998"><ele>1206.32</ele><time>2026-05-03T20:26:14.000Z</time></trkpt>
        <trkpt lat="29.5503582" lon="103.3704895"><ele>1209.13</ele><time>2026-05-03T20:26:30.000Z</time></trkpt>
        <trkpt lat="29.5503843" lon="103.370377"><ele>1204.58</ele><time>2026-05-03T20:26:42.000Z</time></trkpt>
        <trkpt lat="29.5504041" lon="103.3702657"><ele>1198.95</ele><time>2026-05-03T20:27:02.000Z</time></trkpt>
        <trkpt lat="29.5503769" lon="103.3701574"><ele>1196.19</ele><time>2026-05-03T20:27:28.000Z</time></trkpt>
        <trkpt lat="29.5503709" lon="103.3700399"><ele>1196.55</ele><time>2026-05-03T20:27:38.000Z</time></trkpt>
        <trkpt lat="29.5503413" lon="103.369935"><ele>1196.8</ele><time>2026-05-03T20:27:52.000Z</time></trkpt>
        <trkpt lat="29.5502713" lon="103.3698587"><ele>1196.28</ele><time>2026-05-03T20:28:02.000Z</time></trkpt>
        <trkpt lat="29.5502303" lon="103.3697649"><ele>1196.1</ele><time>2026-05-03T20:28:24.000Z</time></trkpt>
        <trkpt lat="29.5502211" lon="103.3696626"><ele>1198.69</ele><time>2026-05-03T20:28:46.000Z</time></trkpt>
        <trkpt lat="29.5501648" lon="103.3695925"><ele>1199.16</ele><time>2026-05-03T20:29:32.000Z</time></trkpt>
        <trkpt lat="29.5501124" lon="103.3695039"><ele>1204.07</ele><time>2026-05-03T20:30:16.000Z</time></trkpt>
        <trkpt lat="29.550029" lon="103.3694789"><ele>1210.33</ele><time>2026-05-03T20:30:34.000Z</time></trkpt>
        <trkpt lat="29.5499751" lon="103.3694006"><ele>1215.59</ele><time>2026-05-03T20:30:50.000Z</time></trkpt>
        <trkpt lat="29.5499164" lon="103.3693103"><ele>1218.92</ele><time>2026-05-03T20:31:04.000Z</time></trkpt>
        <trkpt lat="29.5498878" lon="103.369191"><ele>1220.37</ele><time>2026-05-03T20:31:18.000Z</time></trkpt>
        <trkpt lat="29.549862" lon="103.3690781"><ele>1221.29</ele><time>2026-05-03T20:31:30.000Z</time></trkpt>
        <trkpt lat="29.549924" lon="103.3690229"><ele>1221.05</ele><time>2026-05-03T20:31:56.000Z</time></trkpt>
        <trkpt lat="29.5498904" lon="103.3689738"><ele>1224.69</ele><time>2026-05-03T20:32:20.000Z</time></trkpt>
        <trkpt lat="29.5499185" lon="103.3689016"><ele>1231.69</ele><time>2026-05-03T20:32:46.000Z</time></trkpt>
        <trkpt lat="29.5499721" lon="103.3688212"><ele>1235.04</ele><time>2026-05-03T20:33:12.000Z</time></trkpt>
        <trkpt lat="29.5499284" lon="103.368833"><ele>1239.17</ele><time>2026-05-03T20:33:22.000Z</time></trkpt>
        <trkpt lat="29.5498444" lon="103.3688728"><ele>1242.84</ele><time>2026-05-03T20:33:38.000Z</time></trkpt>
        <trkpt lat="29.5497786" lon="103.3688179"><ele>1245.72</ele><time>2026-05-03T20:34:04.000Z</time></trkpt>
        <trkpt lat="29.5496887" lon="103.3687671"><ele>1248.75</ele><time>2026-05-03T20:34:16.000Z</time></trkpt>
        <trkpt lat="29.5496131" lon="103.3686832"><ele>1252.15</ele><time>2026-05-03T20:34:30.000Z</time></trkpt>
        <trkpt lat="29.5496293" lon="103.3685563"><ele>1253.99</ele><time>2026-05-03T20:37:24.000Z</time></trkpt>
        <trkpt lat="29.5497059" lon="103.3684911"><ele>1256.39</ele><time>2026-05-03T20:38:42.000Z</time></trkpt>
        <trkpt lat="29.5497917" lon="103.3684496"><ele>1262.39</ele><time>2026-05-03T20:39:14.000Z</time></trkpt>
        <trkpt lat="29.5497753" lon="103.3683415"><ele>1268.11</ele><time>2026-05-03T20:41:18.000Z</time></trkpt>
        <trkpt lat="29.5498711" lon="103.3683425"><ele>1279.74</ele><time>2026-05-03T20:42:00.000Z</time></trkpt>
        <trkpt lat="29.5499063" lon="103.3682997"><ele>1290.88</ele><time>2026-05-03T20:42:10.000Z</time></trkpt>
        <trkpt lat="29.5499409" lon="103.3682155"><ele>1297.05</ele><time>2026-05-03T20:42:44.000Z</time></trkpt>
        <trkpt lat="29.5499026" lon="103.3680976"><ele>1300.91</ele><time>2026-05-03T20:43:54.000Z</time></trkpt>
        <trkpt lat="29.5499289" lon="103.3679846"><ele>1306.39</ele><time>2026-05-03T20:44:16.000Z</time></trkpt>
        <trkpt lat="29.5498956" lon="103.3680437"><ele>1309.69</ele><time>2026-05-03T20:44:42.000Z</time></trkpt>
        <trkpt lat="29.5498661" lon="103.3679818"><ele>1315.65</ele><time>2026-05-03T20:45:24.000Z</time></trkpt>
        <trkpt lat="29.549832" lon="103.3678888"><ele>1318.94</ele><time>2026-05-03T20:46:02.000Z</time></trkpt>
        <trkpt lat="29.5498805" lon="103.3678125"><ele>1323.25</ele><time>2026-05-03T20:46:28.000Z</time></trkpt>
        <trkpt lat="29.549908" lon="103.3678374"><ele>1327.16</ele><time>2026-05-03T20:46:38.000Z</time></trkpt>
        <trkpt lat="29.5499851" lon="103.3678578"><ele>1332.1</ele><time>2026-05-03T20:47:06.000Z</time></trkpt>
        <trkpt lat="29.5499784" lon="103.3677937"><ele>1337.97</ele><time>2026-05-03T20:47:28.000Z</time></trkpt>
        <trkpt lat="29.5499549" lon="103.3677368"><ele>1339.76</ele><time>2026-05-03T20:47:46.000Z</time></trkpt>
        <trkpt lat="29.5500114" lon="103.3676961"><ele>1341.34</ele><time>2026-05-03T20:48:20.000Z</time></trkpt>
        <trkpt lat="29.5500813" lon="103.3676239"><ele>1346.43</ele><time>2026-05-03T20:49:02.000Z</time></trkpt>
        <trkpt lat="29.5501693" lon="103.3675737"><ele>1349.76</ele><time>2026-05-03T20:49:16.000Z</time></trkpt>
        <trkpt lat="29.5501901" lon="103.3674825"><ele>1353.48</ele><time>2026-05-03T20:49:40.000Z</time></trkpt>
        <trkpt lat="29.550212" lon="103.3673795"><ele>1356.8</ele><time>2026-05-03T20:50:10.000Z</time></trkpt>
        <trkpt lat="29.5501549" lon="103.3673868"><ele>1360.53</ele><time>2026-05-03T20:51:08.000Z</time></trkpt>
        <trkpt lat="29.5501" lon="103.367327"><ele>1368.82</ele><time>2026-05-03T20:51:44.000Z</time></trkpt>
        <trkpt lat="29.5501034" lon="103.3672315"><ele>1372.34</ele><time>2026-05-03T20:52:08.000Z</time></trkpt>
        <trkpt lat="29.5501373" lon="103.3671324"><ele>1376.16</ele><time>2026-05-03T20:52:32.000Z</time></trkpt>
        <trkpt lat="29.5501914" lon="103.3670383"><ele>1380.09</ele><time>2026-05-03T20:52:50.000Z</time></trkpt>
        <trkpt lat="29.5502532" lon="103.3669528"><ele>1383.28</ele><time>2026-05-03T20:53:06.000Z</time></trkpt>
        <trkpt lat="29.5502834" lon="103.3668475"><ele>1386.61</ele><time>2026-05-03T20:54:14.000Z</time></trkpt>
        <trkpt lat="29.5501938" lon="103.3668366"><ele>1394.64</ele><time>2026-05-03T20:54:28.000Z</time></trkpt>
        <trkpt lat="29.5501365" lon="103.366752"><ele>1397.88</ele><time>2026-05-03T20:56:18.000Z</time></trkpt>
        <trkpt lat="29.5500726" lon="103.3666653"><ele>1401.08</ele><time>2026-05-03T20:56:46.000Z</time></trkpt>
        <trkpt lat="29.5500295" lon="103.3666266"><ele>1402.84</ele><time>2026-05-03T20:57:00.000Z</time></trkpt>
        <trkpt lat="29.549954" lon="103.3665942"><ele>1404.01</ele><time>2026-05-03T20:57:46.000Z</time></trkpt>
        <trkpt lat="29.549864" lon="103.3665914"><ele>1408.71</ele><time>2026-05-03T20:58:14.000Z</time></trkpt>
        <trkpt lat="29.5497711" lon="103.3666238"><ele>1413.71</ele><time>2026-05-03T20:58:34.000Z</time></trkpt>
        <trkpt lat="29.5496896" lon="103.366595"><ele>1418.06</ele><time>2026-05-03T20:58:54.000Z</time></trkpt>
        <trkpt lat="29.549614" lon="103.3665307"><ele>1420.93</ele><time>2026-05-03T20:59:28.000Z</time></trkpt>
        <trkpt lat="29.549524" lon="103.3664942"><ele>1423.59</ele><time>2026-05-03T21:00:52.000Z</time></trkpt>
        <trkpt lat="29.5494517" lon="103.3664303"><ele>1428.75</ele><time>2026-05-03T21:01:46.000Z</time></trkpt>
        <trkpt lat="29.5494063" lon="103.3663378"><ele>1434.94</ele><time>2026-05-03T21:02:36.000Z</time></trkpt>
        <trkpt lat="29.5494794" lon="103.366245"><ele>1442.35</ele><time>2026-05-03T21:15:46.000Z</time></trkpt>
        <trkpt lat="29.5495434" lon="103.3661706"><ele>1446.32</ele><time>2026-05-03T21:15:58.000Z</time></trkpt>
        <trkpt lat="29.5496173" lon="103.3661077"><ele>1450.23</ele><time>2026-05-03T21:16:14.000Z</time></trkpt>
        <trkpt lat="29.5496864" lon="103.3660386"><ele>1454.66</ele><time>2026-05-03T21:16:58.000Z</time></trkpt>
        <trkpt lat="29.5497234" lon="103.3659466"><ele>1458.97</ele><time>2026-05-03T21:17:18.000Z</time></trkpt>
        <trkpt lat="29.5497102" lon="103.3658415"><ele>1459.62</ele><time>2026-05-03T21:17:38.000Z</time></trkpt>
        <trkpt lat="29.5496471" lon="103.3657603"><ele>1460.35</ele><time>2026-05-03T21:18:00.000Z</time></trkpt>
        <trkpt lat="29.5496051" lon="103.365666"><ele>1462.13</ele><time>2026-05-03T21:18:18.000Z</time></trkpt>
        <trkpt lat="29.549538" lon="103.3655874"><ele>1463.92</ele><time>2026-05-03T21:18:32.000Z</time></trkpt>
        <trkpt lat="29.5495488" lon="103.3654907"><ele>1465.14</ele><time>2026-05-03T21:18:44.000Z</time></trkpt>
        <trkpt lat="29.5496252" lon="103.3654126"><ele>1463.6</ele><time>2026-05-03T21:18:54.000Z</time></trkpt>
        <trkpt lat="29.5497003" lon="103.365324"><ele>1461.5</ele><time>2026-05-03T21:19:02.000Z</time></trkpt>
        <trkpt lat="29.5497604" lon="103.3652221"><ele>1459.8</ele><time>2026-05-03T21:19:10.000Z</time></trkpt>
        <trkpt lat="29.5498239" lon="103.3651273"><ele>1459.03</ele><time>2026-05-03T21:19:18.000Z</time></trkpt>
        <trkpt lat="29.5498963" lon="103.3650333"><ele>1458.57</ele><time>2026-05-03T21:19:28.000Z</time></trkpt>
        <trkpt lat="29.54994" lon="103.3649348"><ele>1459.31</ele><time>2026-05-03T21:19:36.000Z</time></trkpt>
        <trkpt lat="29.5500116" lon="103.3648542"><ele>1460.2</ele><time>2026-05-03T21:19:48.000Z</time></trkpt>
        <trkpt lat="29.5500688" lon="103.3647528"><ele>1460.9</ele><time>2026-05-03T21:19:58.000Z</time></trkpt>
        <trkpt lat="29.5500951" lon="103.3646312"><ele>1463.56</ele><time>2026-05-03T21:20:08.000Z</time></trkpt>
        <trkpt lat="29.5501241" lon="103.3645153"><ele>1465.94</ele><time>2026-05-03T21:20:18.000Z</time></trkpt>
        <trkpt lat="29.5501845" lon="103.3644395"><ele>1466.89</ele><time>2026-05-03T21:20:26.000Z</time></trkpt>
        <trkpt lat="29.5502462" lon="103.3643486"><ele>1465.48</ele><time>2026-05-03T21:20:36.000Z</time></trkpt>
        <trkpt lat="29.5503088" lon="103.3642508"><ele>1463.59</ele><time>2026-05-03T21:20:46.000Z</time></trkpt>
        <trkpt lat="29.5503478" lon="103.3641403"><ele>1462.69</ele><time>2026-05-03T21:20:56.000Z</time></trkpt>
        <trkpt lat="29.5503817" lon="103.3640379"><ele>1463.25</ele><time>2026-05-03T21:21:08.000Z</time></trkpt>
        <trkpt lat="29.550417" lon="103.3639398"><ele>1465.06</ele><time>2026-05-03T21:21:28.000Z</time></trkpt>
        <trkpt lat="29.5504897" lon="103.3639562"><ele>1467.73</ele><time>2026-05-03T21:21:46.000Z</time></trkpt>
        <trkpt lat="29.5505056" lon="103.363895"><ele>1467.71</ele><time>2026-05-03T21:22:24.000Z</time></trkpt>
        <trkpt lat="29.5505637" lon="103.3638311"><ele>1472.29</ele><time>2026-05-03T21:22:48.000Z</time></trkpt>
        <trkpt lat="29.5506456" lon="103.3637767"><ele>1476.41</ele><time>2026-05-03T21:23:02.000Z</time></trkpt>
        <trkpt lat="29.5507283" lon="103.3637211"><ele>1479.14</ele><time>2026-05-03T21:23:12.000Z</time></trkpt>
        <trkpt lat="29.5508119" lon="103.363658"><ele>1481.19</ele><time>2026-05-03T21:23:22.000Z</time></trkpt>
        <trkpt lat="29.5508283" lon="103.3635476"><ele>1482.34</ele><time>2026-05-03T21:23:32.000Z</time></trkpt>
        <trkpt lat="29.5507979" lon="103.3634395"><ele>1484.27</ele><time>2026-05-03T21:23:40.000Z</time></trkpt>
        <trkpt lat="29.5507859" lon="103.3633293"><ele>1485.68</ele><time>2026-05-03T21:23:52.000Z</time></trkpt>
        <trkpt lat="29.5508065" lon="103.3632286"><ele>1485.85</ele><time>2026-05-03T21:24:12.000Z</time></trkpt>
        <trkpt lat="29.5507784" lon="103.3632779"><ele>1483.98</ele><time>2026-05-03T21:24:40.000Z</time></trkpt>
        <trkpt lat="29.5508232" lon="103.3632498"><ele>1486.6</ele><time>2026-05-03T21:25:16.000Z</time></trkpt>
        <trkpt lat="29.5508091" lon="103.3631698"><ele>1491.8</ele><time>2026-05-03T21:25:38.000Z</time></trkpt>
        <trkpt lat="29.5508145" lon="103.3630653"><ele>1498.66</ele><time>2026-05-03T21:26:04.000Z</time></trkpt>
        <trkpt lat="29.5508318" lon="103.3629441"><ele>1501.92</ele><time>2026-05-03T21:27:24.000Z</time></trkpt>
        <trkpt lat="29.5507461" lon="103.3629106"><ele>1509.45</ele><time>2026-05-03T21:27:48.000Z</time></trkpt>
        <trkpt lat="29.5506521" lon="103.3629259"><ele>1516.07</ele><time>2026-05-03T21:28:12.000Z</time></trkpt>
        <trkpt lat="29.550565" lon="103.3628992"><ele>1521.54</ele><time>2026-05-03T21:28:36.000Z</time></trkpt>
        <trkpt lat="29.550577" lon="103.3628192"><ele>1527.32</ele><time>2026-05-03T21:29:18.000Z</time></trkpt>
        <trkpt lat="29.5506244" lon="103.3627128"><ele>1531.42</ele><time>2026-05-03T21:29:40.000Z</time></trkpt>
        <trkpt lat="29.5506724" lon="103.3626057"><ele>1533.7</ele><time>2026-05-03T21:30:04.000Z</time></trkpt>
        <trkpt lat="29.5507044" lon="103.362494"><ele>1535.97</ele><time>2026-05-03T21:30:38.000Z</time></trkpt>
        <trkpt lat="29.5506899" lon="103.3623793"><ele>1540.5</ele><time>2026-05-03T21:31:40.000Z</time></trkpt>
        <trkpt lat="29.5506431" lon="103.36229"><ele>1548.24</ele><time>2026-05-03T21:32:14.000Z</time></trkpt>
        <trkpt lat="29.5505846" lon="103.3622116"><ele>1555.39</ele><time>2026-05-03T21:32:56.000Z</time></trkpt>
        <trkpt lat="29.5505588" lon="103.3621025"><ele>1562.38</ele><time>2026-05-03T21:33:24.000Z</time></trkpt>
        <trkpt lat="29.5505816" lon="103.3619949"><ele>1566.61</ele><time>2026-05-03T21:33:42.000Z</time></trkpt>
        <trkpt lat="29.5506228" lon="103.3618924"><ele>1569.2</ele><time>2026-05-03T21:34:24.000Z</time></trkpt>
        <trkpt lat="29.5505845" lon="103.3618174"><ele>1570.88</ele><time>2026-05-03T21:35:00.000Z</time></trkpt>
        <trkpt lat="29.5505469" lon="103.3617264"><ele>1576.23</ele><time>2026-05-03T21:35:22.000Z</time></trkpt>
        <trkpt lat="29.5504931" lon="103.3616393"><ele>1581.49</ele><time>2026-05-03T21:35:48.000Z</time></trkpt>
        <trkpt lat="29.5504032" lon="103.3616023"><ele>1584.97</ele><time>2026-05-03T21:36:16.000Z</time></trkpt>
        <trkpt lat="29.5504248" lon="103.3615456"><ele>1587.68</ele><time>2026-05-03T21:36:48.000Z</time></trkpt>
        <trkpt lat="29.5503941" lon="103.3614675"><ele>1588.55</ele><time>2026-05-03T21:37:18.000Z</time></trkpt>
        <trkpt lat="29.5503393" lon="103.3613882"><ele>1591.75</ele><time>2026-05-03T21:37:48.000Z</time></trkpt>
        <trkpt lat="29.5502699" lon="103.3613159"><ele>1594.9</ele><time>2026-05-03T21:38:22.000Z</time></trkpt>
        <trkpt lat="29.5501717" lon="103.361302"><ele>1597.87</ele><time>2026-05-03T21:38:44.000Z</time></trkpt>
        <trkpt lat="29.5501018" lon="103.3612285"><ele>1602.97</ele><time>2026-05-03T21:38:58.000Z</time></trkpt>
        <trkpt lat="29.5500086" lon="103.3611744"><ele>1607.34</ele><time>2026-05-03T21:39:10.000Z</time></trkpt>
        <trkpt lat="29.5499422" lon="103.3610877"><ele>1609.85</ele><time>2026-05-03T21:39:26.000Z</time></trkpt>
        <trkpt lat="29.5499196" lon="103.3609851"><ele>1609.38</ele><time>2026-05-03T21:39:38.000Z</time></trkpt>
        <trkpt lat="29.5498831" lon="103.3608785"><ele>1609.79</ele><time>2026-05-03T21:39:54.000Z</time></trkpt>
        <trkpt lat="29.5498759" lon="103.3607692"><ele>1612.34</ele><time>2026-05-03T21:40:08.000Z</time></trkpt>
        <trkpt lat="29.5498965" lon="103.3606543"><ele>1614.19</ele><time>2026-05-03T21:40:20.000Z</time></trkpt>
        <trkpt lat="29.5499441" lon="103.3605415"><ele>1614.1</ele><time>2026-05-03T21:40:32.000Z</time></trkpt>
        <trkpt lat="29.5499954" lon="103.3604339"><ele>1612.15</ele><time>2026-05-03T21:40:44.000Z</time></trkpt>
        <trkpt lat="29.550043" lon="103.3603221"><ele>1610.43</ele><time>2026-05-03T21:40:56.000Z</time></trkpt>
        <trkpt lat="29.5500836" lon="103.3602195"><ele>1608.74</ele><time>2026-05-03T21:41:08.000Z</time></trkpt>
        <trkpt lat="29.5501298" lon="103.3601156"><ele>1607.56</ele><time>2026-05-03T21:41:24.000Z</time></trkpt>
        <trkpt lat="29.5501322" lon="103.3600106"><ele>1608.84</ele><time>2026-05-03T21:41:52.000Z</time></trkpt>
        <trkpt lat="29.5501108" lon="103.3599047"><ele>1609.03</ele><time>2026-05-03T21:42:44.000Z</time></trkpt>
        <trkpt lat="29.5500283" lon="103.35983"><ele>1613.11</ele><time>2026-05-03T21:44:04.000Z</time></trkpt>
        <trkpt lat="29.5499734" lon="103.3597457"><ele>1619.73</ele><time>2026-05-03T21:44:58.000Z</time></trkpt>
        <trkpt lat="29.5499158" lon="103.3596626"><ele>1632.21</ele><time>2026-05-03T21:45:20.000Z</time></trkpt>
        <trkpt lat="29.5498683" lon="103.3595683"><ele>1641.06</ele><time>2026-05-03T21:45:28.000Z</time></trkpt>
        <trkpt lat="29.5498104" lon="103.3594826"><ele>1643.09</ele><time>2026-05-03T21:45:46.000Z</time></trkpt>
        <trkpt lat="29.5498239" lon="103.3593886"><ele>1647.08</ele><time>2026-05-03T21:46:10.000Z</time></trkpt>
        <trkpt lat="29.5498717" lon="103.3592881"><ele>1647.8</ele><time>2026-05-03T21:46:24.000Z</time></trkpt>
        <trkpt lat="29.5499427" lon="103.3592062"><ele>1646.92</ele><time>2026-05-03T21:46:46.000Z</time></trkpt>
        <trkpt lat="29.5500023" lon="103.3591151"><ele>1647.29</ele><time>2026-05-03T21:47:00.000Z</time></trkpt>
        <trkpt lat="29.5500863" lon="103.3590736"><ele>1648.1</ele><time>2026-05-03T21:47:08.000Z</time></trkpt>
        <trkpt lat="29.5501853" lon="103.3590627"><ele>1647.9</ele><time>2026-05-03T21:47:18.000Z</time></trkpt>
        <trkpt lat="29.5502264" lon="103.3589852"><ele>1648.48</ele><time>2026-05-03T21:47:36.000Z</time></trkpt>
        <trkpt lat="29.5501865" lon="103.3589008"><ele>1645.58</ele><time>2026-05-03T21:47:50.000Z</time></trkpt>
        <trkpt lat="29.5501812" lon="103.3587972"><ele>1643.51</ele><time>2026-05-03T21:48:06.000Z</time></trkpt>
        <trkpt lat="29.550192" lon="103.3586873"><ele>1644.17</ele><time>2026-05-03T21:48:28.000Z</time></trkpt>
        <trkpt lat="29.5502091" lon="103.3585809"><ele>1644.01</ele><time>2026-05-03T21:48:50.000Z</time></trkpt>
        <trkpt lat="29.5502505" lon="103.3584875"><ele>1646.47</ele><time>2026-05-03T21:49:24.000Z</time></trkpt>
        <trkpt lat="29.5503189" lon="103.3584116"><ele>1650.77</ele><time>2026-05-03T21:49:56.000Z</time></trkpt>
        <trkpt lat="29.550328" lon="103.3583099"><ele>1657.15</ele><time>2026-05-03T21:50:12.000Z</time></trkpt>
        <trkpt lat="29.5503196" lon="103.3582008"><ele>1660.29</ele><time>2026-05-03T21:50:38.000Z</time></trkpt>
        <trkpt lat="29.5503039" lon="103.3580945"><ele>1663.66</ele><time>2026-05-03T21:50:58.000Z</time></trkpt>
        <trkpt lat="29.5503246" lon="103.3579907"><ele>1666.32</ele><time>2026-05-03T21:51:34.000Z</time></trkpt>
        <trkpt lat="29.5503672" lon="103.3578926"><ele>1669.71</ele><time>2026-05-03T21:51:52.000Z</time></trkpt>
        <trkpt lat="29.5504143" lon="103.3577982"><ele>1671.32</ele><time>2026-05-03T21:52:14.000Z</time></trkpt>
        <trkpt lat="29.5504412" lon="103.3576971"><ele>1672.97</ele><time>2026-05-03T21:52:50.000Z</time></trkpt>
        <trkpt lat="29.5504311" lon="103.3575895"><ele>1676.35</ele><time>2026-05-03T21:53:24.000Z</time></trkpt>
        <trkpt lat="29.5504143" lon="103.3574752"><ele>1677.41</ele><time>2026-05-03T21:53:38.000Z</time></trkpt>
        <trkpt lat="29.5503984" lon="103.3573633"><ele>1678.25</ele><time>2026-05-03T21:53:52.000Z</time></trkpt>
        <trkpt lat="29.5504071" lon="103.3572589"><ele>1678.84</ele><time>2026-05-03T21:54:18.000Z</time></trkpt>
        <trkpt lat="29.5504424" lon="103.3571635"><ele>1680.87</ele><time>2026-05-03T21:54:54.000Z</time></trkpt>
        <trkpt lat="29.5504425" lon="103.3570618"><ele>1685.36</ele><time>2026-05-03T21:55:08.000Z</time></trkpt>
        <trkpt lat="29.5503954" lon="103.3569641"><ele>1687.54</ele><time>2026-05-03T21:55:20.000Z</time></trkpt>
        <trkpt lat="29.5503333" lon="103.3568765"><ele>1688.96</ele><time>2026-05-03T21:55:30.000Z</time></trkpt>
        <trkpt lat="29.5502415" lon="103.3568417"><ele>1690.08</ele><time>2026-05-03T21:56:18.000Z</time></trkpt>
        <trkpt lat="29.5501419" lon="103.3568903"><ele>1693.21</ele><time>2026-05-03T21:56:28.000Z</time></trkpt>
        <trkpt lat="29.5500613" lon="103.3569254"><ele>1695.74</ele><time>2026-05-03T21:56:40.000Z</time></trkpt>
        <trkpt lat="29.5499998" lon="103.3568704"><ele>1699.12</ele><time>2026-05-03T21:56:58.000Z</time></trkpt>
        <trkpt lat="29.5500014" lon="103.3569541"><ele>1700.1</ele><time>2026-05-03T21:58:22.000Z</time></trkpt>
        <trkpt lat="29.549903" lon="103.3569475"><ele>1700.38</ele><time>2026-05-03T21:58:36.000Z</time></trkpt>
        <trkpt lat="29.5498206" lon="103.3568913"><ele>1701.39</ele><time>2026-05-03T21:58:52.000Z</time></trkpt>
        <trkpt lat="29.5497287" lon="103.3568553"><ele>1702.12</ele><time>2026-05-03T21:59:02.000Z</time></trkpt>
        <trkpt lat="29.5496481" lon="103.3568674"><ele>1702.78</ele><time>2026-05-03T21:59:14.000Z</time></trkpt>
        <trkpt lat="29.5496686" lon="103.3569439"><ele>1703.25</ele><time>2026-05-03T21:59:38.000Z</time></trkpt>
        <trkpt lat="29.5496885" lon="103.3570844"><ele>1703.03</ele><time>2026-05-03T22:01:38.000Z</time></trkpt>
        <trkpt lat="29.5496167" lon="103.3571469"><ele>1704.48</ele><time>2026-05-03T22:02:06.000Z</time></trkpt>
        <trkpt lat="29.5496639" lon="103.3570794"><ele>1705.16</ele><time>2026-05-03T22:02:48.000Z</time></trkpt>
        <trkpt lat="29.5496829" lon="103.3569782"><ele>1704.15</ele><time>2026-05-03T22:02:56.000Z</time></trkpt>
        <trkpt lat="29.5496818" lon="103.3569195"><ele>1704.42</ele><time>2026-05-03T22:03:02.000Z</time></trkpt>
        <trkpt lat="29.5497596" lon="103.3568746"><ele>1704.63</ele><time>2026-05-03T22:03:30.000Z</time></trkpt>
        <trkpt lat="29.5498587" lon="103.3568911"><ele>1702.77</ele><time>2026-05-03T22:03:38.000Z</time></trkpt>
        <trkpt lat="29.5499674" lon="103.3569182"><ele>1701.94</ele><time>2026-05-03T22:03:50.000Z</time></trkpt>
        <trkpt lat="29.5500743" lon="103.3569228"><ele>1701.25</ele><time>2026-05-03T22:04:00.000Z</time></trkpt>
        <trkpt lat="29.5499996" lon="103.3568748"><ele>1701</ele><time>2026-05-03T22:05:34.000Z</time></trkpt>
        <trkpt lat="29.5499643" lon="103.3567685"><ele>1702.93</ele><time>2026-05-03T22:05:44.000Z</time></trkpt>
        <trkpt lat="29.5499569" lon="103.3566637"><ele>1703.92</ele><time>2026-05-03T22:05:54.000Z</time></trkpt>
        <trkpt lat="29.5499642" lon="103.3565569"><ele>1704.08</ele><time>2026-05-03T22:06:04.000Z</time></trkpt>
        <trkpt lat="29.5499868" lon="103.3564471"><ele>1703.7</ele><time>2026-05-03T22:06:34.000Z</time></trkpt>
        <trkpt lat="29.5500379" lon="103.3563586"><ele>1701.38</ele><time>2026-05-03T22:06:46.000Z</time></trkpt>
        <trkpt lat="29.5501107" lon="103.3562903"><ele>1700.11</ele><time>2026-05-03T22:06:58.000Z</time></trkpt>
        <trkpt lat="29.5501776" lon="103.3562073"><ele>1698.61</ele><time>2026-05-03T22:07:08.000Z</time></trkpt>
        <trkpt lat="29.5502397" lon="103.3561175"><ele>1695.26</ele><time>2026-05-03T22:07:16.000Z</time></trkpt>
        <trkpt lat="29.550262" lon="103.3560166"><ele>1692.07</ele><time>2026-05-03T22:07:26.000Z</time></trkpt>
        <trkpt lat="29.5502642" lon="103.3559094"><ele>1689.15</ele><time>2026-05-03T22:07:36.000Z</time></trkpt>
        <trkpt lat="29.5503111" lon="103.3558079"><ele>1688.35</ele><time>2026-05-03T22:07:48.000Z</time></trkpt>
        <trkpt lat="29.5503706" lon="103.3557207"><ele>1684.81</ele><time>2026-05-03T22:07:56.000Z</time></trkpt>
        <trkpt lat="29.5504623" lon="103.3556938"><ele>1682.44</ele><time>2026-05-03T22:08:06.000Z</time></trkpt>
        <trkpt lat="29.5505606" lon="103.3557262"><ele>1680.62</ele><time>2026-05-03T22:08:18.000Z</time></trkpt>
        <trkpt lat="29.5506575" lon="103.3557562"><ele>1679.09</ele><time>2026-05-03T22:08:28.000Z</time></trkpt>
        <trkpt lat="29.5507503" lon="103.355781"><ele>1678.46</ele><time>2026-05-03T22:08:38.000Z</time></trkpt>
        <trkpt lat="29.5508416" lon="103.3557463"><ele>1679.49</ele><time>2026-05-03T22:08:50.000Z</time></trkpt>
        <trkpt lat="29.5509336" lon="103.3556881"><ele>1677.5</ele><time>2026-05-03T22:09:02.000Z</time></trkpt>
        <trkpt lat="29.5510204" lon="103.3556387"><ele>1675.7</ele><time>2026-05-03T22:09:12.000Z</time></trkpt>
        <trkpt lat="29.5511223" lon="103.3555993"><ele>1674.41</ele><time>2026-05-03T22:09:24.000Z</time></trkpt>
        <trkpt lat="29.5512126" lon="103.3555387"><ele>1673.29</ele><time>2026-05-03T22:09:36.000Z</time></trkpt>
        <trkpt lat="29.5512793" lon="103.3554546"><ele>1672.41</ele><time>2026-05-03T22:09:48.000Z</time></trkpt>
        <trkpt lat="29.5513623" lon="103.3553936"><ele>1671.95</ele><time>2026-05-03T22:10:02.000Z</time></trkpt>
        <trkpt lat="29.5513925" lon="103.3552985"><ele>1669.41</ele><time>2026-05-03T22:10:12.000Z</time></trkpt>
        <trkpt lat="29.5514098" lon="103.3551937"><ele>1665.72</ele><time>2026-05-03T22:10:26.000Z</time></trkpt>
        <trkpt lat="29.551448" lon="103.3550865"><ele>1661.94</ele><time>2026-05-03T22:11:08.000Z</time></trkpt>
        <trkpt lat="29.5515101" lon="103.3549985"><ele>1657.03</ele><time>2026-05-03T22:11:22.000Z</time></trkpt>
        <trkpt lat="29.5515455" lon="103.3548971"><ele>1654.57</ele><time>2026-05-03T22:11:32.000Z</time></trkpt>
        <trkpt lat="29.5515893" lon="103.3547852"><ele>1651.08</ele><time>2026-05-03T22:11:44.000Z</time></trkpt>
        <trkpt lat="29.5516335" lon="103.3546767"><ele>1648.16</ele><time>2026-05-03T22:11:56.000Z</time></trkpt>
        <trkpt lat="29.5516853" lon="103.3545711"><ele>1647.77</ele><time>2026-05-03T22:12:10.000Z</time></trkpt>
        <trkpt lat="29.5517591" lon="103.3544913"><ele>1647.67</ele><time>2026-05-03T22:12:24.000Z</time></trkpt>
        <trkpt lat="29.551828" lon="103.3544153"><ele>1644.99</ele><time>2026-05-03T22:12:34.000Z</time></trkpt>
        <trkpt lat="29.5518406" lon="103.3543205"><ele>1641.69</ele><time>2026-05-03T22:12:44.000Z</time></trkpt>
        <trkpt lat="29.5518265" lon="103.3542143"><ele>1638.71</ele><time>2026-05-03T22:12:56.000Z</time></trkpt>
        <trkpt lat="29.5518696" lon="103.3541369"><ele>1637.49</ele><time>2026-05-03T22:13:08.000Z</time></trkpt>
        <trkpt lat="29.5519392" lon="103.3540742"><ele>1634.13</ele><time>2026-05-03T22:13:20.000Z</time></trkpt>
        <trkpt lat="29.5519478" lon="103.353977"><ele>1631.72</ele><time>2026-05-03T22:13:28.000Z</time></trkpt>
        <trkpt lat="29.5518827" lon="103.3539004"><ele>1630.96</ele><time>2026-05-03T22:13:40.000Z</time></trkpt>
        <trkpt lat="29.551818" lon="103.3538115"><ele>1630.81</ele><time>2026-05-03T22:13:50.000Z</time></trkpt>
        <trkpt lat="29.5517522" lon="103.3537229"><ele>1630.29</ele><time>2026-05-03T22:14:00.000Z</time></trkpt>
        <trkpt lat="29.5516911" lon="103.353622"><ele>1629.63</ele><time>2026-05-03T22:14:12.000Z</time></trkpt>
        <trkpt lat="29.5516889" lon="103.3535183"><ele>1628.84</ele><time>2026-05-03T22:14:20.000Z</time></trkpt>
        <trkpt lat="29.5516806" lon="103.3534131"><ele>1627.7</ele><time>2026-05-03T22:14:30.000Z</time></trkpt>
        <trkpt lat="29.5517086" lon="103.353305"><ele>1627.37</ele><time>2026-05-03T22:14:44.000Z</time></trkpt>
        <trkpt lat="29.5517437" lon="103.353196"><ele>1624.3</ele><time>2026-05-03T22:14:56.000Z</time></trkpt>
        <trkpt lat="29.5517599" lon="103.3530893"><ele>1622.55</ele><time>2026-05-03T22:15:08.000Z</time></trkpt>
        <trkpt lat="29.5517644" lon="103.3529779"><ele>1618.91</ele><time>2026-05-03T22:15:20.000Z</time></trkpt>
        <trkpt lat="29.5517906" lon="103.3528707"><ele>1615.02</ele><time>2026-05-03T22:15:34.000Z</time></trkpt>
        <trkpt lat="29.5518484" lon="103.3527905"><ele>1612.25</ele><time>2026-05-03T22:16:20.000Z</time></trkpt>
        <trkpt lat="29.5518755" lon="103.3526946"><ele>1610.12</ele><time>2026-05-03T22:16:36.000Z</time></trkpt>
        <trkpt lat="29.5519567" lon="103.3526474"><ele>1608.94</ele><time>2026-05-03T22:16:52.000Z</time></trkpt>
        <trkpt lat="29.5520466" lon="103.3526889"><ele>1603.99</ele><time>2026-05-03T22:17:02.000Z</time></trkpt>
        <trkpt lat="29.55214" lon="103.3527371"><ele>1602.44</ele><time>2026-05-03T22:17:14.000Z</time></trkpt>
        <trkpt lat="29.5522334" lon="103.3527691"><ele>1600.35</ele><time>2026-05-03T22:17:26.000Z</time></trkpt>
        <trkpt lat="29.5522423" lon="103.3526739"><ele>1599.26</ele><time>2026-05-03T22:17:50.000Z</time></trkpt>
        <trkpt lat="29.5522615" lon="103.3525574"><ele>1593.5</ele><time>2026-05-03T22:18:00.000Z</time></trkpt>
        <trkpt lat="29.552269" lon="103.3524356"><ele>1591.44</ele><time>2026-05-03T22:18:16.000Z</time></trkpt>
        <trkpt lat="29.5522496" lon="103.3523229"><ele>1588.22</ele><time>2026-05-03T22:18:26.000Z</time></trkpt>
        <trkpt lat="29.5522927" lon="103.352243"><ele>1586.71</ele><time>2026-05-03T22:18:32.000Z</time></trkpt>
        <trkpt lat="29.5523894" lon="103.3522052"><ele>1586.52</ele><time>2026-05-03T22:20:26.000Z</time></trkpt>
        <trkpt lat="29.5524782" lon="103.3522665"><ele>1579.24</ele><time>2026-05-03T22:20:36.000Z</time></trkpt>
        <trkpt lat="29.5524931" lon="103.3523807"><ele>1574.72</ele><time>2026-05-03T22:20:46.000Z</time></trkpt>
        <trkpt lat="29.5525582" lon="103.3524585"><ele>1574.6</ele><time>2026-05-03T22:21:02.000Z</time></trkpt>
        <trkpt lat="29.5526291" lon="103.3524221"><ele>1578.5</ele><time>2026-05-03T22:21:14.000Z</time></trkpt>
        <trkpt lat="29.5526848" lon="103.3523339"><ele>1580.03</ele><time>2026-05-03T22:21:38.000Z</time></trkpt>
        <trkpt lat="29.5527697" lon="103.3523345"><ele>1580.41</ele><time>2026-05-03T22:21:52.000Z</time></trkpt>
        <trkpt lat="29.5528576" lon="103.3523692"><ele>1583.89</ele><time>2026-05-03T22:22:06.000Z</time></trkpt>
        <trkpt lat="29.5529388" lon="103.3524306"><ele>1586.45</ele><time>2026-05-03T22:22:18.000Z</time></trkpt>
        <trkpt lat="29.5529846" lon="103.3525367"><ele>1589.63</ele><time>2026-05-03T22:22:40.000Z</time></trkpt>
        <trkpt lat="29.5530453" lon="103.352626"><ele>1589.2</ele><time>2026-05-03T22:22:50.000Z</time></trkpt>
        <trkpt lat="29.5531196" lon="103.3527017"><ele>1589.03</ele><time>2026-05-03T22:23:06.000Z</time></trkpt>
        <trkpt lat="29.5532089" lon="103.3527138"><ele>1589.56</ele><time>2026-05-03T22:23:16.000Z</time></trkpt>
        <trkpt lat="29.5533018" lon="103.3527101"><ele>1589.83</ele><time>2026-05-03T22:23:26.000Z</time></trkpt>
        <trkpt lat="29.5533891" lon="103.3526604"><ele>1589.24</ele><time>2026-05-03T22:23:36.000Z</time></trkpt>
        <trkpt lat="29.5534665" lon="103.352591"><ele>1588.58</ele><time>2026-05-03T22:23:46.000Z</time></trkpt>
        <trkpt lat="29.553553" lon="103.3525565"><ele>1585.83</ele><time>2026-05-03T22:24:06.000Z</time></trkpt>
        <trkpt lat="29.5536511" lon="103.3525333"><ele>1582.95</ele><time>2026-05-03T22:24:16.000Z</time></trkpt>
        <trkpt lat="29.5537516" lon="103.3525075"><ele>1582.56</ele><time>2026-05-03T22:24:26.000Z</time></trkpt>
        <trkpt lat="29.5538513" lon="103.3524922"><ele>1582.85</ele><time>2026-05-03T22:24:36.000Z</time></trkpt>
        <trkpt lat="29.5538834" lon="103.3525106"><ele>1583.38</ele><time>2026-05-03T22:24:40.000Z</time></trkpt>
        <trkpt lat="29.5539294" lon="103.3525811"><ele>1584.77</ele><time>2026-05-03T22:24:54.000Z</time></trkpt>
        <trkpt lat="29.5539822" lon="103.3526669"><ele>1586.06</ele><time>2026-05-03T22:25:08.000Z</time></trkpt>
        <trkpt lat="29.5540706" lon="103.3526695"><ele>1587.99</ele><time>2026-05-03T22:25:20.000Z</time></trkpt>
        <trkpt lat="29.5541662" lon="103.3526588"><ele>1588.22</ele><time>2026-05-03T22:25:30.000Z</time></trkpt>
        <trkpt lat="29.5542668" lon="103.3526608"><ele>1588.78</ele><time>2026-05-03T22:25:42.000Z</time></trkpt>
        <trkpt lat="29.5543591" lon="103.3526931"><ele>1589.64</ele><time>2026-05-03T22:25:56.000Z</time></trkpt>
        <trkpt lat="29.5544532" lon="103.3527129"><ele>1590.5</ele><time>2026-05-03T22:26:12.000Z</time></trkpt>
        <trkpt lat="29.5545161" lon="103.352792"><ele>1593.14</ele><time>2026-05-03T22:26:28.000Z</time></trkpt>
        <trkpt lat="29.5545097" lon="103.3529029"><ele>1597.88</ele><time>2026-05-03T22:26:40.000Z</time></trkpt>
        <trkpt lat="29.5545023" lon="103.3530181"><ele>1600.38</ele><time>2026-05-03T22:26:50.000Z</time></trkpt>
        <trkpt lat="29.5544971" lon="103.3531356"><ele>1603.05</ele><time>2026-05-03T22:27:04.000Z</time></trkpt>
        <trkpt lat="29.5545523" lon="103.3532148"><ele>1608.6</ele><time>2026-05-03T22:27:24.000Z</time></trkpt>
        <trkpt lat="29.5546104" lon="103.3533055"><ele>1613.22</ele><time>2026-05-03T22:27:50.000Z</time></trkpt>
        <trkpt lat="29.5546363" lon="103.3534074"><ele>1617.9</ele><time>2026-05-03T22:28:10.000Z</time></trkpt>
        <trkpt lat="29.55463" lon="103.3535149"><ele>1621.78</ele><time>2026-05-03T22:28:32.000Z</time></trkpt>
        <trkpt lat="29.5546456" lon="103.3536253"><ele>1624.57</ele><time>2026-05-03T22:28:48.000Z</time></trkpt>
        <trkpt lat="29.5547252" lon="103.3536796"><ele>1623.47</ele><time>2026-05-03T22:28:56.000Z</time></trkpt>
        <trkpt lat="29.5548228" lon="103.3537188"><ele>1619.37</ele><time>2026-05-03T22:29:08.000Z</time></trkpt>
        <trkpt lat="29.5549217" lon="103.3537313"><ele>1616.55</ele><time>2026-05-03T22:29:22.000Z</time></trkpt>
        <trkpt lat="29.5549873" lon="103.3536516"><ele>1615.74</ele><time>2026-05-03T22:29:34.000Z</time></trkpt>
        <trkpt lat="29.5550435" lon="103.3535446"><ele>1610.3</ele><time>2026-05-03T22:29:54.000Z</time></trkpt>
        <trkpt lat="29.555116" lon="103.3534733"><ele>1604.53</ele><time>2026-05-03T22:30:10.000Z</time></trkpt>
        <trkpt lat="29.5551993" lon="103.3534221"><ele>1599.36</ele><time>2026-05-03T22:30:26.000Z</time></trkpt>
        <trkpt lat="29.5552816" lon="103.3533662"><ele>1596.38</ele><time>2026-05-03T22:30:42.000Z</time></trkpt>
        <trkpt lat="29.5553643" lon="103.3533188"><ele>1592.04</ele><time>2026-05-03T22:30:56.000Z</time></trkpt>
        <trkpt lat="29.5554639" lon="103.3532989"><ele>1588.44</ele><time>2026-05-03T22:31:08.000Z</time></trkpt>
        <trkpt lat="29.5555612" lon="103.3533223"><ele>1586.76</ele><time>2026-05-03T22:31:22.000Z</time></trkpt>
        <trkpt lat="29.5556609" lon="103.3533135"><ele>1586.52</ele><time>2026-05-03T22:31:34.000Z</time></trkpt>
        <trkpt lat="29.5557585" lon="103.3532903"><ele>1586.07</ele><time>2026-05-03T22:31:52.000Z</time></trkpt>
        <trkpt lat="29.5558466" lon="103.3533228"><ele>1584.08</ele><time>2026-05-03T22:32:02.000Z</time></trkpt>
        <trkpt lat="29.5559399" lon="103.3533761"><ele>1583.1</ele><time>2026-05-03T22:32:12.000Z</time></trkpt>
        <trkpt lat="29.5560256" lon="103.3534346"><ele>1582.5</ele><time>2026-05-03T22:32:20.000Z</time></trkpt>
        <trkpt lat="29.5561115" lon="103.353482"><ele>1582.02</ele><time>2026-05-03T22:32:28.000Z</time></trkpt>
        <trkpt lat="29.556205" lon="103.3535125"><ele>1582.3</ele><time>2026-05-03T22:32:40.000Z</time></trkpt>
        <trkpt lat="29.5563065" lon="103.3535282"><ele>1584.54</ele><time>2026-05-03T22:33:02.000Z</time></trkpt>
        <trkpt lat="29.5563789" lon="103.3534721"><ele>1588.15</ele><time>2026-05-03T22:33:16.000Z</time></trkpt>
        <trkpt lat="29.5564349" lon="103.3533716"><ele>1590.49</ele><time>2026-05-03T22:33:28.000Z</time></trkpt>
        <trkpt lat="29.5564755" lon="103.3532657"><ele>1590.1</ele><time>2026-05-03T22:33:38.000Z</time></trkpt>
        <trkpt lat="29.5565382" lon="103.3531726"><ele>1588.69</ele><time>2026-05-03T22:33:50.000Z</time></trkpt>
        <trkpt lat="29.5566021" lon="103.3530906"><ele>1586.47</ele><time>2026-05-03T22:34:02.000Z</time></trkpt>
        <trkpt lat="29.5566677" lon="103.3530167"><ele>1584.93</ele><time>2026-05-03T22:34:14.000Z</time></trkpt>
        <trkpt lat="29.5567483" lon="103.3529661"><ele>1583</ele><time>2026-05-03T22:34:26.000Z</time></trkpt>
        <trkpt lat="29.5568146" lon="103.3528867"><ele>1581.48</ele><time>2026-05-03T22:34:42.000Z</time></trkpt>
        <trkpt lat="29.5568752" lon="103.3528011"><ele>1578.78</ele><time>2026-05-03T22:34:56.000Z</time></trkpt>
        <trkpt lat="29.5569367" lon="103.3527109"><ele>1574.64</ele><time>2026-05-03T22:35:08.000Z</time></trkpt>
        <trkpt lat="29.5569801" lon="103.3526095"><ele>1572.86</ele><time>2026-05-03T22:35:18.000Z</time></trkpt>
        <trkpt lat="29.5569238" lon="103.3525587"><ele>1573.01</ele><time>2026-05-03T22:35:42.000Z</time></trkpt>
        <trkpt lat="29.5568773" lon="103.3525924"><ele>1562.25</ele><time>2026-05-03T22:35:52.000Z</time></trkpt>
        <trkpt lat="29.5569504" lon="103.3524709"><ele>1555.53</ele><time>2026-05-03T22:36:28.000Z</time></trkpt>
        <trkpt lat="29.5569251" lon="103.3524956"><ele>1559.01</ele><time>2026-05-03T22:36:32.000Z</time></trkpt>
        <trkpt lat="29.5568777" lon="103.3525831"><ele>1557.55</ele><time>2026-05-03T22:37:12.000Z</time></trkpt>
        <trkpt lat="29.556922" lon="103.3525555"><ele>1560.92</ele><time>2026-05-03T22:37:28.000Z</time></trkpt>
        <trkpt lat="29.5570316" lon="103.352585"><ele>1563.78</ele><time>2026-05-03T22:37:46.000Z</time></trkpt>
        <trkpt lat="29.557012" lon="103.3527364"><ele>1568.63</ele><time>2026-05-03T22:37:52.000Z</time></trkpt>
        <trkpt lat="29.5569554" lon="103.3527133"><ele>1570.69</ele><time>2026-05-03T22:38:00.000Z</time></trkpt>
        <trkpt lat="29.556959" lon="103.3526211"><ele>1568.83</ele><time>2026-05-03T22:38:10.000Z</time></trkpt>
        <trkpt lat="29.557033" lon="103.3525548"><ele>1568.14</ele><time>2026-05-03T22:38:22.000Z</time></trkpt>
        <trkpt lat="29.5570561" lon="103.3525442"><ele>1568.07</ele><time>2026-05-03T22:38:24.000Z</time></trkpt>
        <trkpt lat="29.5571422" lon="103.3524938"><ele>1568.06</ele><time>2026-05-03T22:40:18.000Z</time></trkpt>
        <trkpt lat="29.557224" lon="103.3524213"><ele>1568.84</ele><time>2026-05-03T22:40:30.000Z</time></trkpt>
        <trkpt lat="29.557254" lon="103.3523548"><ele>1569.03</ele><time>2026-05-03T22:40:46.000Z</time></trkpt>
        <trkpt lat="29.5572926" lon="103.3522665"><ele>1566</ele><time>2026-05-03T22:41:08.000Z</time></trkpt>
        <trkpt lat="29.5573668" lon="103.3521965"><ele>1563.82</ele><time>2026-05-03T22:41:22.000Z</time></trkpt>
        <trkpt lat="29.55745" lon="103.3521239"><ele>1560.3</ele><time>2026-05-03T22:41:34.000Z</time></trkpt>
        <trkpt lat="29.5575203" lon="103.3520367"><ele>1558.6</ele><time>2026-05-03T22:41:48.000Z</time></trkpt>
        <trkpt lat="29.557549" lon="103.3520042"><ele>1556.94</ele><time>2026-05-03T22:41:54.000Z</time></trkpt>
        <trkpt lat="29.5575586" lon="103.3519153"><ele>1555.31</ele><time>2026-05-03T22:42:16.000Z</time></trkpt>
        <trkpt lat="29.5575673" lon="103.3517939"><ele>1554.3</ele><time>2026-05-03T22:42:26.000Z</time></trkpt>
        <trkpt lat="29.5576029" lon="103.351686"><ele>1553.06</ele><time>2026-05-03T22:42:36.000Z</time></trkpt>
        <trkpt lat="29.5576437" lon="103.3515844"><ele>1550.06</ele><time>2026-05-03T22:42:56.000Z</time></trkpt>
        <trkpt lat="29.5576497" lon="103.3514668"><ele>1544.98</ele><time>2026-05-03T22:43:12.000Z</time></trkpt>
        <trkpt lat="29.5576459" lon="103.3513949"><ele>1543.41</ele><time>2026-05-03T22:43:22.000Z</time></trkpt>
        <trkpt lat="29.5577099" lon="103.3513878"><ele>1541.69</ele><time>2026-05-03T22:44:08.000Z</time></trkpt>
        <trkpt lat="29.5577984" lon="103.3514272"><ele>1536.83</ele><time>2026-05-03T22:44:18.000Z</time></trkpt>
        <trkpt lat="29.5579021" lon="103.3514651"><ele>1536.41</ele><time>2026-05-03T22:44:38.000Z</time></trkpt>
        <trkpt lat="29.558001" lon="103.3515045"><ele>1537.39</ele><time>2026-05-03T22:44:54.000Z</time></trkpt>
        <trkpt lat="29.5581008" lon="103.3515377"><ele>1539.12</ele><time>2026-05-03T22:45:12.000Z</time></trkpt>
        <trkpt lat="29.5582058" lon="103.351553"><ele>1540.52</ele><time>2026-05-03T22:45:24.000Z</time></trkpt>
        <trkpt lat="29.5582847" lon="103.3514877"><ele>1542.22</ele><time>2026-05-03T22:45:34.000Z</time></trkpt>
        <trkpt lat="29.558379" lon="103.3514351"><ele>1541.17</ele><time>2026-05-03T22:45:46.000Z</time></trkpt>
        <trkpt lat="29.5584737" lon="103.3513949"><ele>1540.38</ele><time>2026-05-03T22:46:00.000Z</time></trkpt>
        <trkpt lat="29.5585662" lon="103.351353"><ele>1539.46</ele><time>2026-05-03T22:46:14.000Z</time></trkpt>
        <trkpt lat="29.5586458" lon="103.3512873"><ele>1537.88</ele><time>2026-05-03T22:46:32.000Z</time></trkpt>
        <trkpt lat="29.5587244" lon="103.3512104"><ele>1537.41</ele><time>2026-05-03T22:46:44.000Z</time></trkpt>
        <trkpt lat="29.5588116" lon="103.3511646"><ele>1536.1</ele><time>2026-05-03T22:46:56.000Z</time></trkpt>
        <trkpt lat="29.5589068" lon="103.3511053"><ele>1534.9</ele><time>2026-05-03T22:47:10.000Z</time></trkpt>
        <trkpt lat="29.5589807" lon="103.351035"><ele>1532.32</ele><time>2026-05-03T22:47:22.000Z</time></trkpt>
        <trkpt lat="29.5590251" lon="103.3509341"><ele>1528.88</ele><time>2026-05-03T22:47:38.000Z</time></trkpt>
        <trkpt lat="29.559078" lon="103.3508478"><ele>1526.33</ele><time>2026-05-03T22:47:50.000Z</time></trkpt>
        <trkpt lat="29.559156" lon="103.3507923"><ele>1526.22</ele><time>2026-05-03T22:48:02.000Z</time></trkpt>
        <trkpt lat="29.5592486" lon="103.35076"><ele>1527.53</ele><time>2026-05-03T22:48:12.000Z</time></trkpt>
        <trkpt lat="29.5593433" lon="103.3507413"><ele>1528.88</ele><time>2026-05-03T22:48:22.000Z</time></trkpt>
        <trkpt lat="29.559436" lon="103.3507046"><ele>1527.78</ele><time>2026-05-03T22:48:34.000Z</time></trkpt>
        <trkpt lat="29.5594944" lon="103.3506271"><ele>1526.06</ele><time>2026-05-03T22:48:48.000Z</time></trkpt>
        <trkpt lat="29.5595756" lon="103.3505858"><ele>1525.15</ele><time>2026-05-03T22:49:02.000Z</time></trkpt>
        <trkpt lat="29.5596377" lon="103.3505398"><ele>1523.6</ele><time>2026-05-03T22:49:12.000Z</time></trkpt>
        <trkpt lat="29.5596969" lon="103.3504602"><ele>1523.57</ele><time>2026-05-03T22:53:28.000Z</time></trkpt>
        <trkpt lat="29.5597779" lon="103.3504034"><ele>1527.53</ele><time>2026-05-03T22:53:48.000Z</time></trkpt>
        <trkpt lat="29.5598691" lon="103.3503721"><ele>1527.5</ele><time>2026-05-03T22:54:18.000Z</time></trkpt>
        <trkpt lat="29.5599566" lon="103.3503344"><ele>1528.87</ele><time>2026-05-03T22:55:12.000Z</time></trkpt>
        <trkpt lat="29.5600433" lon="103.3503533"><ele>1536.76</ele><time>2026-05-03T22:55:50.000Z</time></trkpt>
        <trkpt lat="29.5601166" lon="103.3504174"><ele>1545.06</ele><time>2026-05-03T22:56:16.000Z</time></trkpt>
        <trkpt lat="29.5601742" lon="103.350509"><ele>1550.53</ele><time>2026-05-03T22:56:44.000Z</time></trkpt>
        <trkpt lat="29.5602327" lon="103.3506051"><ele>1558.03</ele><time>2026-05-03T22:57:42.000Z</time></trkpt>
        <trkpt lat="29.5602848" lon="103.3506981"><ele>1562.17</ele><time>2026-05-03T22:58:36.000Z</time></trkpt>
        <trkpt lat="29.5602688" lon="103.3507973"><ele>1566.87</ele><time>2026-05-03T22:59:26.000Z</time></trkpt>
        <trkpt lat="29.5602811" lon="103.3509074"><ele>1572.81</ele><time>2026-05-03T22:59:44.000Z</time></trkpt>
        <trkpt lat="29.5602658" lon="103.3510146"><ele>1576.74</ele><time>2026-05-03T23:00:18.000Z</time></trkpt>
        <trkpt lat="29.5602472" lon="103.3511202"><ele>1585.35</ele><time>2026-05-03T23:00:46.000Z</time></trkpt>
        <trkpt lat="29.560308" lon="103.3511417"><ele>1590.67</ele><time>2026-05-03T23:01:10.000Z</time></trkpt>
        <trkpt lat="29.5604179" lon="103.3511321"><ele>1592.6</ele><time>2026-05-03T23:02:02.000Z</time></trkpt>
        <trkpt lat="29.5605136" lon="103.3510747"><ele>1594.33</ele><time>2026-05-03T23:02:28.000Z</time></trkpt>
        <trkpt lat="29.5606116" lon="103.3510629"><ele>1598.57</ele><time>2026-05-03T23:03:20.000Z</time></trkpt>
        <trkpt lat="29.5605835" lon="103.3511142"><ele>1604.83</ele><time>2026-05-03T23:03:48.000Z</time></trkpt>
        <trkpt lat="29.5606294" lon="103.3511178"><ele>1610.72</ele><time>2026-05-03T23:04:16.000Z</time></trkpt>
        <trkpt lat="29.5605848" lon="103.3512"><ele>1614.69</ele><time>2026-05-03T23:05:38.000Z</time></trkpt>
        <trkpt lat="29.5606742" lon="103.3512413"><ele>1620.18</ele><time>2026-05-03T23:06:14.000Z</time></trkpt>
        <trkpt lat="29.5607616" lon="103.3512768"><ele>1623.87</ele><time>2026-05-03T23:06:46.000Z</time></trkpt>
        <trkpt lat="29.56068" lon="103.3513284"><ele>1625.6</ele><time>2026-05-03T23:07:54.000Z</time></trkpt>
        <trkpt lat="29.5606167" lon="103.3514118"><ele>1633.22</ele><time>2026-05-03T23:08:16.000Z</time></trkpt>
        <trkpt lat="29.5605456" lon="103.3514835"><ele>1638.13</ele><time>2026-05-03T23:08:32.000Z</time></trkpt>
        <trkpt lat="29.5605152" lon="103.3515784"><ele>1642.77</ele><time>2026-05-03T23:08:58.000Z</time></trkpt>
        <trkpt lat="29.5605713" lon="103.3516505"><ele>1645.2</ele><time>2026-05-03T23:09:26.000Z</time></trkpt>
        <trkpt lat="29.5607056" lon="103.3516799"><ele>1648.98</ele><time>2026-05-03T23:10:54.000Z</time></trkpt>
        <trkpt lat="29.5607751" lon="103.3516089"><ele>1650.68</ele><time>2026-05-03T23:11:12.000Z</time></trkpt>
        <trkpt lat="29.5608604" lon="103.3515524"><ele>1651.49</ele><time>2026-05-03T23:12:56.000Z</time></trkpt>
        <trkpt lat="29.5609471" lon="103.3515174"><ele>1657.82</ele><time>2026-05-03T23:13:16.000Z</time></trkpt>
        <trkpt lat="29.56103" lon="103.3515532"><ele>1662.28</ele><time>2026-05-03T23:13:32.000Z</time></trkpt>
        <trkpt lat="29.561119" lon="103.3515649"><ele>1665.6</ele><time>2026-05-03T23:13:52.000Z</time></trkpt>
        <trkpt lat="29.5612114" lon="103.3516018"><ele>1668.19</ele><time>2026-05-03T23:14:06.000Z</time></trkpt>
        <trkpt lat="29.5613028" lon="103.3516274"><ele>1668.35</ele><time>2026-05-03T23:14:16.000Z</time></trkpt>
        <trkpt lat="29.5613938" lon="103.35165"><ele>1667.79</ele><time>2026-05-03T23:14:54.000Z</time></trkpt>
        <trkpt lat="29.5614797" lon="103.3516927"><ele>1668.48</ele><time>2026-05-03T23:15:42.000Z</time></trkpt>
        <trkpt lat="29.5614676" lon="103.3517822"><ele>1675.43</ele><time>2026-05-03T23:16:34.000Z</time></trkpt>
        <trkpt lat="29.5614835" lon="103.3518877"><ele>1681.38</ele><time>2026-05-03T23:17:54.000Z</time></trkpt>
        <trkpt lat="29.5615745" lon="103.3519467"><ele>1688.79</ele><time>2026-05-03T23:18:50.000Z</time></trkpt>
        <trkpt lat="29.5616731" lon="103.3519603"><ele>1694.35</ele><time>2026-05-03T23:19:08.000Z</time></trkpt>
        <trkpt lat="29.5617342" lon="103.3520317"><ele>1697.05</ele><time>2026-05-03T23:19:34.000Z</time></trkpt>
        <trkpt lat="29.5618131" lon="103.3520861"><ele>1699.23</ele><time>2026-05-03T23:20:04.000Z</time></trkpt>
        <trkpt lat="29.5618661" lon="103.3521745"><ele>1701.08</ele><time>2026-05-03T23:21:24.000Z</time></trkpt>
        <trkpt lat="29.5619537" lon="103.3522086"><ele>1705.97</ele><time>2026-05-03T23:22:16.000Z</time></trkpt>
        <trkpt lat="29.5620462" lon="103.3521844"><ele>1714.3</ele><time>2026-05-03T23:23:18.000Z</time></trkpt>
        <trkpt lat="29.5621371" lon="103.3522085"><ele>1722.06</ele><time>2026-05-03T23:23:34.000Z</time></trkpt>
        <trkpt lat="29.56223" lon="103.3521831"><ele>1724.6</ele><time>2026-05-03T23:23:58.000Z</time></trkpt>
        <trkpt lat="29.5623193" lon="103.352197"><ele>1728.89</ele><time>2026-05-03T23:24:36.000Z</time></trkpt>
        <trkpt lat="29.5623923" lon="103.3521455"><ele>1733.75</ele><time>2026-05-03T23:24:58.000Z</time></trkpt>
        <trkpt lat="29.5624661" lon="103.3521723"><ele>1739.77</ele><time>2026-05-03T23:25:40.000Z</time></trkpt>
        <trkpt lat="29.5625433" lon="103.352221"><ele>1745.17</ele><time>2026-05-03T23:26:22.000Z</time></trkpt>
        <trkpt lat="29.5626242" lon="103.3521935"><ele>1751.08</ele><time>2026-05-03T23:27:04.000Z</time></trkpt>
        <trkpt lat="29.5625962" lon="103.3522358"><ele>1757.47</ele><time>2026-05-03T23:27:24.000Z</time></trkpt>
        <trkpt lat="29.5626403" lon="103.3522246"><ele>1762.43</ele><time>2026-05-03T23:27:48.000Z</time></trkpt>
        <trkpt lat="29.5627203" lon="103.3521847"><ele>1765.04</ele><time>2026-05-03T23:28:08.000Z</time></trkpt>
        <trkpt lat="29.5627529" lon="103.3520917"><ele>1768.86</ele><time>2026-05-03T23:28:20.000Z</time></trkpt>
        <trkpt lat="29.5627197" lon="103.3519886"><ele>1772.58</ele><time>2026-05-03T23:28:32.000Z</time></trkpt>
        <trkpt lat="29.5626552" lon="103.3518975"><ele>1773.57</ele><time>2026-05-03T23:29:04.000Z</time></trkpt>
        <trkpt lat="29.5625865" lon="103.3518114"><ele>1774.08</ele><time>2026-05-03T23:29:16.000Z</time></trkpt>
        <trkpt lat="29.5625416" lon="103.351705"><ele>1774.43</ele><time>2026-05-03T23:29:40.000Z</time></trkpt>
        <trkpt lat="29.562533" lon="103.3516741"><ele>1774.92</ele><time>2026-05-03T23:29:44.000Z</time></trkpt>
        <trkpt lat="29.5626002" lon="103.3516508"><ele>1774.49</ele><time>2026-05-03T23:30:24.000Z</time></trkpt>
        <trkpt lat="29.5626641" lon="103.351584"><ele>1774.34</ele><time>2026-05-03T23:31:02.000Z</time></trkpt>
        <trkpt lat="29.5627324" lon="103.3515015"><ele>1776.12</ele><time>2026-05-03T23:31:28.000Z</time></trkpt>
        <trkpt lat="29.5627397" lon="103.3513929"><ele>1775.4</ele><time>2026-05-03T23:31:42.000Z</time></trkpt>
        <trkpt lat="29.5627646" lon="103.3512835"><ele>1776.43</ele><time>2026-05-03T23:31:58.000Z</time></trkpt>
        <trkpt lat="29.562815" lon="103.3511953"><ele>1778.24</ele><time>2026-05-03T23:32:18.000Z</time></trkpt>
        <trkpt lat="29.5628822" lon="103.3511231"><ele>1780.42</ele><time>2026-05-03T23:32:38.000Z</time></trkpt>
        <trkpt lat="29.5628866" lon="103.35103"><ele>1783.48</ele><time>2026-05-03T23:33:00.000Z</time></trkpt>
        <trkpt lat="29.562873" lon="103.3509211"><ele>1786.04</ele><time>2026-05-03T23:33:20.000Z</time></trkpt>
        <trkpt lat="29.562868" lon="103.3508127"><ele>1789.96</ele><time>2026-05-03T23:33:40.000Z</time></trkpt>
        <trkpt lat="29.5629156" lon="103.3507311"><ele>1791.84</ele><time>2026-05-03T23:34:36.000Z</time></trkpt>
        <trkpt lat="29.5628529" lon="103.3506705"><ele>1789.82</ele><time>2026-05-03T23:41:48.000Z</time></trkpt>
        <trkpt lat="29.5628441" lon="103.3505577"><ele>1789.87</ele><time>2026-05-03T23:41:56.000Z</time></trkpt>
        <trkpt lat="29.5628428" lon="103.3505112"><ele>1789.93</ele><time>2026-05-03T23:42:02.000Z</time></trkpt>
        <trkpt lat="29.5628465" lon="103.3504143"><ele>1788.66</ele><time>2026-05-03T23:42:30.000Z</time></trkpt>
        <trkpt lat="29.5628697" lon="103.3503021"><ele>1785.97</ele><time>2026-05-03T23:42:42.000Z</time></trkpt>
        <trkpt lat="29.5629136" lon="103.3501919"><ele>1782.89</ele><time>2026-05-03T23:42:52.000Z</time></trkpt>
        <trkpt lat="29.5629302" lon="103.3500798"><ele>1780.57</ele><time>2026-05-03T23:43:00.000Z</time></trkpt>
        <trkpt lat="29.5629349" lon="103.3499577"><ele>1779.26</ele><time>2026-05-03T23:43:10.000Z</time></trkpt>
        <trkpt lat="29.5629366" lon="103.349834"><ele>1777.44</ele><time>2026-05-03T23:43:20.000Z</time></trkpt>
        <trkpt lat="29.5629533" lon="103.3497102"><ele>1776.99</ele><time>2026-05-03T23:43:32.000Z</time></trkpt>
        <trkpt lat="29.5629915" lon="103.3496026"><ele>1778.19</ele><time>2026-05-03T23:43:44.000Z</time></trkpt>
        <trkpt lat="29.5630057" lon="103.3495832"><ele>1778.96</ele><time>2026-05-03T23:43:46.000Z</time></trkpt>
        <trkpt lat="29.5630536" lon="103.3495134"><ele>1778.4</ele><time>2026-05-03T23:44:08.000Z</time></trkpt>
        <trkpt lat="29.5631121" lon="103.3494275"><ele>1778.84</ele><time>2026-05-03T23:44:16.000Z</time></trkpt>
        <trkpt lat="29.5631563" lon="103.3493314"><ele>1779.66</ele><time>2026-05-03T23:44:26.000Z</time></trkpt>
        <trkpt lat="29.5631802" lon="103.3492876"><ele>1779.79</ele><time>2026-05-03T23:44:30.000Z</time></trkpt>
        <trkpt lat="29.5632221" lon="103.3492077"><ele>1780.39</ele><time>2026-05-03T23:44:42.000Z</time></trkpt>
        <trkpt lat="29.5632506" lon="103.3491022"><ele>1781.45</ele><time>2026-05-03T23:44:54.000Z</time></trkpt>
        <trkpt lat="29.5632651" lon="103.3489789"><ele>1782.54</ele><time>2026-05-03T23:45:06.000Z</time></trkpt>
        <trkpt lat="29.5632793" lon="103.3488671"><ele>1783.88</ele><time>2026-05-03T23:45:18.000Z</time></trkpt>
        <trkpt lat="29.5632795" lon="103.3487547"><ele>1785.93</ele><time>2026-05-03T23:45:30.000Z</time></trkpt>
        <trkpt lat="29.5632637" lon="103.3486468"><ele>1788</ele><time>2026-05-03T23:45:44.000Z</time></trkpt>
        <trkpt lat="29.5632651" lon="103.3485288"><ele>1788.38</ele><time>2026-05-03T23:45:56.000Z</time></trkpt>
        <trkpt lat="29.5632915" lon="103.3484177"><ele>1788.13</ele><time>2026-05-03T23:46:06.000Z</time></trkpt>
        <trkpt lat="29.5633142" lon="103.3483588"><ele>1787.92</ele><time>2026-05-03T23:46:12.000Z</time></trkpt>
        <trkpt lat="29.5633716" lon="103.3482948"><ele>1788.39</ele><time>2026-05-03T23:46:40.000Z</time></trkpt>
        <trkpt lat="29.5634425" lon="103.3482222"><ele>1789.9</ele><time>2026-05-03T23:46:52.000Z</time></trkpt>
        <trkpt lat="29.5634798" lon="103.3481235"><ele>1792.13</ele><time>2026-05-03T23:47:00.000Z</time></trkpt>
        <trkpt lat="29.5635147" lon="103.3480248"><ele>1791.9</ele><time>2026-05-03T23:47:08.000Z</time></trkpt>
        <trkpt lat="29.5635781" lon="103.3479312"><ele>1790.36</ele><time>2026-05-03T23:47:18.000Z</time></trkpt>
        <trkpt lat="29.5636009" lon="103.3478223"><ele>1789.57</ele><time>2026-05-03T23:47:34.000Z</time></trkpt>
        <trkpt lat="29.5635871" lon="103.3477053"><ele>1789.33</ele><time>2026-05-03T23:47:50.000Z</time></trkpt>
        <trkpt lat="29.5635863" lon="103.347588"><ele>1791.31</ele><time>2026-05-03T23:48:02.000Z</time></trkpt>
        <trkpt lat="29.5635706" lon="103.3474763"><ele>1791.35</ele><time>2026-05-03T23:48:12.000Z</time></trkpt>
        <trkpt lat="29.5635291" lon="103.3473678"><ele>1790.78</ele><time>2026-05-03T23:48:22.000Z</time></trkpt>
        <trkpt lat="29.5634772" lon="103.347259"><ele>1789.89</ele><time>2026-05-03T23:48:36.000Z</time></trkpt>
        <trkpt lat="29.5634023" lon="103.3471765"><ele>1787.65</ele><time>2026-05-03T23:48:46.000Z</time></trkpt>
        <trkpt lat="29.563307" lon="103.3471339"><ele>1787.45</ele><time>2026-05-03T23:48:58.000Z</time></trkpt>
        <trkpt lat="29.5632082" lon="103.3471348"><ele>1786.08</ele><time>2026-05-03T23:49:14.000Z</time></trkpt>
        <trkpt lat="29.5632132" lon="103.3470531"><ele>1783.05</ele><time>2026-05-03T23:50:50.000Z</time></trkpt>
        <trkpt lat="29.5631595" lon="103.3469699"><ele>1781.6</ele><time>2026-05-03T23:50:58.000Z</time></trkpt>
        <trkpt lat="29.5631437" lon="103.3469314"><ele>1780.12</ele><time>2026-05-03T23:51:02.000Z</time></trkpt>
        <trkpt lat="29.5630936" lon="103.3468502"><ele>1780.2</ele><time>2026-05-03T23:51:24.000Z</time></trkpt>
        <trkpt lat="29.5630307" lon="103.3467698"><ele>1780.88</ele><time>2026-05-03T23:51:34.000Z</time></trkpt>
        <trkpt lat="29.5629536" lon="103.3466742"><ele>1779.93</ele><time>2026-05-03T23:51:44.000Z</time></trkpt>
        <trkpt lat="29.5628905" lon="103.3465835"><ele>1780.14</ele><time>2026-05-03T23:51:52.000Z</time></trkpt>
        <trkpt lat="29.5628049" lon="103.3465127"><ele>1780.81</ele><time>2026-05-03T23:52:02.000Z</time></trkpt>
        <trkpt lat="29.5627164" lon="103.3464678"><ele>1780.39</ele><time>2026-05-03T23:52:10.000Z</time></trkpt>
        <trkpt lat="29.5626304" lon="103.3464088"><ele>1778.07</ele><time>2026-05-03T23:52:18.000Z</time></trkpt>
        <trkpt lat="29.5625537" lon="103.3463458"><ele>1776.9</ele><time>2026-05-03T23:52:26.000Z</time></trkpt>
        <trkpt lat="29.5624863" lon="103.3462708"><ele>1776.68</ele><time>2026-05-03T23:52:34.000Z</time></trkpt>
        <trkpt lat="29.5624223" lon="103.3461886"><ele>1775.73</ele><time>2026-05-03T23:52:42.000Z</time></trkpt>
        <trkpt lat="29.5623539" lon="103.3461057"><ele>1775.2</ele><time>2026-05-03T23:52:50.000Z</time></trkpt>
        <trkpt lat="29.5623004" lon="103.3460135"><ele>1773.63</ele><time>2026-05-03T23:52:58.000Z</time></trkpt>
        <trkpt lat="29.5622637" lon="103.3459146"><ele>1773.74</ele><time>2026-05-03T23:53:06.000Z</time></trkpt>
        <trkpt lat="29.5622208" lon="103.3458191"><ele>1772.9</ele><time>2026-05-03T23:53:14.000Z</time></trkpt>
        <trkpt lat="29.562167" lon="103.3457295"><ele>1772.22</ele><time>2026-05-03T23:53:22.000Z</time></trkpt>
        <trkpt lat="29.5621032" lon="103.3456418"><ele>1772.38</ele><time>2026-05-03T23:53:32.000Z</time></trkpt>
        <trkpt lat="29.5620118" lon="103.3456028"><ele>1772.95</ele><time>2026-05-03T23:53:42.000Z</time></trkpt>
        <trkpt lat="29.5619169" lon="103.3455909"><ele>1771.94</ele><time>2026-05-03T23:53:52.000Z</time></trkpt>
        <trkpt lat="29.5618218" lon="103.3456104"><ele>1770.76</ele><time>2026-05-03T23:54:02.000Z</time></trkpt>
        <trkpt lat="29.5617173" lon="103.3456132"><ele>1769.62</ele><time>2026-05-03T23:54:14.000Z</time></trkpt>
        <trkpt lat="29.5616234" lon="103.3455695"><ele>1769.6</ele><time>2026-05-03T23:54:24.000Z</time></trkpt>
        <trkpt lat="29.561543" lon="103.3454944"><ele>1770.08</ele><time>2026-05-03T23:54:36.000Z</time></trkpt>
        <trkpt lat="29.5614914" lon="103.3454008"><ele>1770.75</ele><time>2026-05-03T23:54:46.000Z</time></trkpt>
        <trkpt lat="29.5614701" lon="103.345333"><ele>1772.84</ele><time>2026-05-03T23:54:52.000Z</time></trkpt>
        <trkpt lat="29.5614263" lon="103.3452421"><ele>1773.84</ele><time>2026-05-03T23:55:54.000Z</time></trkpt>
        <trkpt lat="29.5613493" lon="103.3451777"><ele>1774.44</ele><time>2026-05-03T23:56:14.000Z</time></trkpt>
        <trkpt lat="29.5612684" lon="103.3451326"><ele>1777.5</ele><time>2026-05-03T23:57:14.000Z</time></trkpt>
        <trkpt lat="29.5612062" lon="103.345058"><ele>1782.68</ele><time>2026-05-03T23:58:14.000Z</time></trkpt>
        <trkpt lat="29.5611181" lon="103.3450077"><ele>1788.89</ele><time>2026-05-03T23:59:40.000Z</time></trkpt>
        <trkpt lat="29.5610304" lon="103.3450418"><ele>1794.49</ele><time>2026-05-04T00:00:50.000Z</time></trkpt>
        <trkpt lat="29.5609436" lon="103.345075"><ele>1799.35</ele><time>2026-05-04T00:01:22.000Z</time></trkpt>
        <trkpt lat="29.5608926" lon="103.3449982"><ele>1804.96</ele><time>2026-05-04T00:02:14.000Z</time></trkpt>
        <trkpt lat="29.5608217" lon="103.3449222"><ele>1813.8</ele><time>2026-05-04T00:03:20.000Z</time></trkpt>
        <trkpt lat="29.5607793" lon="103.3448211"><ele>1821.59</ele><time>2026-05-04T00:04:56.000Z</time></trkpt>
        <trkpt lat="29.5607605" lon="103.3447194"><ele>1830.98</ele><time>2026-05-04T00:05:28.000Z</time></trkpt>
        <trkpt lat="29.5606807" lon="103.3446728"><ele>1838.59</ele><time>2026-05-04T00:06:28.000Z</time></trkpt>
        <trkpt lat="29.5605941" lon="103.3446393"><ele>1845.34</ele><time>2026-05-04T00:06:54.000Z</time></trkpt>
        <trkpt lat="29.5605074" lon="103.3446022"><ele>1851.17</ele><time>2026-05-04T00:07:34.000Z</time></trkpt>
        <trkpt lat="29.5604246" lon="103.3445499"><ele>1857.21</ele><time>2026-05-04T00:08:06.000Z</time></trkpt>
        <trkpt lat="29.5603429" lon="103.3444977"><ele>1862.08</ele><time>2026-05-04T00:08:44.000Z</time></trkpt>
        <trkpt lat="29.5602664" lon="103.3444356"><ele>1867.37</ele><time>2026-05-04T00:09:28.000Z</time></trkpt>
        <trkpt lat="29.5602093" lon="103.3443503"><ele>1873.37</ele><time>2026-05-04T00:10:04.000Z</time></trkpt>
        <trkpt lat="29.5602136" lon="103.3442457"><ele>1877.82</ele><time>2026-05-04T00:10:42.000Z</time></trkpt>
        <trkpt lat="29.5601538" lon="103.3441948"><ele>1882.77</ele><time>2026-05-04T00:11:36.000Z</time></trkpt>
        <trkpt lat="29.5601297" lon="103.3441023"><ele>1887.5</ele><time>2026-05-04T00:12:22.000Z</time></trkpt>
        <trkpt lat="29.5601099" lon="103.3440008"><ele>1892.59</ele><time>2026-05-04T00:13:22.000Z</time></trkpt>
        <trkpt lat="29.5601634" lon="103.3439033"><ele>1898.55</ele><time>2026-05-04T00:14:30.000Z</time></trkpt>
        <trkpt lat="29.5600813" lon="103.3438567"><ele>1905.91</ele><time>2026-05-04T00:15:06.000Z</time></trkpt>
        <trkpt lat="29.5600079" lon="103.3437913"><ele>1912.29</ele><time>2026-05-04T00:15:50.000Z</time></trkpt>
        <trkpt lat="29.5599313" lon="103.3437357"><ele>1917.57</ele><time>2026-05-04T00:16:36.000Z</time></trkpt>
        <trkpt lat="29.5598532" lon="103.3436834"><ele>1922.14</ele><time>2026-05-04T00:17:30.000Z</time></trkpt>
        <trkpt lat="29.5597911" lon="103.3436031"><ele>1927.15</ele><time>2026-05-04T00:18:00.000Z</time></trkpt>
        <trkpt lat="29.559747" lon="103.3435077"><ele>1931.79</ele><time>2026-05-04T00:18:40.000Z</time></trkpt>
        <trkpt lat="29.559698" lon="103.3435466"><ele>1935.61</ele><time>2026-05-04T00:19:26.000Z</time></trkpt>
        <trkpt lat="29.5596166" lon="103.343552"><ele>1939.04</ele><time>2026-05-04T00:20:12.000Z</time></trkpt>
        <trkpt lat="29.5595332" lon="103.3435177"><ele>1943.78</ele><time>2026-05-04T00:20:44.000Z</time></trkpt>
        <trkpt lat="29.5594724" lon="103.3435746"><ele>1949.36</ele><time>2026-05-04T00:21:24.000Z</time></trkpt>
        <trkpt lat="29.5593812" lon="103.343603"><ele>1952.53</ele><time>2026-05-04T00:22:24.000Z</time></trkpt>
        <trkpt lat="29.5592944" lon="103.3436487"><ele>1956.95</ele><time>2026-05-04T00:23:44.000Z</time></trkpt>
        <trkpt lat="29.5592825" lon="103.3437523"><ele>1960.04</ele><time>2026-05-04T00:24:20.000Z</time></trkpt>
        <trkpt lat="29.5591903" lon="103.3437304"><ele>1964.48</ele><time>2026-05-04T00:25:22.000Z</time></trkpt>
        <trkpt lat="29.5591173" lon="103.3436698"><ele>1971.33</ele><time>2026-05-04T00:26:18.000Z</time></trkpt>
        <trkpt lat="29.5590345" lon="103.3436243"><ele>1976.58</ele><time>2026-05-04T00:27:04.000Z</time></trkpt>
        <trkpt lat="29.5590061" lon="103.3436956"><ele>1981.8</ele><time>2026-05-04T00:27:30.000Z</time></trkpt>
        <trkpt lat="29.558936" lon="103.3437403"><ele>1987.18</ele><time>2026-05-04T00:28:14.000Z</time></trkpt>
        <trkpt lat="29.558918" lon="103.3438376"><ele>1991.86</ele><time>2026-05-04T00:28:26.000Z</time></trkpt>
        <trkpt lat="29.5589304" lon="103.3439531"><ele>1995.06</ele><time>2026-05-04T00:28:38.000Z</time></trkpt>
        <trkpt lat="29.558957" lon="103.3440719"><ele>1997.43</ele><time>2026-05-04T00:28:52.000Z</time></trkpt>
        <trkpt lat="29.5589313" lon="103.3441784"><ele>1998.95</ele><time>2026-05-04T00:30:06.000Z</time></trkpt>
        <trkpt lat="29.558911" lon="103.3442851"><ele>2002.07</ele><time>2026-05-04T00:30:36.000Z</time></trkpt>
        <trkpt lat="29.5588459" lon="103.3442089"><ele>2007.33</ele><time>2026-05-04T00:33:04.000Z</time></trkpt>
        <trkpt lat="29.558749" lon="103.3442044"><ele>2011.78</ele><time>2026-05-04T00:33:14.000Z</time></trkpt>
        <trkpt lat="29.5586558" lon="103.3442089"><ele>2013.85</ele><time>2026-05-04T00:33:32.000Z</time></trkpt>
        <trkpt lat="29.5585726" lon="103.3441682"><ele>2014.34</ele><time>2026-05-04T00:34:12.000Z</time></trkpt>
        <trkpt lat="29.5584872" lon="103.3441248"><ele>2019.02</ele><time>2026-05-04T00:34:42.000Z</time></trkpt>
        <trkpt lat="29.5584039" lon="103.3440766"><ele>2021.84</ele><time>2026-05-04T00:35:36.000Z</time></trkpt>
        <trkpt lat="29.5583141" lon="103.3440697"><ele>2026.15</ele><time>2026-05-04T00:35:54.000Z</time></trkpt>
        <trkpt lat="29.5582175" lon="103.3440352"><ele>2028.28</ele><time>2026-05-04T00:36:10.000Z</time></trkpt>
        <trkpt lat="29.5581225" lon="103.3440706"><ele>2030.83</ele><time>2026-05-04T00:36:17.000Z</time></trkpt>
        <trkpt lat="29.5580895" lon="103.3440827"><ele>2034.35</ele><time>2026-05-04T00:36:21.000Z</time></trkpt>
        <trkpt lat="29.5576923" lon="103.3440041"><ele>2035.68</ele><time>2026-05-04T00:37:58.000Z</time></trkpt>
        <trkpt lat="29.5576455" lon="103.3440231"><ele>2041.26</ele><time>2026-05-04T00:38:03.000Z</time></trkpt>
        <trkpt lat="29.5576266" lon="103.3439335"><ele>2046.19</ele><time>2026-05-04T00:39:01.000Z</time></trkpt>
        <trkpt lat="29.5575757" lon="103.3438413"><ele>2043.53</ele><time>2026-05-04T00:39:15.000Z</time></trkpt>
        <trkpt lat="29.5575564" lon="103.343755"><ele>2039.83</ele><time>2026-05-04T00:39:23.000Z</time></trkpt>
        <trkpt lat="29.557488" lon="103.3436995"><ele>2037.21</ele><time>2026-05-04T00:40:05.000Z</time></trkpt>
        <trkpt lat="29.5574499" lon="103.3436116"><ele>2035.75</ele><time>2026-05-04T00:40:29.000Z</time></trkpt>
        <trkpt lat="29.5574372" lon="103.3435874"><ele>2034.73</ele><time>2026-05-04T00:40:31.000Z</time></trkpt>
        <trkpt lat="29.5573477" lon="103.3435787"><ele>2034.12</ele><time>2026-05-04T00:41:27.000Z</time></trkpt>
        <trkpt lat="29.557258" lon="103.3436205"><ele>2034.95</ele><time>2026-05-04T00:41:57.000Z</time></trkpt>
        <trkpt lat="29.557164" lon="103.343608"><ele>2036.87</ele><time>2026-05-04T00:42:39.000Z</time></trkpt>
        <trkpt lat="29.5570945" lon="103.3436697"><ele>2041.6</ele><time>2026-05-04T00:43:19.000Z</time></trkpt>
        <trkpt lat="29.5570065" lon="103.3436906"><ele>2045.05</ele><time>2026-05-04T00:43:43.000Z</time></trkpt>
        <trkpt lat="29.5569144" lon="103.3437206"><ele>2050.45</ele><time>2026-05-04T00:43:55.000Z</time></trkpt>
        <trkpt lat="29.556816" lon="103.3437347"><ele>2053.86</ele><time>2026-05-04T00:44:33.000Z</time></trkpt>
        <trkpt lat="29.5567207" lon="103.343732"><ele>2058.01</ele><time>2026-05-04T00:44:59.000Z</time></trkpt>
        <trkpt lat="29.5566426" lon="103.3437807"><ele>2062.35</ele><time>2026-05-04T00:45:29.000Z</time></trkpt>
        <trkpt lat="29.5565742" lon="103.3438562"><ele>2064.98</ele><time>2026-05-04T00:46:09.000Z</time></trkpt>
        <trkpt lat="29.556572" lon="103.3439595"><ele>2068.29</ele><time>2026-05-04T00:46:49.000Z</time></trkpt>
        <trkpt lat="29.5565536" lon="103.3440648"><ele>2074.36</ele><time>2026-05-04T00:47:39.000Z</time></trkpt>
        <trkpt lat="29.5565117" lon="103.3441591"><ele>2080.42</ele><time>2026-05-04T00:48:01.000Z</time></trkpt>
        <trkpt lat="29.5564356" lon="103.3442202"><ele>2084.57</ele><time>2026-05-04T00:48:35.000Z</time></trkpt>
        <trkpt lat="29.5563387" lon="103.3442555"><ele>2089.73</ele><time>2026-05-04T00:49:01.000Z</time></trkpt>
        <trkpt lat="29.5562731" lon="103.3443275"><ele>2094.29</ele><time>2026-05-04T00:49:29.000Z</time></trkpt>
        <trkpt lat="29.5562197" lon="103.3444155"><ele>2097.96</ele><time>2026-05-04T00:49:59.000Z</time></trkpt>
        <trkpt lat="29.5561547" lon="103.3444894"><ele>2101.13</ele><time>2026-05-04T00:51:37.000Z</time></trkpt>
        <trkpt lat="29.556099" lon="103.3445781"><ele>2103.28</ele><time>2026-05-04T00:51:59.000Z</time></trkpt>
        <trkpt lat="29.5560394" lon="103.3446587"><ele>2105.51</ele><time>2026-05-04T00:52:21.000Z</time></trkpt>
        <trkpt lat="29.5560067" lon="103.3447591"><ele>2108.2</ele><time>2026-05-04T00:52:43.000Z</time></trkpt>
        <trkpt lat="29.5559502" lon="103.3448476"><ele>2110.03</ele><time>2026-05-04T00:53:31.000Z</time></trkpt>
        <trkpt lat="29.5559007" lon="103.3449481"><ele>2115.78</ele><time>2026-05-04T00:53:57.000Z</time></trkpt>
        <trkpt lat="29.5558236" lon="103.3449999"><ele>2118.5</ele><time>2026-05-04T00:54:19.000Z</time></trkpt>
        <trkpt lat="29.5557353" lon="103.3450247"><ele>2121.27</ele><time>2026-05-04T00:54:47.000Z</time></trkpt>
        <trkpt lat="29.5556601" lon="103.344963"><ele>2123.23</ele><time>2026-05-04T00:55:17.000Z</time></trkpt>
        <trkpt lat="29.5555772" lon="103.3449741"><ele>2126.06</ele><time>2026-05-04T00:56:03.000Z</time></trkpt>
        <trkpt lat="29.5555414" lon="103.3450543"><ele>2129.97</ele><time>2026-05-04T00:56:39.000Z</time></trkpt>
        <trkpt lat="29.5554841" lon="103.3451329"><ele>2132.57</ele><time>2026-05-04T00:57:37.000Z</time></trkpt>
        <trkpt lat="29.5554116" lon="103.3451149"><ele>2138.9</ele><time>2026-05-04T00:58:09.000Z</time></trkpt>
        <trkpt lat="29.5553467" lon="103.3450411"><ele>2145.57</ele><time>2026-05-04T00:58:35.000Z</time></trkpt>
        <trkpt lat="29.5552806" lon="103.3450652"><ele>2148.97</ele><time>2026-05-04T00:59:05.000Z</time></trkpt>
        <trkpt lat="29.5552003" lon="103.3451068"><ele>2154.96</ele><time>2026-05-04T00:59:19.000Z</time></trkpt>
        <trkpt lat="29.5551182" lon="103.3451707"><ele>2158.35</ele><time>2026-05-04T00:59:33.000Z</time></trkpt>
        <trkpt lat="29.555029" lon="103.3452013"><ele>2160.98</ele><time>2026-05-04T00:59:51.000Z</time></trkpt>
        <trkpt lat="29.5549362" lon="103.3452385"><ele>2163.28</ele><time>2026-05-04T01:00:13.000Z</time></trkpt>
        <trkpt lat="29.554853" lon="103.3452887"><ele>2162.34</ele><time>2026-05-04T01:00:45.000Z</time></trkpt>
        <trkpt lat="29.5547818" lon="103.345359"><ele>2164.04</ele><time>2026-05-04T01:01:27.000Z</time></trkpt>
        <trkpt lat="29.554703" lon="103.3454117"><ele>2165.39</ele><time>2026-05-04T01:02:11.000Z</time></trkpt>
        <trkpt lat="29.5546128" lon="103.3454444"><ele>2169.22</ele><time>2026-05-04T01:02:47.000Z</time></trkpt>
        <trkpt lat="29.5545207" lon="103.3454453"><ele>2172.87</ele><time>2026-05-04T01:03:25.000Z</time></trkpt>
        <trkpt lat="29.5544271" lon="103.3454491"><ele>2178.4</ele><time>2026-05-04T01:04:09.000Z</time></trkpt>
        <trkpt lat="29.5543414" lon="103.3454789"><ele>2182.81</ele><time>2026-05-04T01:04:45.000Z</time></trkpt>
        <trkpt lat="29.5542494" lon="103.3454944"><ele>2187.65</ele><time>2026-05-04T01:05:29.000Z</time></trkpt>
        <trkpt lat="29.5541608" lon="103.3455209"><ele>2192.92</ele><time>2026-05-04T01:06:09.000Z</time></trkpt>
        <trkpt lat="29.5540705" lon="103.3455176"><ele>2198.18</ele><time>2026-05-04T01:06:33.000Z</time></trkpt>
        <trkpt lat="29.5539817" lon="103.3454777"><ele>2201.69</ele><time>2026-05-04T01:06:51.000Z</time></trkpt>
        <trkpt lat="29.5539104" lon="103.3454004"><ele>2206.04</ele><time>2026-05-04T01:07:09.000Z</time></trkpt>
        <trkpt lat="29.5538216" lon="103.3453518"><ele>2209.74</ele><time>2026-05-04T01:07:31.000Z</time></trkpt>
        <trkpt lat="29.5537296" lon="103.3453169"><ele>2214.23</ele><time>2026-05-04T01:07:57.000Z</time></trkpt>
        <trkpt lat="29.5536347" lon="103.3453203"><ele>2217.91</ele><time>2026-05-04T01:08:15.000Z</time></trkpt>
        <trkpt lat="29.5535377" lon="103.3453209"><ele>2221.98</ele><time>2026-05-04T01:08:35.000Z</time></trkpt>
        <trkpt lat="29.5534384" lon="103.3453407"><ele>2224.81</ele><time>2026-05-04T01:08:51.000Z</time></trkpt>
        <trkpt lat="29.5533428" lon="103.3453788"><ele>2226.22</ele><time>2026-05-04T01:09:09.000Z</time></trkpt>
        <trkpt lat="29.5532482" lon="103.3453986"><ele>2226.97</ele><time>2026-05-04T01:09:27.000Z</time></trkpt>
        <trkpt lat="29.5531477" lon="103.345412"><ele>2228.46</ele><time>2026-05-04T01:09:41.000Z</time></trkpt>
        <trkpt lat="29.5530553" lon="103.3454284"><ele>2229.13</ele><time>2026-05-04T01:09:53.000Z</time></trkpt>
        <trkpt lat="29.5529644" lon="103.3454517"><ele>2230.1</ele><time>2026-05-04T01:10:05.000Z</time></trkpt>
        <trkpt lat="29.5528738" lon="103.3454677"><ele>2231.76</ele><time>2026-05-04T01:10:19.000Z</time></trkpt>
        <trkpt lat="29.5527776" lon="103.345458"><ele>2233.12</ele><time>2026-05-04T01:10:33.000Z</time></trkpt>
        <trkpt lat="29.5526854" lon="103.3454453"><ele>2234.27</ele><time>2026-05-04T01:10:45.000Z</time></trkpt>
        <trkpt lat="29.5525974" lon="103.3454711"><ele>2234.83</ele><time>2026-05-04T01:10:57.000Z</time></trkpt>
        <trkpt lat="29.5525024" lon="103.3454741"><ele>2235.36</ele><time>2026-05-04T01:11:09.000Z</time></trkpt>
        <trkpt lat="29.55243" lon="103.3454187"><ele>2238.38</ele><time>2026-05-04T01:11:23.000Z</time></trkpt>
        <trkpt lat="29.5524435" lon="103.3453273"><ele>2236.52</ele><time>2026-05-04T01:11:33.000Z</time></trkpt>
        <trkpt lat="29.5524334" lon="103.3452171"><ele>2235.06</ele><time>2026-05-04T01:11:47.000Z</time></trkpt>
        <trkpt lat="29.5523615" lon="103.3451662"><ele>2236.12</ele><time>2026-05-04T01:12:05.000Z</time></trkpt>
        <trkpt lat="29.5522607" lon="103.3451439"><ele>2235.52</ele><time>2026-05-04T01:12:19.000Z</time></trkpt>
        <trkpt lat="29.552154" lon="103.3451124"><ele>2235.41</ele><time>2026-05-04T01:12:31.000Z</time></trkpt>
        <trkpt lat="29.5520545" lon="103.345066"><ele>2234.48</ele><time>2026-05-04T01:12:43.000Z</time></trkpt>
        <trkpt lat="29.552035" lon="103.344975"><ele>2234.96</ele><time>2026-05-04T01:12:53.000Z</time></trkpt>
        <trkpt lat="29.5520089" lon="103.3448656"><ele>2234.7</ele><time>2026-05-04T01:13:05.000Z</time></trkpt>
        <trkpt lat="29.5519591" lon="103.3447704"><ele>2234.98</ele><time>2026-05-04T01:13:15.000Z</time></trkpt>
        <trkpt lat="29.5519093" lon="103.3446795"><ele>2235.74</ele><time>2026-05-04T01:13:29.000Z</time></trkpt>
        <trkpt lat="29.5518547" lon="103.344605"><ele>2234.58</ele><time>2026-05-04T01:13:41.000Z</time></trkpt>
        <trkpt lat="29.5517958" lon="103.3445207"><ele>2231.37</ele><time>2026-05-04T01:14:03.000Z</time></trkpt>
        <trkpt lat="29.551715" lon="103.3444473"><ele>2230.15</ele><time>2026-05-04T01:14:17.000Z</time></trkpt>
        <trkpt lat="29.5516512" lon="103.3443642"><ele>2228.83</ele><time>2026-05-04T01:14:29.000Z</time></trkpt>
        <trkpt lat="29.5515734" lon="103.3442864"><ele>2228.7</ele><time>2026-05-04T01:14:41.000Z</time></trkpt>
        <trkpt lat="29.5514808" lon="103.3442485"><ele>2229.25</ele><time>2026-05-04T01:14:53.000Z</time></trkpt>
        <trkpt lat="29.5513953" lon="103.3442084"><ele>2228.11</ele><time>2026-05-04T01:15:09.000Z</time></trkpt>
        <trkpt lat="29.551301" lon="103.3441997"><ele>2228.6</ele><time>2026-05-04T01:15:21.000Z</time></trkpt>
        <trkpt lat="29.5512014" lon="103.3442144"><ele>2230.16</ele><time>2026-05-04T01:15:31.000Z</time></trkpt>
        <trkpt lat="29.5511101" lon="103.3442031"><ele>2231.68</ele><time>2026-05-04T01:15:43.000Z</time></trkpt>
        <trkpt lat="29.55102" lon="103.3441609"><ele>2229.42</ele><time>2026-05-04T01:15:55.000Z</time></trkpt>
        <trkpt lat="29.5509285" lon="103.3441461"><ele>2227.67</ele><time>2026-05-04T01:16:05.000Z</time></trkpt>
        <trkpt lat="29.5508296" lon="103.3441178"><ele>2226.72</ele><time>2026-05-04T01:16:17.000Z</time></trkpt>
        <trkpt lat="29.5507787" lon="103.3440323"><ele>2228.41</ele><time>2026-05-04T01:16:29.000Z</time></trkpt>
        <trkpt lat="29.5507249" lon="103.3439472"><ele>2224.77</ele><time>2026-05-04T01:16:43.000Z</time></trkpt>
        <trkpt lat="29.5506374" lon="103.3438997"><ele>2224.12</ele><time>2026-05-04T01:17:01.000Z</time></trkpt>
        <trkpt lat="29.5505694" lon="103.3438273"><ele>2224.68</ele><time>2026-05-04T01:17:13.000Z</time></trkpt>
        <trkpt lat="29.5505123" lon="103.3437453"><ele>2224.49</ele><time>2026-05-04T01:17:23.000Z</time></trkpt>
        <trkpt lat="29.5504449" lon="103.3436647"><ele>2224.33</ele><time>2026-05-04T01:17:33.000Z</time></trkpt>
        <trkpt lat="29.5503804" lon="103.3435862"><ele>2224.66</ele><time>2026-05-04T01:17:45.000Z</time></trkpt>
        <trkpt lat="29.5503349" lon="103.3434945"><ele>2225.42</ele><time>2026-05-04T01:17:57.000Z</time></trkpt>
        <trkpt lat="29.5502953" lon="103.3433862"><ele>2226.75</ele><time>2026-05-04T01:18:37.000Z</time></trkpt>
        <trkpt lat="29.5502421" lon="103.3432918"><ele>2227.47</ele><time>2026-05-04T01:19:15.000Z</time></trkpt>
        <trkpt lat="29.5501707" lon="103.3432161"><ele>2228.26</ele><time>2026-05-04T01:19:25.000Z</time></trkpt>
        <trkpt lat="29.5500906" lon="103.3431471"><ele>2228.71</ele><time>2026-05-04T01:19:43.000Z</time></trkpt>
        <trkpt lat="29.5500224" lon="103.343072"><ele>2229.05</ele><time>2026-05-04T01:20:07.000Z</time></trkpt>
        <trkpt lat="29.549968" lon="103.3429772"><ele>2229.79</ele><time>2026-05-04T01:20:29.000Z</time></trkpt>
        <trkpt lat="29.5499193" lon="103.3428765"><ele>2230.87</ele><time>2026-05-04T01:20:41.000Z</time></trkpt>
        <trkpt lat="29.5498839" lon="103.3427735"><ele>2231.11</ele><time>2026-05-04T01:20:53.000Z</time></trkpt>
        <trkpt lat="29.5498312" lon="103.3426742"><ele>2231.16</ele><time>2026-05-04T01:21:07.000Z</time></trkpt>
        <trkpt lat="29.5497647" lon="103.342574"><ele>2230.73</ele><time>2026-05-04T01:21:19.000Z</time></trkpt>
        <trkpt lat="29.5496884" lon="103.3424935"><ele>2231.38</ele><time>2026-05-04T01:21:29.000Z</time></trkpt>
        <trkpt lat="29.5496164" lon="103.3424089"><ele>2231.42</ele><time>2026-05-04T01:21:39.000Z</time></trkpt>
        <trkpt lat="29.5495436" lon="103.3423278"><ele>2231.56</ele><time>2026-05-04T01:21:53.000Z</time></trkpt>
        <trkpt lat="29.5494727" lon="103.3422394"><ele>2232.55</ele><time>2026-05-04T01:22:07.000Z</time></trkpt>
        <trkpt lat="29.549427" lon="103.3421383"><ele>2233.54</ele><time>2026-05-04T01:22:19.000Z</time></trkpt>
        <trkpt lat="29.5494088" lon="103.3420323"><ele>2234.13</ele><time>2026-05-04T01:22:33.000Z</time></trkpt>
        <trkpt lat="29.5493824" lon="103.3419313"><ele>2235.79</ele><time>2026-05-04T01:23:03.000Z</time></trkpt>
        <trkpt lat="29.5493801" lon="103.3418369"><ele>2236.29</ele><time>2026-05-04T01:23:13.000Z</time></trkpt>
        <trkpt lat="29.5493455" lon="103.3417475"><ele>2237.64</ele><time>2026-05-04T01:23:51.000Z</time></trkpt>
        <trkpt lat="29.5493064" lon="103.3416484"><ele>2238.33</ele><time>2026-05-04T01:24:03.000Z</time></trkpt>
        <trkpt lat="29.5492753" lon="103.3415362"><ele>2238.17</ele><time>2026-05-04T01:24:19.000Z</time></trkpt>
        <trkpt lat="29.5492504" lon="103.3414302"><ele>2237.89</ele><time>2026-05-04T01:24:37.000Z</time></trkpt>
        <trkpt lat="29.5491721" lon="103.3413518"><ele>2239.93</ele><time>2026-05-04T01:25:39.000Z</time></trkpt>
        <trkpt lat="29.5491332" lon="103.3413264"><ele>2240.24</ele><time>2026-05-04T01:25:45.000Z</time></trkpt>
        <trkpt lat="29.5491385" lon="103.3412304"><ele>2240.27</ele><time>2026-05-04T01:26:03.000Z</time></trkpt>
        <trkpt lat="29.5490701" lon="103.3411934"><ele>2242.24</ele><time>2026-05-04T01:26:19.000Z</time></trkpt>
        <trkpt lat="29.5489754" lon="103.3411571"><ele>2243.08</ele><time>2026-05-04T01:26:45.000Z</time></trkpt>
        <trkpt lat="29.5488769" lon="103.3411448"><ele>2245.36</ele><time>2026-05-04T01:27:07.000Z</time></trkpt>
        <trkpt lat="29.5487784" lon="103.3411553"><ele>2250.58</ele><time>2026-05-04T01:27:45.000Z</time></trkpt>
        <trkpt lat="29.5486823" lon="103.3411634"><ele>2254.45</ele><time>2026-05-04T01:31:25.000Z</time></trkpt>
        <trkpt lat="29.5485899" lon="103.3411899"><ele>2257.24</ele><time>2026-05-04T01:31:47.000Z</time></trkpt>
        <trkpt lat="29.5485049" lon="103.3412312"><ele>2261.57</ele><time>2026-05-04T01:32:11.000Z</time></trkpt>
        <trkpt lat="29.5484184" lon="103.3412667"><ele>2264.07</ele><time>2026-05-04T01:32:33.000Z</time></trkpt>
        <trkpt lat="29.5483484" lon="103.3412191"><ele>2265.5</ele><time>2026-05-04T01:33:03.000Z</time></trkpt>
        <trkpt lat="29.5482656" lon="103.3411947"><ele>2271.22</ele><time>2026-05-04T01:33:25.000Z</time></trkpt>
        <trkpt lat="29.5481713" lon="103.3411824"><ele>2275.22</ele><time>2026-05-04T01:33:45.000Z</time></trkpt>
        <trkpt lat="29.5480753" lon="103.3411917"><ele>2278.61</ele><time>2026-05-04T01:34:01.000Z</time></trkpt>
        <trkpt lat="29.5479814" lon="103.3411958"><ele>2280.79</ele><time>2026-05-04T01:34:13.000Z</time></trkpt>
        <trkpt lat="29.5479039" lon="103.3411499"><ele>2282.65</ele><time>2026-05-04T01:34:25.000Z</time></trkpt>
        <trkpt lat="29.5478141" lon="103.3411104"><ele>2284.68</ele><time>2026-05-04T01:34:41.000Z</time></trkpt>
        <trkpt lat="29.5477201" lon="103.3410757"><ele>2285.04</ele><time>2026-05-04T01:34:53.000Z</time></trkpt>
        <trkpt lat="29.5476216" lon="103.3410657"><ele>2285.32</ele><time>2026-05-04T01:35:07.000Z</time></trkpt>
        <trkpt lat="29.5475235" lon="103.3410486"><ele>2284.81</ele><time>2026-05-04T01:35:23.000Z</time></trkpt>
        <trkpt lat="29.5474287" lon="103.3410207"><ele>2286.14</ele><time>2026-05-04T01:35:45.000Z</time></trkpt>
        <trkpt lat="29.5473542" lon="103.340961"><ele>2288.03</ele><time>2026-05-04T01:36:13.000Z</time></trkpt>
        <trkpt lat="29.547363" lon="103.3408686"><ele>2289.61</ele><time>2026-05-04T01:36:41.000Z</time></trkpt>
        <trkpt lat="29.5473495" lon="103.3407653"><ele>2291.04</ele><time>2026-05-04T01:36:55.000Z</time></trkpt>
        <trkpt lat="29.5473108" lon="103.3406662"><ele>2293.76</ele><time>2026-05-04T01:37:09.000Z</time></trkpt>
        <trkpt lat="29.5472689" lon="103.3405681"><ele>2296.77</ele><time>2026-05-04T01:37:27.000Z</time></trkpt>
        <trkpt lat="29.547248" lon="103.3404633"><ele>2299.51</ele><time>2026-05-04T01:37:49.000Z</time></trkpt>
        <trkpt lat="29.5472254" lon="103.340361"><ele>2302.23</ele><time>2026-05-04T01:38:27.000Z</time></trkpt>
        <trkpt lat="29.5471813" lon="103.3402706"><ele>2305.01</ele><time>2026-05-04T01:39:01.000Z</time></trkpt>
        <trkpt lat="29.5471464" lon="103.3401739"><ele>2308.54</ele><time>2026-05-04T01:39:41.000Z</time></trkpt>
        <trkpt lat="29.5471315" lon="103.3400724"><ele>2312.23</ele><time>2026-05-04T01:40:29.000Z</time></trkpt>
        <trkpt lat="29.5471061" lon="103.3399736"><ele>2317.43</ele><time>2026-05-04T01:40:59.000Z</time></trkpt>
        <trkpt lat="29.547121" lon="103.339875"><ele>2321.97</ele><time>2026-05-04T01:41:39.000Z</time></trkpt>
        <trkpt lat="29.547115" lon="103.3397644"><ele>2327.06</ele><time>2026-05-04T01:42:17.000Z</time></trkpt>
        <trkpt lat="29.5470717" lon="103.3396648"><ele>2332.33</ele><time>2026-05-04T01:42:41.000Z</time></trkpt>
        <trkpt lat="29.5469938" lon="103.3396068"><ele>2335.48</ele><time>2026-05-04T01:43:13.000Z</time></trkpt>
        <trkpt lat="29.5469018" lon="103.339574"><ele>2339.36</ele><time>2026-05-04T01:43:29.000Z</time></trkpt>
        <trkpt lat="29.5468655" lon="103.3394853"><ele>2342.04</ele><time>2026-05-04T01:44:13.000Z</time></trkpt>
        <trkpt lat="29.5468923" lon="103.3393818"><ele>2344.79</ele><time>2026-05-04T01:45:09.000Z</time></trkpt>
        <trkpt lat="29.5468369" lon="103.3393414"><ele>2350.16</ele><time>2026-05-04T01:45:37.000Z</time></trkpt>
        <trkpt lat="29.5466242" lon="103.3393937"><ele>2355.05</ele><time>2026-05-04T01:47:07.000Z</time></trkpt>
        <trkpt lat="29.5467457" lon="103.3392296"><ele>2359.85</ele><time>2026-05-04T01:47:17.000Z</time></trkpt>
        <trkpt lat="29.5467178" lon="103.3391264"><ele>2365.08</ele><time>2026-05-04T01:47:49.000Z</time></trkpt>
        <trkpt lat="29.5466541" lon="103.3390496"><ele>2369.36</ele><time>2026-05-04T01:48:09.000Z</time></trkpt>
        <trkpt lat="29.5465884" lon="103.3389665"><ele>2373.54</ele><time>2026-05-04T01:48:25.000Z</time></trkpt>
        <trkpt lat="29.5465298" lon="103.3388765"><ele>2376.74</ele><time>2026-05-04T01:49:01.000Z</time></trkpt>
        <trkpt lat="29.5464636" lon="103.3388"><ele>2379.71</ele><time>2026-05-04T01:49:29.000Z</time></trkpt>
        <trkpt lat="29.5463888" lon="103.3387355"><ele>2383.98</ele><time>2026-05-04T01:50:05.000Z</time></trkpt>
        <trkpt lat="29.546304" lon="103.3386845"><ele>2387.95</ele><time>2026-05-04T01:50:49.000Z</time></trkpt>
        <trkpt lat="29.5462737" lon="103.3385941"><ele>2391.66</ele><time>2026-05-04T01:51:09.000Z</time></trkpt>
        <trkpt lat="29.54624" lon="103.3384916"><ele>2395.61</ele><time>2026-05-04T01:51:25.000Z</time></trkpt>
        <trkpt lat="29.5461992" lon="103.3383888"><ele>2399.39</ele><time>2026-05-04T01:51:53.000Z</time></trkpt>
        <trkpt lat="29.5461921" lon="103.3382797"><ele>2402.62</ele><time>2026-05-04T01:52:13.000Z</time></trkpt>
        <trkpt lat="29.5461996" lon="103.3381705"><ele>2405.16</ele><time>2026-05-04T01:52:35.000Z</time></trkpt>
        <trkpt lat="29.5462315" lon="103.338066"><ele>2407.83</ele><time>2026-05-04T01:53:13.000Z</time></trkpt>
        <trkpt lat="29.5462897" lon="103.3379704"><ele>2411.81</ele><time>2026-05-04T01:53:27.000Z</time></trkpt>
        <trkpt lat="29.5463579" lon="103.3378867"><ele>2414.83</ele><time>2026-05-04T01:53:39.000Z</time></trkpt>
        <trkpt lat="29.546414" lon="103.337794"><ele>2416.11</ele><time>2026-05-04T01:53:51.000Z</time></trkpt>
        <trkpt lat="29.5464581" lon="103.3376926"><ele>2417.22</ele><time>2026-05-04T01:54:03.000Z</time></trkpt>
        <trkpt lat="29.5464893" lon="103.337582"><ele>2418.62</ele><time>2026-05-04T01:54:17.000Z</time></trkpt>
        <trkpt lat="29.5465384" lon="103.3374809"><ele>2419.42</ele><time>2026-05-04T01:54:29.000Z</time></trkpt>
        <trkpt lat="29.5465767" lon="103.3374342"><ele>2419.17</ele><time>2026-05-04T01:54:35.000Z</time></trkpt>
        <trkpt lat="29.5466169" lon="103.337343"><ele>2419.27</ele><time>2026-05-04T01:54:49.000Z</time></trkpt>
        <trkpt lat="29.5466545" lon="103.3372468"><ele>2420.28</ele><time>2026-05-04T01:54:59.000Z</time></trkpt>
        <trkpt lat="29.5466448" lon="103.3371392"><ele>2420.75</ele><time>2026-05-04T01:55:13.000Z</time></trkpt>
        <trkpt lat="29.5465961" lon="103.3370433"><ele>2422.04</ele><time>2026-05-04T01:55:27.000Z</time></trkpt>
        <trkpt lat="29.5465364" lon="103.3369504"><ele>2422.99</ele><time>2026-05-04T01:55:39.000Z</time></trkpt>
        <trkpt lat="29.546501" lon="103.3368439"><ele>2423.36</ele><time>2026-05-04T01:55:49.000Z</time></trkpt>
        <trkpt lat="29.546463" lon="103.3367452"><ele>2424.39</ele><time>2026-05-04T01:55:59.000Z</time></trkpt>
        <trkpt lat="29.5464588" lon="103.3366305"><ele>2423.7</ele><time>2026-05-04T01:56:11.000Z</time></trkpt>
        <trkpt lat="29.5464767" lon="103.3365125"><ele>2424.39</ele><time>2026-05-04T01:56:23.000Z</time></trkpt>
        <trkpt lat="29.5465256" lon="103.336419"><ele>2424.24</ele><time>2026-05-04T01:56:35.000Z</time></trkpt>
        <trkpt lat="29.5465762" lon="103.3363145"><ele>2424.17</ele><time>2026-05-04T01:56:47.000Z</time></trkpt>
        <trkpt lat="29.5465868" lon="103.3361996"><ele>2423.4</ele><time>2026-05-04T01:57:01.000Z</time></trkpt>
        <trkpt lat="29.546606" lon="103.3360941"><ele>2420.83</ele><time>2026-05-04T01:57:13.000Z</time></trkpt>
        <trkpt lat="29.5466347" lon="103.3359904"><ele>2416.17</ele><time>2026-05-04T01:57:23.000Z</time></trkpt>
        <trkpt lat="29.5466699" lon="103.3358738"><ele>2411.47</ele><time>2026-05-04T01:57:33.000Z</time></trkpt>
        <trkpt lat="29.5466855" lon="103.3357515"><ele>2407.52</ele><time>2026-05-04T01:57:43.000Z</time></trkpt>
        <trkpt lat="29.5467037" lon="103.3356254"><ele>2403.83</ele><time>2026-05-04T01:57:51.000Z</time></trkpt>
        <trkpt lat="29.5467458" lon="103.3355179"><ele>2401.04</ele><time>2026-05-04T01:57:59.000Z</time></trkpt>
        <trkpt lat="29.5467882" lon="103.3354132"><ele>2399.01</ele><time>2026-05-04T01:58:07.000Z</time></trkpt>
        <trkpt lat="29.5468178" lon="103.3353067"><ele>2399.31</ele><time>2026-05-04T01:58:15.000Z</time></trkpt>
        <trkpt lat="29.5468466" lon="103.3352024"><ele>2401.09</ele><time>2026-05-04T01:58:23.000Z</time></trkpt>
        <trkpt lat="29.5468728" lon="103.3350997"><ele>2402.04</ele><time>2026-05-04T01:58:31.000Z</time></trkpt>
        <trkpt lat="29.546861" lon="103.3349945"><ele>2403.28</ele><time>2026-05-04T01:58:39.000Z</time></trkpt>
        <trkpt lat="29.5468083" lon="103.3349095"><ele>2404.87</ele><time>2026-05-04T01:58:47.000Z</time></trkpt>
        <trkpt lat="29.5467252" lon="103.3348268"><ele>2405.68</ele><time>2026-05-04T01:58:57.000Z</time></trkpt>
        <trkpt lat="29.5466205" lon="103.3347904"><ele>2404.89</ele><time>2026-05-04T01:59:05.000Z</time></trkpt>
        <trkpt lat="29.5465289" lon="103.3347409"><ele>2404.55</ele><time>2026-05-04T01:59:21.000Z</time></trkpt>
        <trkpt lat="29.5464291" lon="103.3347147"><ele>2401.12</ele><time>2026-05-04T01:59:37.000Z</time></trkpt>
        <trkpt lat="29.546339" lon="103.3346756"><ele>2400.81</ele><time>2026-05-04T01:59:57.000Z</time></trkpt>
        <trkpt lat="29.5462464" lon="103.3346903"><ele>2402.84</ele><time>2026-05-04T02:00:23.000Z</time></trkpt>
        <trkpt lat="29.5461547" lon="103.3347046"><ele>2408.6</ele><time>2026-05-04T02:00:37.000Z</time></trkpt>
        <trkpt lat="29.5460564" lon="103.3346944"><ele>2412.19</ele><time>2026-05-04T02:00:49.000Z</time></trkpt>
        <trkpt lat="29.5459627" lon="103.3346738"><ele>2414.03</ele><time>2026-05-04T02:00:57.000Z</time></trkpt>
        <trkpt lat="29.5459006" lon="103.3345896"><ele>2415.71</ele><time>2026-05-04T02:01:13.000Z</time></trkpt>
        <trkpt lat="29.5458367" lon="103.3344984"><ele>2413.57</ele><time>2026-05-04T02:01:25.000Z</time></trkpt>
        <trkpt lat="29.5457562" lon="103.334434"><ele>2410.55</ele><time>2026-05-04T02:01:37.000Z</time></trkpt>
        <trkpt lat="29.5456595" lon="103.3343797"><ele>2406.87</ele><time>2026-05-04T02:01:49.000Z</time></trkpt>
        <trkpt lat="29.5455562" lon="103.3343391"><ele>2405.34</ele><time>2026-05-04T02:01:57.000Z</time></trkpt>
        <trkpt lat="29.5454572" lon="103.3343031"><ele>2403.47</ele><time>2026-05-04T02:02:09.000Z</time></trkpt>
        <trkpt lat="29.5453676" lon="103.3342431"><ele>2399.67</ele><time>2026-05-04T02:02:27.000Z</time></trkpt>
        <trkpt lat="29.5452986" lon="103.3341538"><ele>2400.51</ele><time>2026-05-04T02:02:39.000Z</time></trkpt>
        <trkpt lat="29.5452244" lon="103.3340702"><ele>2400.44</ele><time>2026-05-04T02:02:51.000Z</time></trkpt>
        <trkpt lat="29.5451364" lon="103.3340204"><ele>2402.86</ele><time>2026-05-04T02:03:03.000Z</time></trkpt>
        <trkpt lat="29.545044" lon="103.3340165"><ele>2405.23</ele><time>2026-05-04T02:03:13.000Z</time></trkpt>
        <trkpt lat="29.5449416" lon="103.334044"><ele>2405.48</ele><time>2026-05-04T02:03:25.000Z</time></trkpt>
        <trkpt lat="29.5448577" lon="103.3341212"><ele>2405.76</ele><time>2026-05-04T02:03:33.000Z</time></trkpt>
        <trkpt lat="29.5447715" lon="103.3341908"><ele>2406.06</ele><time>2026-05-04T02:03:45.000Z</time></trkpt>
        <trkpt lat="29.5446869" lon="103.3342438"><ele>2407.02</ele><time>2026-05-04T02:03:57.000Z</time></trkpt>
        <trkpt lat="29.5446008" lon="103.3342372"><ele>2407.83</ele><time>2026-05-04T02:04:05.000Z</time></trkpt>
        <trkpt lat="29.5445106" lon="103.3342035"><ele>2407.99</ele><time>2026-05-04T02:04:13.000Z</time></trkpt>
        <trkpt lat="29.5444168" lon="103.3341597"><ele>2407.67</ele><time>2026-05-04T02:04:23.000Z</time></trkpt>
        <trkpt lat="29.544319" lon="103.3341142"><ele>2405.8</ele><time>2026-05-04T02:04:35.000Z</time></trkpt>
        <trkpt lat="29.5442228" lon="103.3340958"><ele>2404.41</ele><time>2026-05-04T02:04:45.000Z</time></trkpt>
        <trkpt lat="29.5441265" lon="103.3340581"><ele>2404.4</ele><time>2026-05-04T02:04:55.000Z</time></trkpt>
        <trkpt lat="29.5440393" lon="103.333997"><ele>2403.75</ele><time>2026-05-04T02:05:05.000Z</time></trkpt>
        <trkpt lat="29.5439694" lon="103.3339205"><ele>2403.7</ele><time>2026-05-04T02:05:15.000Z</time></trkpt>
        <trkpt lat="29.5438721" lon="103.3338796"><ele>2404.2</ele><time>2026-05-04T02:05:25.000Z</time></trkpt>
        <trkpt lat="29.5437704" lon="103.3338885"><ele>2405.31</ele><time>2026-05-04T02:05:35.000Z</time></trkpt>
        <trkpt lat="29.5436799" lon="103.3338355"><ele>2405.34</ele><time>2026-05-04T02:05:45.000Z</time></trkpt>
        <trkpt lat="29.543616" lon="103.3337529"><ele>2405.09</ele><time>2026-05-04T02:05:53.000Z</time></trkpt>
        <trkpt lat="29.5435465" lon="103.3336683"><ele>2404.43</ele><time>2026-05-04T02:06:03.000Z</time></trkpt>
        <trkpt lat="29.5434781" lon="103.3335902"><ele>2404</ele><time>2026-05-04T02:06:13.000Z</time></trkpt>
        <trkpt lat="29.5434371" lon="103.3334791"><ele>2403.59</ele><time>2026-05-04T02:06:25.000Z</time></trkpt>
        <trkpt lat="29.5434159" lon="103.33337"><ele>2401.94</ele><time>2026-05-04T02:06:33.000Z</time></trkpt>
        <trkpt lat="29.5433799" lon="103.3332697"><ele>2399.8</ele><time>2026-05-04T02:06:43.000Z</time></trkpt>
        <trkpt lat="29.5433383" lon="103.3331669"><ele>2398.48</ele><time>2026-05-04T02:06:55.000Z</time></trkpt>
        <trkpt lat="29.5432839" lon="103.3330786"><ele>2396.74</ele><time>2026-05-04T02:07:05.000Z</time></trkpt>
        <trkpt lat="29.5432199" lon="103.3329954"><ele>2394.81</ele><time>2026-05-04T02:07:19.000Z</time></trkpt>
        <trkpt lat="29.5431471" lon="103.3329308"><ele>2393.13</ele><time>2026-05-04T02:07:31.000Z</time></trkpt>
        <trkpt lat="29.5430477" lon="103.3329159"><ele>2394.28</ele><time>2026-05-04T02:07:43.000Z</time></trkpt>
        <trkpt lat="29.5429621" lon="103.3328743"><ele>2396.43</ele><time>2026-05-04T02:07:53.000Z</time></trkpt>
        <trkpt lat="29.5428911" lon="103.3328104"><ele>2397.42</ele><time>2026-05-04T02:08:01.000Z</time></trkpt>
        <trkpt lat="29.5428388" lon="103.3327136"><ele>2397.64</ele><time>2026-05-04T02:08:11.000Z</time></trkpt>
        <trkpt lat="29.5427864" lon="103.3326231"><ele>2398.74</ele><time>2026-05-04T02:08:21.000Z</time></trkpt>
        <trkpt lat="29.5427029" lon="103.3325946"><ele>2398.69</ele><time>2026-05-04T02:08:29.000Z</time></trkpt>
        <trkpt lat="29.5426206" lon="103.3325324"><ele>2401.14</ele><time>2026-05-04T02:08:39.000Z</time></trkpt>
        <trkpt lat="29.5425946" lon="103.3324358"><ele>2401.25</ele><time>2026-05-04T02:08:49.000Z</time></trkpt>
        <trkpt lat="29.5425558" lon="103.3323205"><ele>2400.27</ele><time>2026-05-04T02:08:59.000Z</time></trkpt>
        <trkpt lat="29.5425166" lon="103.3322157"><ele>2401.08</ele><time>2026-05-04T02:09:07.000Z</time></trkpt>
        <trkpt lat="29.5424678" lon="103.3321176"><ele>2402.12</ele><time>2026-05-04T02:09:17.000Z</time></trkpt>
        <trkpt lat="29.5423824" lon="103.3320778"><ele>2402.6</ele><time>2026-05-04T02:09:27.000Z</time></trkpt>
        <trkpt lat="29.5423086" lon="103.3320172"><ele>2402.98</ele><time>2026-05-04T02:09:37.000Z</time></trkpt>
        <trkpt lat="29.5422195" lon="103.3319944"><ele>2402.63</ele><time>2026-05-04T02:10:33.000Z</time></trkpt>
        <trkpt lat="29.5421247" lon="103.3319812"><ele>2400.63</ele><time>2026-05-04T02:10:47.000Z</time></trkpt>
        <trkpt lat="29.542034" lon="103.3319257"><ele>2398.67</ele><time>2026-05-04T02:10:57.000Z</time></trkpt>
        <trkpt lat="29.5419782" lon="103.3318276"><ele>2396.19</ele><time>2026-05-04T02:11:07.000Z</time></trkpt>
        <trkpt lat="29.5419246" lon="103.3317237"><ele>2394.24</ele><time>2026-05-04T02:11:23.000Z</time></trkpt>
        <trkpt lat="29.5419382" lon="103.3316019"><ele>2392.22</ele><time>2026-05-04T02:12:03.000Z</time></trkpt>
        <trkpt lat="29.5419958" lon="103.3315087"><ele>2388.94</ele><time>2026-05-04T02:12:13.000Z</time></trkpt>
        <trkpt lat="29.5420341" lon="103.3314087"><ele>2385.94</ele><time>2026-05-04T02:12:25.000Z</time></trkpt>
        <trkpt lat="29.5420312" lon="103.3313186"><ele>2383.61</ele><time>2026-05-04T02:12:33.000Z</time></trkpt>
        <trkpt lat="29.5420901" lon="103.331257"><ele>2381.04</ele><time>2026-05-04T02:13:03.000Z</time></trkpt>
        <trkpt lat="29.5422064" lon="103.3313185"><ele>2379.02</ele><time>2026-05-04T02:14:37.000Z</time></trkpt>
        <trkpt lat="29.5421233" lon="103.3314361"><ele>2378.08</ele><time>2026-05-04T02:15:03.000Z</time></trkpt>
        <trkpt lat="29.5420442" lon="103.3315286"><ele>2380.34</ele><time>2026-05-04T02:15:09.000Z</time></trkpt>
        <trkpt lat="29.541965" lon="103.3315815"><ele>2383.04</ele><time>2026-05-04T02:15:17.000Z</time></trkpt>
        <trkpt lat="29.5418759" lon="103.3316271"><ele>2386.49</ele><time>2026-05-04T02:15:41.000Z</time></trkpt>
        <trkpt lat="29.5417855" lon="103.3316494"><ele>2389.14</ele><time>2026-05-04T02:15:59.000Z</time></trkpt>
        <trkpt lat="29.5416894" lon="103.3316583"><ele>2390.58</ele><time>2026-05-04T02:16:09.000Z</time></trkpt>
        <trkpt lat="29.5415869" lon="103.3316552"><ele>2391.77</ele><time>2026-05-04T02:16:19.000Z</time></trkpt>
        <trkpt lat="29.5414819" lon="103.3316642"><ele>2392.26</ele><time>2026-05-04T02:16:29.000Z</time></trkpt>
        <trkpt lat="29.5413897" lon="103.3316899"><ele>2392.9</ele><time>2026-05-04T02:16:37.000Z</time></trkpt>
        <trkpt lat="29.5412902" lon="103.33173"><ele>2393.65</ele><time>2026-05-04T02:16:47.000Z</time></trkpt>
        <trkpt lat="29.5411968" lon="103.3317842"><ele>2394.12</ele><time>2026-05-04T02:16:57.000Z</time></trkpt>
        <trkpt lat="29.5411073" lon="103.3318283"><ele>2395.11</ele><time>2026-05-04T02:17:17.000Z</time></trkpt>
        <trkpt lat="29.541032" lon="103.3317891"><ele>2394.78</ele><time>2026-05-04T02:17:33.000Z</time></trkpt>
        <trkpt lat="29.5409468" lon="103.3317712"><ele>2397.18</ele><time>2026-05-04T02:17:43.000Z</time></trkpt>
        <trkpt lat="29.5408593" lon="103.3317356"><ele>2400.55</ele><time>2026-05-04T02:17:53.000Z</time></trkpt>
        <trkpt lat="29.5407553" lon="103.3317303"><ele>2403.07</ele><time>2026-05-04T02:18:05.000Z</time></trkpt>
        <trkpt lat="29.5406593" lon="103.3317929"><ele>2407.3</ele><time>2026-05-04T02:18:15.000Z</time></trkpt>
        <trkpt lat="29.5405759" lon="103.3318748"><ele>2409.73</ele><time>2026-05-04T02:18:23.000Z</time></trkpt>
        <trkpt lat="29.5404912" lon="103.3319273"><ele>2410.84</ele><time>2026-05-04T02:18:33.000Z</time></trkpt>
        <trkpt lat="29.5404018" lon="103.3319852"><ele>2413.2</ele><time>2026-05-04T02:18:43.000Z</time></trkpt>
        <trkpt lat="29.5403147" lon="103.3320429"><ele>2414.57</ele><time>2026-05-04T02:18:51.000Z</time></trkpt>
        <trkpt lat="29.5402812" lon="103.3320786"><ele>2415.24</ele><time>2026-05-04T02:18:57.000Z</time></trkpt>
        <trkpt lat="29.5402402" lon="103.3320177"><ele>2413.79</ele><time>2026-05-04T02:19:19.000Z</time></trkpt>
        <trkpt lat="29.5401389" lon="103.3320104"><ele>2414.71</ele><time>2026-05-04T02:19:35.000Z</time></trkpt>
        <trkpt lat="29.540042" lon="103.3320496"><ele>2415.41</ele><time>2026-05-04T02:19:41.000Z</time></trkpt>
        <trkpt lat="29.5399486" lon="103.3321016"><ele>2416.2</ele><time>2026-05-04T02:19:53.000Z</time></trkpt>
        <trkpt lat="29.5398645" lon="103.332185"><ele>2413.87</ele><time>2026-05-04T02:20:01.000Z</time></trkpt>
        <trkpt lat="29.5397935" lon="103.3322684"><ele>2411.12</ele><time>2026-05-04T02:20:11.000Z</time></trkpt>
        <trkpt lat="29.539714" lon="103.3323381"><ele>2408.33</ele><time>2026-05-04T02:20:23.000Z</time></trkpt>
        <trkpt lat="29.539623" lon="103.3323636"><ele>2405.58</ele><time>2026-05-04T02:20:35.000Z</time></trkpt>
        <trkpt lat="29.5396032" lon="103.3323663"><ele>2404.36</ele><time>2026-05-04T02:20:37.000Z</time></trkpt>
        <trkpt lat="29.5395659" lon="103.3324273"><ele>2403.67</ele><time>2026-05-04T02:20:57.000Z</time></trkpt>
        <trkpt lat="29.5395029" lon="103.332501"><ele>2403.7</ele><time>2026-05-04T02:21:23.000Z</time></trkpt>
        <trkpt lat="29.5394361" lon="103.3325853"><ele>2405.37</ele><time>2026-05-04T02:21:39.000Z</time></trkpt>
        <trkpt lat="29.5393683" lon="103.3326791"><ele>2410.04</ele><time>2026-05-04T02:21:51.000Z</time></trkpt>
        <trkpt lat="29.5393046" lon="103.332766"><ele>2414.52</ele><time>2026-05-04T02:22:07.000Z</time></trkpt>
        <trkpt lat="29.5392308" lon="103.3328349"><ele>2417.46</ele><time>2026-05-04T02:22:25.000Z</time></trkpt>
        <trkpt lat="29.539144" lon="103.3328834"><ele>2419.43</ele><time>2026-05-04T02:22:35.000Z</time></trkpt>
        <trkpt lat="29.5390638" lon="103.3329551"><ele>2421.63</ele><time>2026-05-04T02:22:45.000Z</time></trkpt>
        <trkpt lat="29.5389988" lon="103.333035"><ele>2422.7</ele><time>2026-05-04T02:22:55.000Z</time></trkpt>
        <trkpt lat="29.5389138" lon="103.3331036"><ele>2424.06</ele><time>2026-05-04T02:23:05.000Z</time></trkpt>
        <trkpt lat="29.5388331" lon="103.3331637"><ele>2426.15</ele><time>2026-05-04T02:23:15.000Z</time></trkpt>
        <trkpt lat="29.5387395" lon="103.3331957"><ele>2427.64</ele><time>2026-05-04T02:23:25.000Z</time></trkpt>
        <trkpt lat="29.5386483" lon="103.3332173"><ele>2428.06</ele><time>2026-05-04T02:23:33.000Z</time></trkpt>
        <trkpt lat="29.5385515" lon="103.3331978"><ele>2428.86</ele><time>2026-05-04T02:23:43.000Z</time></trkpt>
        <trkpt lat="29.5384533" lon="103.3331821"><ele>2428.35</ele><time>2026-05-04T02:23:55.000Z</time></trkpt>
        <trkpt lat="29.5383558" lon="103.333216"><ele>2428.28</ele><time>2026-05-04T02:24:11.000Z</time></trkpt>
        <trkpt lat="29.5383182" lon="103.333237"><ele>2427.51</ele><time>2026-05-04T02:24:15.000Z</time></trkpt>
        <trkpt lat="29.5382657" lon="103.3332962"><ele>2426.95</ele><time>2026-05-04T02:24:21.000Z</time></trkpt>
        <trkpt lat="29.5381974" lon="103.333366"><ele>2428.46</ele><time>2026-05-04T02:24:31.000Z</time></trkpt>
        <trkpt lat="29.5381167" lon="103.333433"><ele>2431</ele><time>2026-05-04T02:24:39.000Z</time></trkpt>
        <trkpt lat="29.5380265" lon="103.3334956"><ele>2433.14</ele><time>2026-05-04T02:24:49.000Z</time></trkpt>
        <trkpt lat="29.5379384" lon="103.3335468"><ele>2435.03</ele><time>2026-05-04T02:24:57.000Z</time></trkpt>
        <trkpt lat="29.537894" lon="103.3335822"><ele>2435.54</ele><time>2026-05-04T02:25:09.000Z</time></trkpt>
        <trkpt lat="29.5378144" lon="103.3335997"><ele>2434.25</ele><time>2026-05-04T02:25:41.000Z</time></trkpt>
        <trkpt lat="29.5377334" lon="103.3336522"><ele>2430.29</ele><time>2026-05-04T02:25:55.000Z</time></trkpt>
        <trkpt lat="29.537665" lon="103.333723"><ele>2427.75</ele><time>2026-05-04T02:26:07.000Z</time></trkpt>
        <trkpt lat="29.5375791" lon="103.3337595"><ele>2427.16</ele><time>2026-05-04T02:26:21.000Z</time></trkpt>
        <trkpt lat="29.5374808" lon="103.3337528"><ele>2429.22</ele><time>2026-05-04T02:26:37.000Z</time></trkpt>
        <trkpt lat="29.5373862" lon="103.3337605"><ele>2431.96</ele><time>2026-05-04T02:26:49.000Z</time></trkpt>
        <trkpt lat="29.537317" lon="103.3338188"><ele>2435.39</ele><time>2026-05-04T02:26:59.000Z</time></trkpt>
        <trkpt lat="29.5372896" lon="103.3339193"><ele>2437.73</ele><time>2026-05-04T02:27:13.000Z</time></trkpt>
        <trkpt lat="29.5372578" lon="103.3340341"><ele>2439</ele><time>2026-05-04T02:27:41.000Z</time></trkpt>
        <trkpt lat="29.5372037" lon="103.3341303"><ele>2438.17</ele><time>2026-05-04T02:27:57.000Z</time></trkpt>
        <trkpt lat="29.5371244" lon="103.334203"><ele>2439.63</ele><time>2026-05-04T02:28:13.000Z</time></trkpt>
        <trkpt lat="29.5370268" lon="103.3342321"><ele>2444.92</ele><time>2026-05-04T02:28:33.000Z</time></trkpt>
        <trkpt lat="29.5369338" lon="103.3342689"><ele>2449.55</ele><time>2026-05-04T02:28:49.000Z</time></trkpt>
        <trkpt lat="29.5368375" lon="103.3343037"><ele>2452.26</ele><time>2026-05-04T02:29:51.000Z</time></trkpt>
        <trkpt lat="29.5367514" lon="103.3343514"><ele>2453.23</ele><time>2026-05-04T02:30:29.000Z</time></trkpt>
        <trkpt lat="29.5366532" lon="103.3343564"><ele>2454.32</ele><time>2026-05-04T02:30:45.000Z</time></trkpt>
        <trkpt lat="29.5365648" lon="103.3343119"><ele>2456.3</ele><time>2026-05-04T02:30:57.000Z</time></trkpt>
        <trkpt lat="29.5364618" lon="103.3343052"><ele>2454.91</ele><time>2026-05-04T02:31:07.000Z</time></trkpt>
        <trkpt lat="29.536362" lon="103.3343187"><ele>2452.93</ele><time>2026-05-04T02:31:21.000Z</time></trkpt>
        <trkpt lat="29.5362732" lon="103.3342942"><ele>2453.09</ele><time>2026-05-04T02:31:35.000Z</time></trkpt>
        <trkpt lat="29.5361835" lon="103.3342996"><ele>2454.99</ele><time>2026-05-04T02:31:49.000Z</time></trkpt>
        <trkpt lat="29.5361203" lon="103.334238"><ele>2458.24</ele><time>2026-05-04T02:32:01.000Z</time></trkpt>
        <trkpt lat="29.5360465" lon="103.3341806"><ele>2458.56</ele><time>2026-05-04T02:32:19.000Z</time></trkpt>
        <trkpt lat="29.5359729" lon="103.3341121"><ele>2460.07</ele><time>2026-05-04T02:32:43.000Z</time></trkpt>
        <trkpt lat="29.5358875" lon="103.3340689"><ele>2461.92</ele><time>2026-05-04T02:32:59.000Z</time></trkpt>
        <trkpt lat="29.5357962" lon="103.334047"><ele>2465.05</ele><time>2026-05-04T02:33:11.000Z</time></trkpt>
        <trkpt lat="29.5357005" lon="103.3340149"><ele>2468.7</ele><time>2026-05-04T02:33:23.000Z</time></trkpt>
        <trkpt lat="29.5356584" lon="103.3339251"><ele>2472.76</ele><time>2026-05-04T02:33:41.000Z</time></trkpt>
        <trkpt lat="29.5356116" lon="103.333832"><ele>2471.23</ele><time>2026-05-04T02:33:59.000Z</time></trkpt>
        <trkpt lat="29.5355609" lon="103.3337421"><ele>2470.42</ele><time>2026-05-04T02:34:19.000Z</time></trkpt>
        <trkpt lat="29.5355032" lon="103.3336608"><ele>2471.39</ele><time>2026-05-04T02:34:37.000Z</time></trkpt>
        <trkpt lat="29.5354477" lon="103.3335665"><ele>2470.19</ele><time>2026-05-04T02:34:49.000Z</time></trkpt>
        <trkpt lat="29.5353837" lon="103.3334701"><ele>2469.81</ele><time>2026-05-04T02:35:01.000Z</time></trkpt>
        <trkpt lat="29.5353216" lon="103.3333805"><ele>2469.32</ele><time>2026-05-04T02:35:25.000Z</time></trkpt>
        <trkpt lat="29.5352856" lon="103.3332835"><ele>2469.43</ele><time>2026-05-04T02:35:43.000Z</time></trkpt>
        <trkpt lat="29.5352414" lon="103.3331929"><ele>2471.19</ele><time>2026-05-04T02:35:59.000Z</time></trkpt>
        <trkpt lat="29.53523" lon="103.3331551"><ele>2472.73</ele><time>2026-05-04T02:36:05.000Z</time></trkpt>
        <trkpt lat="29.5351938" lon="103.3330873"><ele>2473.38</ele><time>2026-05-04T02:36:37.000Z</time></trkpt>
        <trkpt lat="29.5351593" lon="103.3329977"><ele>2476.32</ele><time>2026-05-04T02:37:11.000Z</time></trkpt>
        <trkpt lat="29.5351238" lon="103.3328997"><ele>2479.52</ele><time>2026-05-04T02:37:27.000Z</time></trkpt>
        <trkpt lat="29.5350831" lon="103.3328043"><ele>2482.73</ele><time>2026-05-04T02:37:53.000Z</time></trkpt>
        <trkpt lat="29.5350032" lon="103.3327687"><ele>2484.41</ele><time>2026-05-04T02:38:05.000Z</time></trkpt>
        <trkpt lat="29.534923" lon="103.3328117"><ele>2485.8</ele><time>2026-05-04T02:38:39.000Z</time></trkpt>
        <trkpt lat="29.5348634" lon="103.3329077"><ele>2488.15</ele><time>2026-05-04T02:38:49.000Z</time></trkpt>
        <trkpt lat="29.5348326" lon="103.3329631"><ele>2490.79</ele><time>2026-05-04T02:38:59.000Z</time></trkpt>
        <trkpt lat="29.5347633" lon="103.3330002"><ele>2492.34</ele><time>2026-05-04T02:39:17.000Z</time></trkpt>
        <trkpt lat="29.5346757" lon="103.3330091"><ele>2494.38</ele><time>2026-05-04T02:39:39.000Z</time></trkpt>
        <trkpt lat="29.5345938" lon="103.3330614"><ele>2496.39</ele><time>2026-05-04T02:40:03.000Z</time></trkpt>
        <trkpt lat="29.5344989" lon="103.3330967"><ele>2502.28</ele><time>2026-05-04T02:40:23.000Z</time></trkpt>
        <trkpt lat="29.5344052" lon="103.3331353"><ele>2507.88</ele><time>2026-05-04T02:40:49.000Z</time></trkpt>
        <trkpt lat="29.5343706" lon="103.3331532"><ele>2509.13</ele><time>2026-05-04T02:40:55.000Z</time></trkpt>
        <trkpt lat="29.5343027" lon="103.3331148"><ele>2509.95</ele><time>2026-05-04T02:41:13.000Z</time></trkpt>
        <trkpt lat="29.5342235" lon="103.3331316"><ele>2510.63</ele><time>2026-05-04T02:41:55.000Z</time></trkpt>
        <trkpt lat="29.5341343" lon="103.3331679"><ele>2512.15</ele><time>2026-05-04T02:42:11.000Z</time></trkpt>
        <trkpt lat="29.5340748" lon="103.3331714"><ele>2515.59</ele><time>2026-05-04T02:42:23.000Z</time></trkpt>
        <trkpt lat="29.5339767" lon="103.3331523"><ele>2516.35</ele><time>2026-05-04T02:44:07.000Z</time></trkpt>
        <trkpt lat="29.53389" lon="103.3332039"><ele>2517.25</ele><time>2026-05-04T02:44:39.000Z</time></trkpt>
        <trkpt lat="29.5338105" lon="103.3331468"><ele>2519.04</ele><time>2026-05-04T02:45:13.000Z</time></trkpt>
        <trkpt lat="29.5337568" lon="103.3330626"><ele>2522.61</ele><time>2026-05-04T02:45:35.000Z</time></trkpt>
        <trkpt lat="29.5336926" lon="103.3329863"><ele>2526.7</ele><time>2026-05-04T02:46:09.000Z</time></trkpt>
        <trkpt lat="29.5336088" lon="103.3329375"><ele>2530.53</ele><time>2026-05-04T02:46:37.000Z</time></trkpt>
        <trkpt lat="29.5335533" lon="103.3328477"><ele>2531.76</ele><time>2026-05-04T02:46:51.000Z</time></trkpt>
        <trkpt lat="29.5334845" lon="103.3328182"><ele>2534.91</ele><time>2026-05-04T02:47:15.000Z</time></trkpt>
        <trkpt lat="29.5334348" lon="103.33274"><ele>2535.4</ele><time>2026-05-04T02:47:37.000Z</time></trkpt>
        <trkpt lat="29.5333558" lon="103.3326997"><ele>2538.74</ele><time>2026-05-04T02:48:17.000Z</time></trkpt>
        <trkpt lat="29.5332647" lon="103.3326755"><ele>2541.84</ele><time>2026-05-04T02:48:55.000Z</time></trkpt>
        <trkpt lat="29.533188" lon="103.332617"><ele>2545.69</ele><time>2026-05-04T02:49:33.000Z</time></trkpt>
        <trkpt lat="29.5331272" lon="103.3325382"><ele>2549.38</ele><time>2026-05-04T02:49:57.000Z</time></trkpt>
        <trkpt lat="29.5330606" lon="103.3324614"><ele>2550.83</ele><time>2026-05-04T02:50:25.000Z</time></trkpt>
        <trkpt lat="29.5330076" lon="103.3323575"><ele>2554.02</ele><time>2026-05-04T02:50:45.000Z</time></trkpt>
        <trkpt lat="29.5329369" lon="103.3322743"><ele>2557.57</ele><time>2026-05-04T02:51:09.000Z</time></trkpt>
        <trkpt lat="29.5328613" lon="103.3322104"><ele>2560.64</ele><time>2026-05-04T02:51:31.000Z</time></trkpt>
        <trkpt lat="29.5328127" lon="103.3321261"><ele>2562.82</ele><time>2026-05-04T02:52:15.000Z</time></trkpt>
        <trkpt lat="29.5327643" lon="103.3320351"><ele>2566.27</ele><time>2026-05-04T02:52:31.000Z</time></trkpt>
        <trkpt lat="29.5326913" lon="103.3319534"><ele>2571.37</ele><time>2026-05-04T02:53:05.000Z</time></trkpt>
        <trkpt lat="29.5326718" lon="103.33195"><ele>2574.68</ele><time>2026-05-04T02:53:11.000Z</time></trkpt>
        <trkpt lat="29.5326172" lon="103.3319104"><ele>2576.8</ele><time>2026-05-04T02:53:49.000Z</time></trkpt>
        <trkpt lat="29.5325938" lon="103.3318199"><ele>2576.81</ele><time>2026-05-04T02:54:13.000Z</time></trkpt>
        <trkpt lat="29.5325686" lon="103.3317125"><ele>2579.93</ele><time>2026-05-04T02:54:47.000Z</time></trkpt>
        <trkpt lat="29.5325351" lon="103.3316022"><ele>2584.61</ele><time>2026-05-04T02:55:21.000Z</time></trkpt>
        <trkpt lat="29.5324787" lon="103.3315074"><ele>2587.73</ele><time>2026-05-04T02:55:55.000Z</time></trkpt>
        <trkpt lat="29.532456" lon="103.3314036"><ele>2594.17</ele><time>2026-05-04T02:56:37.000Z</time></trkpt>
        <trkpt lat="29.5324392" lon="103.3312889"><ele>2600.03</ele><time>2026-05-04T02:57:07.000Z</time></trkpt>
        <trkpt lat="29.5324385" lon="103.3312622"><ele>2605.39</ele><time>2026-05-04T02:57:09.000Z</time></trkpt>
        <trkpt lat="29.5324089" lon="103.3311925"><ele>2608.18</ele><time>2026-05-04T02:57:41.000Z</time></trkpt>
        <trkpt lat="29.5323358" lon="103.3311437"><ele>2610.48</ele><time>2026-05-04T02:58:11.000Z</time></trkpt>
        <trkpt lat="29.5322856" lon="103.3312085"><ele>2610.89</ele><time>2026-05-04T02:58:27.000Z</time></trkpt>
        <trkpt lat="29.5322089" lon="103.3312704"><ele>2612.67</ele><time>2026-05-04T02:58:47.000Z</time></trkpt>
        <trkpt lat="29.5321781" lon="103.3313763"><ele>2613.26</ele><time>2026-05-04T02:59:03.000Z</time></trkpt>
        <trkpt lat="29.5321716" lon="103.3313321"><ele>2616.99</ele><time>2026-05-04T02:59:29.000Z</time></trkpt>
        <trkpt lat="29.5321664" lon="103.3312257"><ele>2617.81</ele><time>2026-05-04T02:59:51.000Z</time></trkpt>
        <trkpt lat="29.5322071" lon="103.3311065"><ele>2620.03</ele><time>2026-05-04T03:00:15.000Z</time></trkpt>
        <trkpt lat="29.5322034" lon="103.3309938"><ele>2622.95</ele><time>2026-05-04T03:00:35.000Z</time></trkpt>
        <trkpt lat="29.5322105" lon="103.3308816"><ele>2625.47</ele><time>2026-05-04T03:00:51.000Z</time></trkpt>
        <trkpt lat="29.5321713" lon="103.3307752"><ele>2628</ele><time>2026-05-04T03:01:05.000Z</time></trkpt>
        <trkpt lat="29.5321536" lon="103.3306595"><ele>2628.68</ele><time>2026-05-04T03:01:15.000Z</time></trkpt>
        <trkpt lat="29.5321629" lon="103.3305507"><ele>2629</ele><time>2026-05-04T03:01:29.000Z</time></trkpt>
        <trkpt lat="29.5321809" lon="103.3304469"><ele>2630.08</ele><time>2026-05-04T03:01:53.000Z</time></trkpt>
        <trkpt lat="29.5321227" lon="103.3303898"><ele>2633.72</ele><time>2026-05-04T03:02:35.000Z</time></trkpt>
        <trkpt lat="29.5320998" lon="103.330362"><ele>2639.71</ele><time>2026-05-04T03:02:45.000Z</time></trkpt>
        <trkpt lat="29.532115" lon="103.3302866"><ele>2642.12</ele><time>2026-05-04T03:03:03.000Z</time></trkpt>
        <trkpt lat="29.5321807" lon="103.3302217"><ele>2643.66</ele><time>2026-05-04T03:03:21.000Z</time></trkpt>
        <trkpt lat="29.532243" lon="103.3301798"><ele>2647.05</ele><time>2026-05-04T03:03:41.000Z</time></trkpt>
        <trkpt lat="29.5321515" lon="103.3302281"><ele>2649.95</ele><time>2026-05-04T03:04:57.000Z</time></trkpt>
        <trkpt lat="29.5320594" lon="103.3302671"><ele>2650.07</ele><time>2026-05-04T03:05:27.000Z</time></trkpt>
        <trkpt lat="29.5319725" lon="103.3302478"><ele>2654.16</ele><time>2026-05-04T03:05:45.000Z</time></trkpt>
        <trkpt lat="29.5319562" lon="103.3302429"><ele>2657.55</ele><time>2026-05-04T03:05:49.000Z</time></trkpt>
        <trkpt lat="29.5318888" lon="103.3302128"><ele>2659.45</ele><time>2026-05-04T03:06:49.000Z</time></trkpt>
        <trkpt lat="29.5318165" lon="103.3301465"><ele>2662.99</ele><time>2026-05-04T03:07:05.000Z</time></trkpt>
        <trkpt lat="29.5317557" lon="103.3300608"><ele>2664.87</ele><time>2026-05-04T03:07:45.000Z</time></trkpt>
        <trkpt lat="29.5316724" lon="103.3300117"><ele>2668.57</ele><time>2026-05-04T03:08:13.000Z</time></trkpt>
        <trkpt lat="29.5315861" lon="103.3299711"><ele>2671.61</ele><time>2026-05-04T03:08:51.000Z</time></trkpt>
        <trkpt lat="29.5314938" lon="103.3299667"><ele>2675.97</ele><time>2026-05-04T03:09:33.000Z</time></trkpt>
        <trkpt lat="29.5314739" lon="103.329953"><ele>2679.98</ele><time>2026-05-04T03:09:37.000Z</time></trkpt>
        <trkpt lat="29.5314351" lon="103.3298845"><ele>2682.55</ele><time>2026-05-04T03:10:03.000Z</time></trkpt>
        <trkpt lat="29.5313987" lon="103.3297694"><ele>2684.39</ele><time>2026-05-04T03:11:09.000Z</time></trkpt>
        <trkpt lat="29.5313172" lon="103.3297105"><ele>2691.45</ele><time>2026-05-04T03:12:11.000Z</time></trkpt>
        <trkpt lat="29.5312308" lon="103.3296352"><ele>2697.78</ele><time>2026-05-04T03:12:51.000Z</time></trkpt>
        <trkpt lat="29.5311826" lon="103.3295402"><ele>2701.88</ele><time>2026-05-04T03:13:37.000Z</time></trkpt>
        <trkpt lat="29.5311244" lon="103.3294525"><ele>2706.34</ele><time>2026-05-04T03:14:11.000Z</time></trkpt>
        <trkpt lat="29.5311315" lon="103.3293496"><ele>2712.65</ele><time>2026-05-04T03:14:29.000Z</time></trkpt>
        <trkpt lat="29.5311578" lon="103.3292399"><ele>2716.42</ele><time>2026-05-04T03:14:45.000Z</time></trkpt>
        <trkpt lat="29.5311493" lon="103.3291337"><ele>2721.25</ele><time>2026-05-04T03:15:11.000Z</time></trkpt>
        <trkpt lat="29.5311631" lon="103.3290135"><ele>2722.31</ele><time>2026-05-04T03:15:25.000Z</time></trkpt>
        <trkpt lat="29.5311401" lon="103.328911"><ele>2724.78</ele><time>2026-05-04T03:15:43.000Z</time></trkpt>
        <trkpt lat="29.5311257" lon="103.3288048"><ele>2727.18</ele><time>2026-05-04T03:16:05.000Z</time></trkpt>
        <trkpt lat="29.5311565" lon="103.3287076"><ele>2729.68</ele><time>2026-05-04T03:17:05.000Z</time></trkpt>
        <trkpt lat="29.531185" lon="103.3286073"><ele>2732</ele><time>2026-05-04T03:17:29.000Z</time></trkpt>
        <trkpt lat="29.5312113" lon="103.3285067"><ele>2734.22</ele><time>2026-05-04T03:17:53.000Z</time></trkpt>
        <trkpt lat="29.5312433" lon="103.3284075"><ele>2736.47</ele><time>2026-05-04T03:18:11.000Z</time></trkpt>
        <trkpt lat="29.5312764" lon="103.3283017"><ele>2738.32</ele><time>2026-05-04T03:18:27.000Z</time></trkpt>
        <trkpt lat="29.531312" lon="103.3281979"><ele>2739.24</ele><time>2026-05-04T03:18:39.000Z</time></trkpt>
        <trkpt lat="29.5313203" lon="103.3280855"><ele>2739.28</ele><time>2026-05-04T03:18:51.000Z</time></trkpt>
        <trkpt lat="29.5313176" lon="103.3279689"><ele>2740.26</ele><time>2026-05-04T03:19:07.000Z</time></trkpt>
        <trkpt lat="29.5313107" lon="103.3278611"><ele>2741.2</ele><time>2026-05-04T03:19:21.000Z</time></trkpt>
        <trkpt lat="29.5312785" lon="103.3277599"><ele>2743.34</ele><time>2026-05-04T03:19:37.000Z</time></trkpt>
        <trkpt lat="29.5312718" lon="103.3276957"><ele>2746.3</ele><time>2026-05-04T03:19:53.000Z</time></trkpt>
        <trkpt lat="29.5312772" lon="103.3275991"><ele>2749.29</ele><time>2026-05-04T03:20:21.000Z</time></trkpt>
        <trkpt lat="29.5312629" lon="103.327491"><ele>2751.86</ele><time>2026-05-04T03:20:43.000Z</time></trkpt>
        <trkpt lat="29.5312586" lon="103.3273836"><ele>2755.96</ele><time>2026-05-04T03:21:21.000Z</time></trkpt>
        <trkpt lat="29.5312544" lon="103.3272778"><ele>2759</ele><time>2026-05-04T03:21:55.000Z</time></trkpt>
        <trkpt lat="29.5312351" lon="103.3271737"><ele>2762.95</ele><time>2026-05-04T03:22:29.000Z</time></trkpt>
        <trkpt lat="29.5312038" lon="103.3270749"><ele>2766.45</ele><time>2026-05-04T03:22:57.000Z</time></trkpt>
        <trkpt lat="29.5311188" lon="103.3270459"><ele>2769.58</ele><time>2026-05-04T03:23:13.000Z</time></trkpt>
        <trkpt lat="29.5310413" lon="103.3269919"><ele>2773.4</ele><time>2026-05-04T03:23:41.000Z</time></trkpt>
        <trkpt lat="29.5309498" lon="103.3269473"><ele>2775.57</ele><time>2026-05-04T03:24:09.000Z</time></trkpt>
        <trkpt lat="29.5308566" lon="103.3269107"><ele>2776.46</ele><time>2026-05-04T03:24:31.000Z</time></trkpt>
        <trkpt lat="29.5308265" lon="103.3268925"><ele>2777.5</ele><time>2026-05-04T03:24:39.000Z</time></trkpt>
        <trkpt lat="29.5308127" lon="103.3268084"><ele>2779.29</ele><time>2026-05-04T03:25:21.000Z</time></trkpt>
        <trkpt lat="29.53075" lon="103.3268216"><ele>2783.09</ele><time>2026-05-04T03:26:05.000Z</time></trkpt>
        <trkpt lat="29.5307011" lon="103.3268619"><ele>2785.85</ele><time>2026-05-04T03:26:23.000Z</time></trkpt>
        <trkpt lat="29.5306147" lon="103.3268928"><ele>2788.88</ele><time>2026-05-04T03:27:11.000Z</time></trkpt>
        <trkpt lat="29.5305348" lon="103.3269557"><ele>2793.78</ele><time>2026-05-04T03:27:35.000Z</time></trkpt>
        <trkpt lat="29.530441" lon="103.3269736"><ele>2798.37</ele><time>2026-05-04T03:27:51.000Z</time></trkpt>
        <trkpt lat="29.5303609" lon="103.3270246"><ele>2803.36</ele><time>2026-05-04T03:28:47.000Z</time></trkpt>
        <trkpt lat="29.5302767" lon="103.3270914"><ele>2807.8</ele><time>2026-05-04T03:29:11.000Z</time></trkpt>
        <trkpt lat="29.5301749" lon="103.3271161"><ele>2813.55</ele><time>2026-05-04T03:29:25.000Z</time></trkpt>
        <trkpt lat="29.5301017" lon="103.3271793"><ele>2818.44</ele><time>2026-05-04T03:29:37.000Z</time></trkpt>
        <trkpt lat="29.530034" lon="103.3272599"><ele>2822.41</ele><time>2026-05-04T03:29:55.000Z</time></trkpt>
        <trkpt lat="29.5299634" lon="103.3273376"><ele>2824.27</ele><time>2026-05-04T03:30:09.000Z</time></trkpt>
        <trkpt lat="29.5298962" lon="103.3274275"><ele>2824.29</ele><time>2026-05-04T03:30:23.000Z</time></trkpt>
        <trkpt lat="29.5298364" lon="103.3275242"><ele>2824.34</ele><time>2026-05-04T03:30:33.000Z</time></trkpt>
        <trkpt lat="29.5297875" lon="103.3276324"><ele>2825.07</ele><time>2026-05-04T03:30:45.000Z</time></trkpt>
        <trkpt lat="29.5297531" lon="103.3277385"><ele>2826.42</ele><time>2026-05-04T03:31:11.000Z</time></trkpt>
        <trkpt lat="29.5297026" lon="103.3278245"><ele>2825.64</ele><time>2026-05-04T03:32:53.000Z</time></trkpt>
        <trkpt lat="29.5295999" lon="103.3278344"><ele>2825.53</ele><time>2026-05-04T03:33:19.000Z</time></trkpt>
        <trkpt lat="29.5295025" lon="103.3278181"><ele>2824.94</ele><time>2026-05-04T03:33:33.000Z</time></trkpt>
        <trkpt lat="29.5294033" lon="103.3278114"><ele>2823.81</ele><time>2026-05-04T03:33:43.000Z</time></trkpt>
        <trkpt lat="29.5293131" lon="103.3278429"><ele>2822.18</ele><time>2026-05-04T03:34:07.000Z</time></trkpt>
        <trkpt lat="29.5292777" lon="103.327942"><ele>2820.36</ele><time>2026-05-04T03:34:21.000Z</time></trkpt>
        <trkpt lat="29.5292504" lon="103.3280533"><ele>2819.74</ele><time>2026-05-04T03:34:45.000Z</time></trkpt>
        <trkpt lat="29.5292275" lon="103.3281729"><ele>2819.03</ele><time>2026-05-04T03:35:15.000Z</time></trkpt>
        <trkpt lat="29.5292034" lon="103.328281"><ele>2820.36</ele><time>2026-05-04T03:35:39.000Z</time></trkpt>
        <trkpt lat="29.5291894" lon="103.3283877"><ele>2823.73</ele><time>2026-05-04T03:36:03.000Z</time></trkpt>
        <trkpt lat="29.5291626" lon="103.3284869"><ele>2827.04</ele><time>2026-05-04T03:36:25.000Z</time></trkpt>
        <trkpt lat="29.5291198" lon="103.3285808"><ele>2831.12</ele><time>2026-05-04T03:36:47.000Z</time></trkpt>
        <trkpt lat="29.5290705" lon="103.3286816"><ele>2834.95</ele><time>2026-05-04T03:37:09.000Z</time></trkpt>
        <trkpt lat="29.5290326" lon="103.3287908"><ele>2839.2</ele><time>2026-05-04T03:37:29.000Z</time></trkpt>
        <trkpt lat="29.529007" lon="103.3289041"><ele>2840.22</ele><time>2026-05-04T03:37:47.000Z</time></trkpt>
        <trkpt lat="29.5289531" lon="103.3289921"><ele>2839.77</ele><time>2026-05-04T03:38:01.000Z</time></trkpt>
        <trkpt lat="29.5289047" lon="103.32908"><ele>2841.86</ele><time>2026-05-04T03:38:17.000Z</time></trkpt>
        <trkpt lat="29.5288633" lon="103.329178"><ele>2843.97</ele><time>2026-05-04T03:38:43.000Z</time></trkpt>
        <trkpt lat="29.5288146" lon="103.3292736"><ele>2846.44</ele><time>2026-05-04T03:39:01.000Z</time></trkpt>
        <trkpt lat="29.528757" lon="103.3293575"><ele>2849.53</ele><time>2026-05-04T03:39:21.000Z</time></trkpt>
        <trkpt lat="29.528719" lon="103.3294604"><ele>2850.55</ele><time>2026-05-04T03:39:39.000Z</time></trkpt>
        <trkpt lat="29.5286968" lon="103.3295695"><ele>2852.28</ele><time>2026-05-04T03:40:01.000Z</time></trkpt>
        <trkpt lat="29.5286801" lon="103.3296769"><ele>2853.31</ele><time>2026-05-04T03:40:19.000Z</time></trkpt>
        <trkpt lat="29.528654" lon="103.3297862"><ele>2854.7</ele><time>2026-05-04T03:40:47.000Z</time></trkpt>
        <trkpt lat="29.528646" lon="103.3298927"><ele>2856.68</ele><time>2026-05-04T03:41:09.000Z</time></trkpt>
        <trkpt lat="29.5286002" lon="103.3299962"><ele>2858.43</ele><time>2026-05-04T03:41:21.000Z</time></trkpt>
        <trkpt lat="29.528536" lon="103.330095"><ele>2859.96</ele><time>2026-05-04T03:41:33.000Z</time></trkpt>
        <trkpt lat="29.5284629" lon="103.3301688"><ele>2860.81</ele><time>2026-05-04T03:41:43.000Z</time></trkpt>
        <trkpt lat="29.5284008" lon="103.3302359"><ele>2862.23</ele><time>2026-05-04T03:41:55.000Z</time></trkpt>
        <trkpt lat="29.5284128" lon="103.3303251"><ele>2861.51</ele><time>2026-05-04T03:42:09.000Z</time></trkpt>
        <trkpt lat="29.5284348" lon="103.3303839"><ele>2858.86</ele><time>2026-05-04T03:42:15.000Z</time></trkpt>
        <trkpt lat="29.5283731" lon="103.33043"><ele>2856.87</ele><time>2026-05-04T03:42:55.000Z</time></trkpt>
        <trkpt lat="29.52837" lon="103.3305187"><ele>2856.3</ele><time>2026-05-04T03:43:27.000Z</time></trkpt>
        <trkpt lat="29.5283482" lon="103.3306205"><ele>2855.84</ele><time>2026-05-04T03:43:53.000Z</time></trkpt>
        <trkpt lat="29.5283079" lon="103.3307262"><ele>2857.98</ele><time>2026-05-04T03:44:25.000Z</time></trkpt>
        <trkpt lat="29.5282409" lon="103.3308013"><ele>2859.55</ele><time>2026-05-04T03:44:37.000Z</time></trkpt>
        <trkpt lat="29.5281673" lon="103.330877"><ele>2864.04</ele><time>2026-05-04T03:45:01.000Z</time></trkpt>
        <trkpt lat="29.5281347" lon="103.3309756"><ele>2869.16</ele><time>2026-05-04T03:45:15.000Z</time></trkpt>
        <trkpt lat="29.5281194" lon="103.3310803"><ele>2872.91</ele><time>2026-05-04T03:45:39.000Z</time></trkpt>
        <trkpt lat="29.5280815" lon="103.3311783"><ele>2877.58</ele><time>2026-05-04T03:46:01.000Z</time></trkpt>
        <trkpt lat="29.5280295" lon="103.3312653"><ele>2879.37</ele><time>2026-05-04T03:46:21.000Z</time></trkpt>
        <trkpt lat="29.5279593" lon="103.3313304"><ele>2881.34</ele><time>2026-05-04T03:46:39.000Z</time></trkpt>
        <trkpt lat="29.5278825" lon="103.3313866"><ele>2883.77</ele><time>2026-05-04T03:46:57.000Z</time></trkpt>
        <trkpt lat="29.5278125" lon="103.3314607"><ele>2884.1</ele><time>2026-05-04T03:47:13.000Z</time></trkpt>
        <trkpt lat="29.5277871" lon="103.3315586"><ele>2886.92</ele><time>2026-05-04T03:47:33.000Z</time></trkpt>
        <trkpt lat="29.5277643" lon="103.331671"><ele>2888.36</ele><time>2026-05-04T03:47:55.000Z</time></trkpt>
        <trkpt lat="29.5277585" lon="103.3317961"><ele>2889.02</ele><time>2026-05-04T03:48:09.000Z</time></trkpt>
        <trkpt lat="29.5277477" lon="103.3319151"><ele>2889.29</ele><time>2026-05-04T03:48:19.000Z</time></trkpt>
        <trkpt lat="29.5277292" lon="103.3320244"><ele>2890.32</ele><time>2026-05-04T03:48:33.000Z</time></trkpt>
        <trkpt lat="29.5276577" lon="103.3320822"><ele>2891.3</ele><time>2026-05-04T03:48:55.000Z</time></trkpt>
        <trkpt lat="29.5275717" lon="103.3321329"><ele>2892.22</ele><time>2026-05-04T03:49:31.000Z</time></trkpt>
        <trkpt lat="29.5275467" lon="103.3322279"><ele>2894.55</ele><time>2026-05-04T03:49:55.000Z</time></trkpt>
        <trkpt lat="29.5276024" lon="103.332309"><ele>2895.97</ele><time>2026-05-04T03:50:13.000Z</time></trkpt>
        <trkpt lat="29.5275879" lon="103.3323979"><ele>2898.04</ele><time>2026-05-04T03:50:35.000Z</time></trkpt>
        <trkpt lat="29.5275069" lon="103.3324766"><ele>2902.53</ele><time>2026-05-04T03:52:03.000Z</time></trkpt>
        <trkpt lat="29.5274122" lon="103.3325195"><ele>2904.35</ele><time>2026-05-04T03:52:57.000Z</time></trkpt>
        <trkpt lat="29.5273287" lon="103.3324865"><ele>2908.57</ele><time>2026-05-04T03:53:09.000Z</time></trkpt>
        <trkpt lat="29.5272802" lon="103.3323869"><ele>2910.21</ele><time>2026-05-04T03:54:13.000Z</time></trkpt>
        <trkpt lat="29.5272229" lon="103.3322859"><ele>2912.39</ele><time>2026-05-04T03:54:25.000Z</time></trkpt>
        <trkpt lat="29.5271387" lon="103.3322886"><ele>2912.68</ele><time>2026-05-04T03:54:43.000Z</time></trkpt>
        <trkpt lat="29.5271247" lon="103.3323777"><ele>2913.46</ele><time>2026-05-04T03:54:59.000Z</time></trkpt>
        <trkpt lat="29.5271141" lon="103.3324915"><ele>2915.65</ele><time>2026-05-04T03:55:21.000Z</time></trkpt>
        <trkpt lat="29.5271154" lon="103.3326109"><ele>2918.86</ele><time>2026-05-04T03:55:33.000Z</time></trkpt>
        <trkpt lat="29.5271495" lon="103.332722"><ele>2921.19</ele><time>2026-05-04T03:55:47.000Z</time></trkpt>
        <trkpt lat="29.5271406" lon="103.332834"><ele>2922.56</ele><time>2026-05-04T03:56:01.000Z</time></trkpt>
        <trkpt lat="29.5271177" lon="103.33294"><ele>2922.64</ele><time>2026-05-04T03:56:15.000Z</time></trkpt>
        <trkpt lat="29.5270932" lon="103.3330535"><ele>2924.55</ele><time>2026-05-04T03:56:41.000Z</time></trkpt>
        <trkpt lat="29.527129" lon="103.3331441"><ele>2925.6</ele><time>2026-05-04T03:56:57.000Z</time></trkpt>
        <trkpt lat="29.5271591" lon="103.3332416"><ele>2926.62</ele><time>2026-05-04T03:57:11.000Z</time></trkpt>
        <trkpt lat="29.5271399" lon="103.3333356"><ele>2928.11</ele><time>2026-05-04T03:57:29.000Z</time></trkpt>
        <trkpt lat="29.5270699" lon="103.3333963"><ele>2929.62</ele><time>2026-05-04T03:57:49.000Z</time></trkpt>
        <trkpt lat="29.5269787" lon="103.3334326"><ele>2928.44</ele><time>2026-05-04T03:58:03.000Z</time></trkpt>
        <trkpt lat="29.5268963" lon="103.3334917"><ele>2931.14</ele><time>2026-05-04T03:58:27.000Z</time></trkpt>
        <trkpt lat="29.5268105" lon="103.3334673"><ele>2933.12</ele><time>2026-05-04T03:58:47.000Z</time></trkpt>
        <trkpt lat="29.5267513" lon="103.333527"><ele>2935.88</ele><time>2026-05-04T03:59:07.000Z</time></trkpt>
        <trkpt lat="29.5266688" lon="103.3335221"><ele>2938.82</ele><time>2026-05-04T03:59:27.000Z</time></trkpt>
        <trkpt lat="29.5266189" lon="103.3335911"><ele>2940.96</ele><time>2026-05-04T03:59:49.000Z</time></trkpt>
        <trkpt lat="29.5265379" lon="103.3336182"><ele>2944.97</ele><time>2026-05-04T04:00:05.000Z</time></trkpt>
        <trkpt lat="29.5264463" lon="103.3336498"><ele>2949.35</ele><time>2026-05-04T04:00:23.000Z</time></trkpt>
        <trkpt lat="29.5263606" lon="103.3337047"><ele>2951.31</ele><time>2026-05-04T04:00:33.000Z</time></trkpt>
        <trkpt lat="29.5262771" lon="103.3337627"><ele>2952.54</ele><time>2026-05-04T04:00:43.000Z</time></trkpt>
        <trkpt lat="29.5261899" lon="103.333794"><ele>2953.92</ele><time>2026-05-04T04:01:11.000Z</time></trkpt>
        <trkpt lat="29.5261357" lon="103.3338766"><ele>2954.16</ele><time>2026-05-04T04:01:25.000Z</time></trkpt>
        <trkpt lat="29.5260552" lon="103.3339013"><ele>2954.67</ele><time>2026-05-04T04:01:41.000Z</time></trkpt>
        <trkpt lat="29.5259715" lon="103.3339373"><ele>2957.13</ele><time>2026-05-04T04:02:01.000Z</time></trkpt>
        <trkpt lat="29.5258814" lon="103.3339872"><ele>2960.29</ele><time>2026-05-04T04:02:21.000Z</time></trkpt>
        <trkpt lat="29.5258064" lon="103.3340518"><ele>2962.26</ele><time>2026-05-04T04:02:45.000Z</time></trkpt>
        <trkpt lat="29.5257881" lon="103.3340734"><ele>2961.67</ele><time>2026-05-04T04:02:47.000Z</time></trkpt>
        <trkpt lat="29.5257195" lon="103.3340125"><ele>2961.32</ele><time>2026-05-04T04:04:11.000Z</time></trkpt>
        <trkpt lat="29.5256298" lon="103.3340346"><ele>2957.6</ele><time>2026-05-04T04:04:29.000Z</time></trkpt>
        <trkpt lat="29.5255807" lon="103.3341428"><ele>2952.19</ele><time>2026-05-04T04:04:35.000Z</time></trkpt>
        <trkpt lat="29.5255121" lon="103.3342319"><ele>2952.57</ele><time>2026-05-04T04:04:43.000Z</time></trkpt>
        <trkpt lat="29.5254456" lon="103.3343225"><ele>2953.19</ele><time>2026-05-04T04:04:51.000Z</time></trkpt>
        <trkpt lat="29.525402" lon="103.3344266"><ele>2956.54</ele><time>2026-05-04T04:05:01.000Z</time></trkpt>
        <trkpt lat="29.525404" lon="103.3344671"><ele>2960.98</ele><time>2026-05-04T04:05:05.000Z</time></trkpt>
        <trkpt lat="29.5253878" lon="103.3345464"><ele>2964</ele><time>2026-05-04T04:06:49.000Z</time></trkpt>
        <trkpt lat="29.5253381" lon="103.3346343"><ele>2967.98</ele><time>2026-05-04T04:07:13.000Z</time></trkpt>
        <trkpt lat="29.525275" lon="103.3347079"><ele>2971.19</ele><time>2026-05-04T04:07:27.000Z</time></trkpt>
        <trkpt lat="29.525195" lon="103.3347701"><ele>2974.09</ele><time>2026-05-04T04:07:47.000Z</time></trkpt>
        <trkpt lat="29.525113" lon="103.3348245"><ele>2978.46</ele><time>2026-05-04T04:08:05.000Z</time></trkpt>
        <trkpt lat="29.525029" lon="103.3348706"><ele>2984.27</ele><time>2026-05-04T04:08:25.000Z</time></trkpt>
        <trkpt lat="29.5249442" lon="103.3348477"><ele>2987.85</ele><time>2026-05-04T04:08:33.000Z</time></trkpt>
        <trkpt lat="29.5248498" lon="103.3347939"><ele>2989.38</ele><time>2026-05-04T04:08:43.000Z</time></trkpt>
        <trkpt lat="29.524756" lon="103.3347734"><ele>2988.34</ele><time>2026-05-04T04:08:59.000Z</time></trkpt>
        <trkpt lat="29.5246513" lon="103.3347599"><ele>2987.57</ele><time>2026-05-04T04:09:23.000Z</time></trkpt>
        <trkpt lat="29.5245642" lon="103.334804"><ele>2990.91</ele><time>2026-05-04T04:09:33.000Z</time></trkpt>
        <trkpt lat="29.5244957" lon="103.3348794"><ele>2994.45</ele><time>2026-05-04T04:09:45.000Z</time></trkpt>
        <trkpt lat="29.5244005" lon="103.3349168"><ele>2996.44</ele><time>2026-05-04T04:09:57.000Z</time></trkpt>
        <trkpt lat="29.524294" lon="103.3349327"><ele>2998.36</ele><time>2026-05-04T04:10:07.000Z</time></trkpt>
        <trkpt lat="29.5241861" lon="103.334943"><ele>2998.96</ele><time>2026-05-04T04:10:17.000Z</time></trkpt>
        <trkpt lat="29.5240726" lon="103.3349508"><ele>2998.79</ele><time>2026-05-04T04:10:27.000Z</time></trkpt>
        <trkpt lat="29.5239709" lon="103.3349453"><ele>2998.79</ele><time>2026-05-04T04:10:37.000Z</time></trkpt>
        <trkpt lat="29.5238782" lon="103.3349572"><ele>2999.22</ele><time>2026-05-04T04:10:51.000Z</time></trkpt>
        <trkpt lat="29.5237888" lon="103.3349684"><ele>3000.85</ele><time>2026-05-04T04:11:01.000Z</time></trkpt>
        <trkpt lat="29.5236996" lon="103.3349357"><ele>3001.51</ele><time>2026-05-04T04:11:11.000Z</time></trkpt>
        <trkpt lat="29.5236049" lon="103.3349114"><ele>3000.54</ele><time>2026-05-04T04:11:23.000Z</time></trkpt>
        <trkpt lat="29.5235051" lon="103.3348901"><ele>2998.82</ele><time>2026-05-04T04:11:37.000Z</time></trkpt>
        <trkpt lat="29.5234019" lon="103.3348611"><ele>2998.14</ele><time>2026-05-04T04:11:49.000Z</time></trkpt>
        <trkpt lat="29.5232978" lon="103.3348263"><ele>2997.32</ele><time>2026-05-04T04:12:01.000Z</time></trkpt>
        <trkpt lat="29.5231966" lon="103.3347937"><ele>2996.93</ele><time>2026-05-04T04:12:11.000Z</time></trkpt>
        <trkpt lat="29.5231398" lon="103.3347765"><ele>2996.92</ele><time>2026-05-04T04:12:17.000Z</time></trkpt>
        <trkpt lat="29.5230599" lon="103.3347639"><ele>2996.92</ele><time>2026-05-04T04:12:35.000Z</time></trkpt>
        <trkpt lat="29.5229681" lon="103.3347596"><ele>2997.46</ele><time>2026-05-04T04:12:51.000Z</time></trkpt>
        <trkpt lat="29.5228688" lon="103.3347745"><ele>2998.98</ele><time>2026-05-04T04:13:05.000Z</time></trkpt>
        <trkpt lat="29.5227767" lon="103.3348111"><ele>3001.96</ele><time>2026-05-04T04:13:17.000Z</time></trkpt>
        <trkpt lat="29.5227767" lon="103.3348111"><ele>3001.96</ele><time>2026-05-04T04:13:49.000Z</time></trkpt>
      </trkseg>
  </trk>
</gpx>